[[{"header":{"parameterUnit":"m.s-1","parameterCategory":1,"la1":31.0,"la2":29.5877,"lo1":-88.7671,"lo2":-86.6584,"dy":0.0162,"dx":0.0185,"nx":115,"ny":88,"refTime":"2023-08-04T00:00:00:Z","depth":0,"parameterNumber":2,"parameterNumberName":"U-component_of_WINDS"},"data":[0.0,0.0,0.0,0.0,0.0,0.0,0.0,0.0,0.0,0.0,0.0,0.0,0.0,0.0,0.0,0.0,0.0,0.0,0.0,0.0,0.0,0.0,0.0,0.0,0.0,0.0,0.0,0.0,0.0,0.0,0.0,0.0,0.0,0.0,0.0,0.0,0.0,0.0,0.0,0.0,0.0,0.0,0.0,0.0,0.0,0.0,0.0,0.0,0.0,0.0,0.0,0.0,0.0,0.0,0.0,0.0,0.0,0.0,0.0,0.0,0.0,0.0,0.0,0.0,0.0,0.0,0.0,0.0,0.0,0.0,0.0,0.0,0.0,0.0,0.0,0.0,0.0,0.0,0.0,0.0,0.0,0.0,0.0,0.0,0.0,0.0,0.0,0.0,0.0,0.0,0.0,0.0,0.0,0.0,0.0,0.0,0.0,0.0,0.0,0.0,0.0,0.0,0.0,0.0,0.0,0.0,0.0,0.0,0.0,0.0,0.0,0.0,0.0,0.0,0.0,0.0,0.0,0.0,0.0,0.0,0.0,0.0,0.0,0.0,0.0,0.0,0.0,0.0,0.0,0.0,0.0,0.0,0.0,0.0,0.0,0.0,0.0,0.0,0.0,0.0,0.0,0.0,0.0,0.0,0.0,0.0,0.0,0.0,0.0,0.0,0.0,0.0,0.0,0.0,0.0,0.0,0.0,0.0,0.0,0.0,0.0,0.0,0.0,0.0,0.0,0.0,0.0,0.0,0.0,0.0,0.0,0.0,0.0,0.0,0.0,0.0,0.0,0.0,0.0,0.0,0.0,0.0,0.0,0.0,0.0,0.0,0.0,0.0,0.0,0.0,0.0,0.0,0.0,0.0,0.0,0.0,0.0,0.0,0.0,0.0,0.0,0.0,0.0,0.0,0.0,0.0,0.0,0.0,0.0,0.0,0.0,0.0,0.0,0.0,0.0,0.0,0.0,0.0,0.0,0.0,0.0,0.0,0.0,0.0,0.0,0.0,0.0,0.0,0.0,0.0,0.0,0.0,0.0,0.0,0.0,0.0,0.0,0.0,0.0,0.0,0.0,0.0,0.0,0.0,0.0,0.0,0.0,0.0,0.0,0.0,0.0,0.0,0.0,0.0,0.0,0.0,0.0,0.0,0.0,0.0,0.0,0.0,0.0,0.0,0.0,0.0,0.0,0.0,0.0,0.0,0.0,0.0,0.0,0.0,0.0,0.0,0.0,0.0,0.0,0.0,0.0,0.0,0.0,0.0,0.0,0.0,0.0,0.0,0.0,0.0,0.0,0.0,0.0,0.0,0.0,0.0,0.0,0.0,0.0,0.0,0.0,0.0,0.0,0.0,0.0,0.0,0.0,0.0,0.0,0.0,0.0,0.0,0.0,0.0,0.0,0.0,0.0,0.0,0.0,0.0,0.0,0.0,0.0,0.0,0.0,0.0,0.0,0.0,0.0,0.0,0.0,0.0,0.0,0.0,0.0,0.0,0.0,0.0,0.0,0.0,0.0,0.0,0.0,0.0,0.0,0.0,0.0,0.0,0.0,0.0,0.0,0.0,0.0,0.0,0.0,0.0,0.0,0.0,0.0,0.0,0.0,0.0,0.0,0.0,0.0,0.0,0.0,0.0,0.0,0.0,0.0,0.0,0.0,0.0,0.0,0.0,0.0,0.0,0.0,0.0,0.0,0.0,0.0,0.0,0.0,0.0,0.0,0.0,0.0,0.0,0.0,0.0,0.0,0.0,0.0,0.0,0.0,0.0,0.0,0.0,0.0,0.0,0.0,0.0,0.0,0.0,0.0,0.0,0.0,0.0,0.0,0.0,0.0,0.0,0.0,0.0,0.0,0.0,0.0,0.0,0.0,0.0,0.0,0.0,0.0,0.0,0.0,0.0,0.0,0.0,0.0,0.0,0.0,0.0,0.0,0.0,0.0,0.0,0.0,0.0,0.0,0.0,0.0,0.0,0.0,0.0,0.0,0.0,0.0,0.0,0.0,0.0,0.0,0.0,0.0,0.0,0.0,0.0,0.0,0.0,0.0,0.0,0.0,0.0,0.0,0.0,0.0,0.0,0.0,0.0,0.0,0.0,0.0,0.0,0.0,0.0,0.0,0.0,0.0,0.0,0.0,0.0,0.0,0.0,0.0,0.0,0.0,0.0,0.0,0.0,0.0,0.0,0.0,0.0,0.0,0.0,0.0,0.0,0.0,0.0,0.0,0.0,0.0,0.0,0.0,0.0,0.0,0.0,0.0,0.0,0.0,0.0,0.0,0.0,0.0,0.0,0.0,0.0,0.0,0.0,0.0,0.0,0.0,0.0,0.0,0.0,0.0,0.0,0.0,0.0,0.0,0.0,0.0,0.0,0.0,0.0,0.0,0.0,0.0,0.0,0.0,0.0,0.0,0.0,0.0,0.0,0.0,0.0,0.0,0.0,0.0,0.0,0.0,0.0,0.0,0.0,0.0,0.0,0.0,0.0,0.0,0.0,0.0,0.0,0.0,0.0,0.0,0.0,0.0,0.0,0.0,0.0,0.0,0.0,0.0,0.0,0.0,0.0,0.0,0.0,0.0,0.0,0.0,0.0,0.0,0.0,0.0,0.0,0.0,0.0,0.0,0.0,0.0,0.0,0.0,0.0,0.0,0.0,0.0,0.0,0.0,0.0,0.0,0.0,0.0,0.0,0.0,0.0,0.0,0.0,0.0,0.0,0.0,0.0,0.0,0.0,0.0,0.0,0.0,0.0,0.0,0.0,0.0,0.0,0.0,0.0,0.0,0.0,0.0,0.0,0.0,0.0,0.0,0.0,0.0,0.0,0.0,0.0,0.0,0.0,0.0,0.0,0.0,0.0,0.0,0.0,0.0,0.0,0.0,0.0,0.0,0.0,0.0,0.0,0.0,0.0,0.0,0.0,0.0,0.0,0.0,0.0,0.0,0.0,0.0,0.0,0.0,0.0,0.0,0.0,0.0,0.0,0.0,0.0,0.0,0.0,0.0,0.0,0.0,0.0,0.0,0.0,0.0,0.0,0.0,0.0,0.0,0.0,0.0,0.0,0.0,0.0,0.0,0.0,0.0,0.0,0.0,0.0,0.0,0.0,0.0,0.0,0.0,0.0,0.0,0.0,0.0,0.0,0.0,0.0,0.0,0.0,0.0,0.0,0.0,0.0,0.0,0.0,0.0,0.0,0.0,0.0,0.0,0.0,0.0,0.0,0.0,0.0,0.0,0.0,0.0,0.0,0.0,0.0,0.0,0.0,0.0,0.0,0.0,0.0,0.0,0.0,0.0,0.0,0.0,0.0,0.0,0.0,0.0,0.0,0.0,0.0,0.0,0.0,0.0,0.0,0.0,0.0,0.0,0.0,0.0,0.0,0.0,0.0,0.0,0.0,0.0,0.0,0.0,0.0,0.0,0.0,0.0,0.0,0.0,0.0,0.0,0.0,0.0,0.0,0.0,0.0,0.0,0.0,0.0,0.0,0.0,0.0,0.0,0.0,0.0,0.0,0.0,0.0,0.0,0.0,0.0,0.0,0.0,0.0,0.0,0.0,0.0,0.0,0.0,0.0,0.0,0.0,0.0,0.0,0.0,0.0,0.0,0.0,0.0,0.0,0.0,0.0,0.0,0.0,0.0,0.0,0.0,0.0,0.0,0.0,0.0,0.0,0.0,0.0,0.0,0.0,0.0,0.0,0.0,0.0,0.0,0.0,0.0,0.0,0.0,0.0,0.0,0.0,0.0,0.0,0.0,0.0,0.0,0.0,0.0,0.0,0.0,0.0,0.0,0.0,0.0,0.0,0.0,0.0,0.0,0.0,0.0,0.0,0.0,0.0,0.0,0.0,0.0,0.0,0.0,0.0,0.0,0.0,0.0,0.0,0.0,0.0,0.0,0.0,0.0,0.0,0.0,0.0,0.0,0.0,0.0,0.0,0.0,0.0,0.0,0.0,0.0,0.0,0.0,0.0,0.0,0.0,0.0,0.0,0.0,0.0,0.0,0.0,0.0,0.0,0.0,0.0,0.0,0.0,0.0,0.0,0.0,0.0,0.0,0.0,0.0,0.0,0.0,0.0,0.0,0.0,0.0,0.0,0.0,0.0,0.0,0.0,0.0,0.0,0.0,0.0,0.0,0.0,0.0,0.0,0.0,0.0,0.0,0.0,0.0,0.0,0.0,0.0,0.0,0.0,0.0,0.0,0.0,0.0,0.0,0.0,0.0,0.0,0.0,0.0,0.0,0.0,0.0,0.0,0.0,0.0,0.0,0.0,0.0,0.0,-1.9757,0.0,0.0,0.0,0.0,0.0,0.0,0.0,0.0,0.0,0.0,0.0,0.0,0.0,0.0,0.0,0.0,0.0,0.0,0.0,0.0,0.0,0.0,0.0,0.0,0.0,0.0,0.0,0.0,0.0,0.0,0.0,0.0,0.0,0.0,0.0,0.0,0.0,0.0,0.0,0.0,0.0,0.0,0.0,0.0,0.0,0.0,0.0,0.0,0.0,0.0,0.0,0.0,0.0,0.0,0.0,0.0,0.0,0.0,0.0,0.0,0.0,0.0,0.0,0.0,0.0,0.0,0.0,0.0,0.0,0.0,0.0,0.0,0.0,0.0,0.0,0.0,0.0,0.0,0.0,0.0,0.0,0.0,0.0,0.0,0.0,0.0,0.0,0.0,0.0,0.0,0.0,0.0,0.0,0.0,0.0,0.0,0.0,0.0,0.0,0.0,0.0,0.0,0.0,0.0,0.0,0.0,0.0,0.0,0.0,0.0,-1.8553,-1.8836,-1.9473,-1.9783,-1.9729,0.0,0.0,0.0,0.0,0.0,0.0,0.0,0.0,0.0,0.0,0.0,0.0,0.0,0.0,0.0,0.0,0.0,0.0,0.0,0.0,0.0,0.0,0.0,0.0,0.0,0.0,0.0,0.0,0.0,0.0,0.0,0.0,0.0,0.0,0.0,0.0,0.0,0.0,0.0,0.0,0.0,0.0,0.0,0.0,0.0,0.0,0.0,0.0,0.0,0.0,0.0,0.0,0.0,0.0,0.0,0.0,0.0,0.0,0.0,0.0,0.0,0.0,0.0,0.0,0.0,0.0,0.0,0.0,0.0,0.0,0.0,0.0,0.0,0.0,0.0,0.0,0.0,0.0,0.0,0.0,0.0,0.0,0.0,0.0,0.0,0.0,0.0,0.0,0.0,0.0,0.0,0.0,0.0,0.0,0.0,0.0,0.0,0.0,0.0,0.0,0.0,0.0,0.0,0.0,0.0,0.0,0.0,0.0,0.0,0.0,0.0,0.0,-1.9788,-2.0114,-2.0157,0.0,0.0,0.0,0.0,0.0,0.0,0.0,0.0,0.0,0.0,0.0,0.0,0.0,0.0,0.0,0.0,0.0,0.0,0.0,0.0,0.0,0.0,0.0,0.0,0.0,0.0,0.0,0.0,0.0,0.0,0.0,0.0,0.0,0.0,0.0,0.0,0.0,0.0,0.0,0.0,0.0,0.0,0.0,0.0,0.0,0.0,0.0,0.0,0.0,0.0,0.0,0.0,0.0,0.0,0.0,0.0,0.0,0.0,0.0,0.0,0.0,0.0,0.0,0.0,0.0,0.0,0.0,0.0,0.0,0.0,0.0,0.0,0.0,0.0,0.0,0.0,0.0,0.0,0.0,0.0,0.0,0.0,0.0,0.0,0.0,0.0,0.0,0.0,0.0,0.0,0.0,0.0,0.0,0.0,0.0,0.0,0.0,0.0,0.0,0.0,0.0,0.0,0.0,0.0,0.0,0.0,0.0,0.0,0.0,0.0,-1.8728,-1.9357,-1.9846,0.0,-2.1354,0.0,0.0,0.0,0.0,0.0,0.0,0.0,0.0,0.0,0.0,0.0,0.0,0.0,0.0,0.0,0.0,0.0,0.0,0.0,0.0,0.0,0.0,0.0,0.0,0.0,0.0,0.0,0.0,0.0,0.0,0.0,0.0,0.0,0.0,0.0,0.0,0.0,0.0,0.0,0.0,0.0,0.0,0.0,0.0,0.0,0.0,0.0,0.0,0.0,0.0,0.0,0.0,0.0,0.0,0.0,0.0,0.0,0.0,0.0,0.0,0.0,0.0,0.0,0.0,0.0,0.0,0.0,0.0,0.0,0.0,0.0,0.0,0.0,0.0,0.0,0.0,0.0,0.0,0.0,0.0,0.0,0.0,0.0,0.0,0.0,0.0,0.0,0.0,0.0,0.0,0.0,0.0,0.0,0.0,0.0,0.0,0.0,0.0,0.0,0.0,0.0,0.0,0.0,0.0,0.0,0.0,0.0,0.0,0.0,0.0,-1.9055,-1.9821,-2.0552,-2.1283,0.0,0.0,0.0,0.0,0.0,0.0,0.0,0.0,0.0,0.0,0.0,0.0,0.0,0.0,0.0,0.0,0.0,0.0,0.0,0.0,0.0,0.0,0.0,0.0,0.0,0.0,0.0,0.0,0.0,0.0,0.0,0.0,0.0,0.0,0.0,0.0,0.0,0.0,0.0,0.0,0.0,0.0,0.0,0.0,0.0,0.0,0.0,0.0,0.0,0.0,0.0,0.0,0.0,0.0,0.0,0.0,0.0,0.0,0.0,0.0,0.0,0.0,0.0,0.0,0.0,0.0,0.0,0.0,0.0,0.0,0.0,0.0,0.0,0.0,0.0,0.0,0.0,0.0,0.0,0.0,0.0,0.0,0.0,0.0,0.0,0.0,0.0,0.0,0.0,0.0,0.0,0.0,0.0,0.0,0.0,0.0,0.0,0.0,0.0,0.0,0.0,0.0,0.0,0.0,0.0,0.0,0.0,0.0,0.0,0.0,-1.8697,-1.9531,-2.0573,-2.1499,-2.2053,-2.2203,0.0,0.0,0.0,0.0,0.0,0.0,0.0,0.0,0.0,0.0,0.0,0.0,0.0,0.0,0.0,0.0,0.0,0.0,0.0,0.0,0.0,0.0,0.0,0.0,0.0,0.0,0.0,0.0,0.0,0.0,0.0,0.0,0.0,0.0,0.0,0.0,0.0,0.0,0.0,0.0,0.0,0.0,0.0,0.0,0.0,0.0,0.0,0.0,0.0,0.0,0.0,0.0,0.0,0.0,0.0,0.0,0.0,0.0,0.0,0.0,0.0,0.0,0.0,0.0,0.0,0.0,0.0,0.0,0.0,0.0,0.0,0.0,0.0,0.0,0.0,0.0,0.0,0.0,0.0,0.0,0.0,0.0,0.0,0.0,0.0,0.0,0.0,0.0,0.0,0.0,0.0,0.0,0.0,0.0,0.0,0.0,0.0,0.0,0.0,0.0,0.0,0.0,0.0,0.0,0.0,0.0,0.0,0.0,-1.8738,-1.9309,-2.0337,-2.1845,-2.2511,-2.2632,0.0,0.0,0.0,0.0,0.0,0.0,0.0,0.0,0.0,0.0,0.0,0.0,0.0,0.0,0.0,0.0,0.0,0.0,0.0,0.0,0.0,0.0,0.0,0.0,0.0,0.0,0.0,0.0,0.0,0.0,0.0,0.0,0.0,0.0,0.0,0.0,0.0,0.0,0.0,0.0,0.0,0.0,0.0,0.0,0.0,0.0,0.0,0.0,0.0,0.0,0.0,0.0,0.0,0.0,0.0,0.0,0.0,0.0,0.0,0.0,0.0,0.0,0.0,0.0,0.0,0.0,0.0,0.0,0.0,0.0,0.0,0.0,0.0,0.0,0.0,0.0,0.0,0.0,0.0,0.0,0.0,0.0,0.0,0.0,0.0,0.0,0.0,0.0,0.0,0.0,0.0,0.0,0.0,0.0,0.0,0.0,0.0,0.0,0.0,0.0,0.0,0.0,0.0,0.0,0.0,0.0,0.0,0.0,0.0,-1.9293,-2.0496,-2.1539,-2.2347,-2.2591,-2.2477,0.0,0.0,0.0,0.0,0.0,0.0,0.0,0.0,0.0,0.0,0.0,0.0,0.0,0.0,0.0,0.0,0.0,0.0,0.0,0.0,0.0,0.0,0.0,0.0,0.0,0.0,0.0,0.0,0.0,0.0,0.0,0.0,0.0,0.0,0.0,0.0,0.0,0.0,0.0,0.0,0.0,0.0,0.0,0.0,0.0,0.0,0.0,0.0,0.0,0.0,0.0,0.0,0.0,0.0,0.0,0.0,0.0,0.0,0.0,0.0,0.0,0.0,0.0,0.0,0.0,0.0,0.0,0.0,0.0,0.0,0.0,0.0,0.0,0.0,0.0,0.0,0.0,0.0,0.0,0.0,0.0,0.0,0.0,0.0,0.0,0.0,0.0,0.0,0.0,0.0,0.0,0.0,0.0,0.0,0.0,0.0,0.0,0.0,0.0,0.0,0.0,0.0,0.0,0.0,0.0,0.0,0.0,0.0,0.0,-2.0148,0.0,-2.2423,-2.2678,-2.2661,-2.2356,0.0,0.0,0.0,0.0,0.0,0.0,0.0,0.0,0.0,0.0,0.0,0.0,0.0,0.0,0.0,0.0,0.0,0.0,0.0,0.0,0.0,0.0,0.0,0.0,0.0,0.0,0.0,0.0,0.0,0.0,0.0,0.0,0.0,0.0,0.0,0.0,0.0,0.0,0.0,0.0,0.0,0.0,0.0,0.0,0.0,0.0,0.0,0.0,0.0,0.0,0.0,0.0,0.0,0.0,0.0,0.0,0.0,0.0,0.0,0.0,0.0,0.0,0.0,0.0,0.0,0.0,0.0,0.0,0.0,0.0,0.0,0.0,0.0,0.0,0.0,0.0,0.0,0.0,0.0,0.0,0.0,0.0,0.0,0.0,0.0,0.0,0.0,0.0,0.0,0.0,0.0,0.0,0.0,0.0,0.0,0.0,0.0,0.0,0.0,0.0,0.0,0.0,0.0,0.0,0.0,0.0,0.0,0.0,-1.8765,-2.1287,-2.236,-2.2859,-2.2902,-2.2706,-2.2463,0.0,0.0,0.0,0.0,0.0,0.0,0.0,0.0,0.0,0.0,0.0,0.0,0.0,0.0,0.0,0.0,0.0,0.0,0.0,0.0,0.0,0.0,0.0,0.0,0.0,0.0,0.0,0.0,0.0,0.0,0.0,0.0,0.0,0.0,0.0,0.0,0.0,0.0,0.0,0.0,0.0,0.0,0.0,0.0,0.0,0.0,0.0,0.0,0.0,0.0,0.0,0.0,0.0,0.0,0.0,0.0,0.0,0.0,0.0,0.0,0.0,0.0,0.0,0.0,0.0,0.0,0.0,0.0,0.0,0.0,0.0,0.0,0.0,0.0,0.0,0.0,0.0,0.0,0.0,0.0,0.0,0.0,0.0,0.0,0.0,0.0,0.0,0.0,0.0,0.0,0.0,0.0,0.0,0.0,0.0,0.0,0.0,0.0,0.0,0.0,0.0,0.0,0.0,0.0,0.0,0.0,0.0,0.0,0.0,-2.1334,-2.2263,-2.2706,-2.2706,-2.2873,-2.2632,0.0,0.0,0.0,0.0,0.0,0.0,0.0,0.0,0.0,0.0,0.0,0.0,0.0,0.0,0.0,0.0,0.0,0.0,0.0,0.0,0.0,0.0,0.0,0.0,0.0,0.0,0.0,0.0,0.0,0.0,0.0,0.0,0.0,0.0,0.0,0.0,0.0,0.0,0.0,0.0,0.0,0.0,0.0,0.0,0.0,0.0,0.0,0.0,0.0,0.0,0.0,0.0,0.0,0.0,0.0,0.0,0.0,0.0,0.0,0.0,0.0,0.0,0.0,0.0,0.0,0.0,0.0,0.0,0.0,0.0,0.0,0.0,0.0,0.0,0.0,0.0,0.0,0.0,0.0,0.0,0.0,0.0,0.0,0.0,0.0,0.0,0.0,0.0,0.0,0.0,0.0,0.0,0.0,0.0,0.0,0.0,0.0,0.0,0.0,0.0,0.0,0.0,0.0,0.0,0.0,0.0,0.0,0.0,0.0,-2.1299,-2.2077,-2.2463,-2.2477,-2.2646,-2.2495,-2.1996,0.0,0.0,0.0,0.0,0.0,0.0,0.0,0.0,0.0,0.0,0.0,0.0,0.0,0.0,0.0,0.0,0.0,0.0,0.0,0.0,0.0,0.0,0.0,0.0,0.0,0.0,0.0,0.0,0.0,0.0,0.0,0.0,0.0,0.0,0.0,0.0,0.0,0.0,0.0,0.0,0.0,0.0,0.0,0.0,0.0,0.0,0.0,0.0,0.0,0.0,0.0,0.0,0.0,0.0,0.0,0.0,0.0,0.0,0.0,0.0,0.0,0.0,0.0,0.0,0.0,0.0,0.0,0.0,0.0,0.0,0.0,0.0,0.0,0.0,0.0,0.0,0.0,0.0,0.0,0.0,0.0,0.0,0.0,0.0,0.0,0.0,0.0,0.0,0.0,0.0,0.0,0.0,0.0,0.0,0.0,0.0,0.0,0.0,0.0,0.0,0.0,0.0,0.0,0.0,0.0,0.0,0.0,0.0,-2.1131,-2.1862,-2.2283,-2.2334,-2.2334,-2.2287,0.0,0.0,0.0,0.0,0.0,0.0,0.0,0.0,0.0,0.0,0.0,0.0,0.0,0.0,0.0,0.0,0.0,0.0,0.0,0.0,0.0,0.0,0.0,0.0,0.0,0.0,0.0,0.0,0.0,0.0,0.0,0.0,0.0,0.0,0.0,0.0,0.0,0.0,0.0,0.0,0.0,0.0,0.0,0.0,0.0,0.0,0.0,0.0,0.0,0.0,0.0,0.0,0.0,0.0,0.0,0.0,0.0,0.0,0.0,0.0,0.0,0.0,0.0,0.0,0.0,0.0,0.0,0.0,0.0,0.0,0.0,0.0,0.0,0.0,0.0,0.0,0.0,0.0,0.0,0.0,0.0,0.0,0.0,0.0,0.0,0.0,0.0,0.0,0.0,0.0,0.0,0.0,0.0,0.0,0.0,0.0,0.0,0.0,0.0,0.0,0.0,0.0,0.0,0.0,0.0,0.0,0.0,0.0,0.0,-2.0492,-2.2072,-2.3111,-2.3472,-2.3708,-2.3739,0.0,0.0,0.0,0.0,0.0,0.0,0.0,0.0,0.0,0.0,0.0,0.0,0.0,0.0,0.0,0.0,0.0,0.0,0.0,0.0,0.0,0.0,0.0,0.0,0.0,0.0,0.0,0.0,0.0,0.0,0.0,0.0,0.0,0.0,0.0,0.0,0.0,0.0,0.0,0.0,0.0,0.0,0.0,0.0,0.0,0.0,0.0,0.0,0.0,0.0,0.0,0.0,0.0,0.0,0.0,0.0,0.0,0.0,0.0,0.0,0.0,0.0,0.0,0.0,0.0,0.0,0.0,0.0,0.0,0.0,0.0,0.0,0.0,0.0,0.0,0.0,0.0,0.0,0.0,0.0,0.0,0.0,0.0,0.0,0.0,0.0,0.0,0.0,0.0,0.0,0.0,0.0,0.0,0.0,0.0,0.0,0.0,0.0,0.0,0.0,0.0,0.0,0.0,0.0,0.0,0.0,0.0,0.0,-1.9765,-2.0759,-2.2044,-2.3185,-2.4234,-2.4365,-2.4346,0.0,0.0,0.0,0.0,0.0,0.0,0.0,0.0,0.0,0.0,0.0,0.0,0.0,0.0,0.0,0.0,0.0,0.0,0.0,0.0,0.0,0.0,0.0,0.0,0.0,0.0,0.0,0.0,0.0,0.0,0.0,0.0,0.0,0.0,0.0,0.0,0.0,0.0,0.0,0.0,0.0,0.0,0.0,0.0,0.0,0.0,0.0,0.0,0.0,0.0,0.0,0.0,0.0,0.0,0.0,0.0,0.0,0.0,0.0,0.0,0.0,0.0,0.0,0.0,0.0,0.0,0.0,0.0,0.0,0.0,0.0,0.0,0.0,0.0,0.0,0.0,0.0,0.0,0.0,0.0,0.0,0.0,0.0,0.0,0.0,0.0,0.0,0.0,0.0,0.0,0.0,0.0,0.0,0.0,0.0,0.0,0.0,0.0,0.0,0.0,0.0,0.0,0.0,0.0,0.0,0.0,0.0,0.0,-1.9904,-2.1462,-2.1929,-2.2959,-2.4609,-2.4563,-2.4597,0.0,0.0,0.0,0.0,0.0,0.0,0.0,0.0,0.0,0.0,0.0,0.0,0.0,0.0,0.0,0.0,0.0,0.0,0.0,0.0,0.0,0.0,0.0,0.0,0.0,0.0,0.0,0.0,0.0,0.0,0.0,0.0,0.0,0.0,0.0,0.0,0.0,0.0,0.0,0.0,0.0,0.0,0.0,0.0,0.0,0.0,0.0,0.0,0.0,0.0,0.0,0.0,0.0,0.0,0.0,0.0,0.0,0.0,0.0,0.0,0.0,0.0,0.0,0.0,0.0,0.0,0.0,0.0,0.0,0.0,0.0,0.0,0.0,0.0,0.0,0.0,0.0,0.0,0.0,0.0,0.0,0.0,0.0,0.0,0.0,0.0,0.0,0.0,0.0,0.0,0.0,0.0,0.0,0.0,0.0,0.0,0.0,0.0,0.0,0.0,0.0,0.0,0.0,0.0,0.0,0.0,0.0,0.0,-1.9969,-2.0807,-2.2393,-2.3618,-2.438,-2.4678,-2.519,0.0,0.0,0.0,0.0,0.0,0.0,0.0,0.0,0.0,0.0,0.0,0.0,0.0,0.0,0.0,0.0,0.0,0.0,0.0,0.0,0.0,0.0,0.0,0.0,0.0,0.0,0.0,0.0,0.0,0.0,0.0,0.0,0.0,0.0,0.0,0.0,0.0,0.0,0.0,0.0,0.0,0.0,0.0,0.0,0.0,0.0,0.0,0.0,-3.0041,0.0,0.0,0.0,0.0,0.0,0.0,0.0,0.0,0.0,0.0,0.0,0.0,0.0,0.0,0.0,0.0,0.0,0.0,0.0,0.0,0.0,0.0,0.0,0.0,0.0,0.0,0.0,0.0,0.0,0.0,0.0,0.0,0.0,0.0,0.0,0.0,0.0,0.0,0.0,0.0,0.0,0.0,0.0,0.0,0.0,0.0,0.0,0.0,0.0,0.0,0.0,0.0,0.0,0.0,0.0,0.0,0.0,0.0,0.0,-1.9673,-2.0795,-2.1969,-2.2967,-2.3787,-2.4133,-2.4888,0.0,0.0,0.0,0.0,0.0,0.0,0.0,0.0,0.0,0.0,0.0,0.0,0.0,0.0,0.0,0.0,0.0,0.0,0.0,0.0,0.0,0.0,0.0,0.0,0.0,0.0,0.0,0.0,0.0,0.0,0.0,0.0,0.0,0.0,0.0,0.0,0.0,0.0,0.0,0.0,0.0,0.0,0.0,0.0,0.0,0.0,0.0,0.0,0.0,0.0,0.0,0.0,0.0,0.0,0.0,0.0,0.0,0.0,0.0,0.0,0.0,0.0,0.0,0.0,0.0,0.0,0.0,0.0,0.0,0.0,0.0,0.0,0.0,0.0,0.0,0.0,0.0,0.0,0.0,0.0,0.0,0.0,0.0,0.0,0.0,0.0,0.0,0.0,0.0,0.0,0.0,0.0,0.0,0.0,0.0,0.0,0.0,0.0,0.0,0.0,0.0,0.0,0.0,0.0,0.0,0.0,0.0,-1.7861,-1.9094,-2.0719,-2.1279,-2.2047,-2.3128,-2.3542,-2.4575,-2.6283,0.0,0.0,0.0,0.0,0.0,0.0,0.0,0.0,0.0,0.0,0.0,0.0,0.0,0.0,0.0,0.0,0.0,0.0,0.0,0.0,0.0,0.0,0.0,0.0,0.0,0.0,0.0,0.0,0.0,0.0,0.0,0.0,0.0,0.0,0.0,0.0,0.0,0.0,-3.3207,-3.3516,0.0,0.0,0.0,0.0,0.0,0.0,0.0,0.0,-2.8807,0.0,0.0,0.0,0.0,0.0,0.0,0.0,0.0,0.0,0.0,0.0,0.0,0.0,0.0,0.0,0.0,0.0,0.0,0.0,0.0,0.0,0.0,0.0,0.0,0.0,0.0,0.0,0.0,0.0,0.0,0.0,0.0,0.0,0.0,0.0,0.0,0.0,0.0,0.0,0.0,0.0,0.0,0.0,0.0,0.0,0.0,0.0,0.0,0.0,0.0,0.0,0.0,0.0,0.0,0.0,0.0,-1.6656,-1.7543,-1.8455,-1.9365,-2.1005,-2.2133,-2.2699,-2.3811,-2.5112,-2.6626,0.0,0.0,0.0,0.0,0.0,0.0,0.0,0.0,0.0,0.0,0.0,0.0,0.0,0.0,0.0,0.0,0.0,0.0,0.0,0.0,0.0,0.0,0.0,0.0,0.0,0.0,0.0,0.0,0.0,0.0,0.0,0.0,0.0,0.0,0.0,0.0,0.0,0.0,0.0,-3.4078,-3.3966,0.0,0.0,0.0,0.0,0.0,0.0,0.0,0.0,-2.9222,0.0,0.0,0.0,0.0,0.0,0.0,0.0,0.0,0.0,0.0,0.0,0.0,0.0,0.0,0.0,0.0,0.0,0.0,0.0,0.0,0.0,0.0,0.0,0.0,0.0,0.0,0.0,0.0,0.0,0.0,0.0,0.0,0.0,0.0,0.0,0.0,0.0,0.0,0.0,0.0,0.0,0.0,0.0,0.0,0.0,0.0,0.0,0.0,0.0,0.0,0.0,0.0,0.0,0.0,0.0,-1.6091,-1.7651,-1.8834,-1.954,-2.0921,-2.1992,-2.2593,-2.3604,-2.4524,0.0,0.0,0.0,0.0,0.0,0.0,0.0,0.0,0.0,0.0,0.0,0.0,0.0,0.0,0.0,0.0,0.0,0.0,0.0,0.0,0.0,0.0,0.0,0.0,0.0,0.0,0.0,0.0,0.0,0.0,0.0,0.0,0.0,0.0,0.0,0.0,0.0,0.0,0.0,0.0,-3.4113,-3.3944,-3.4014,0.0,0.0,0.0,0.0,0.0,0.0,-3.0835,-2.9606,0.0,0.0,0.0,0.0,0.0,0.0,0.0,0.0,0.0,0.0,0.0,0.0,0.0,0.0,0.0,0.0,0.0,0.0,0.0,0.0,0.0,0.0,0.0,0.0,0.0,0.0,0.0,0.0,0.0,0.0,0.0,0.0,0.0,0.0,0.0,0.0,0.0,0.0,0.0,0.0,0.0,0.0,0.0,0.0,0.0,0.0,0.0,0.0,0.0,0.0,0.0,0.0,0.0,0.0,0.0,-1.5906,-1.7696,-1.9058,-1.9765,-2.0981,-2.1867,-2.2514,-2.3529,-2.4207,0.0,0.0,0.0,0.0,0.0,0.0,0.0,0.0,0.0,0.0,0.0,0.0,0.0,0.0,0.0,0.0,0.0,0.0,0.0,0.0,0.0,0.0,0.0,0.0,0.0,0.0,0.0,0.0,0.0,0.0,0.0,0.0,0.0,0.0,0.0,0.0,0.0,0.0,0.0,0.0,0.0,-3.4278,-3.4398,-3.4126,0.0,0.0,0.0,0.0,-3.255,-3.1259,0.0,0.0,0.0,0.0,0.0,0.0,0.0,0.0,0.0,0.0,0.0,0.0,0.0,0.0,0.0,0.0,0.0,0.0,0.0,0.0,0.0,0.0,0.0,0.0,0.0,0.0,0.0,0.0,0.0,0.0,0.0,0.0,0.0,0.0,0.0,0.0,0.0,0.0,0.0,0.0,0.0,0.0,0.0,0.0,0.0,0.0,0.0,0.0,0.0,0.0,0.0,0.0,0.0,0.0,0.0,0.0,-1.694,-1.745,-1.8156,-1.9161,-2.101,-2.2078,-2.2364,-2.4155,-2.5526,0.0,0.0,0.0,0.0,0.0,0.0,0.0,0.0,0.0,0.0,0.0,0.0,0.0,0.0,0.0,0.0,0.0,0.0,0.0,0.0,0.0,0.0,0.0,0.0,0.0,0.0,0.0,0.0,0.0,0.0,0.0,0.0,0.0,0.0,0.0,0.0,0.0,0.0,0.0,0.0,0.0,-3.5572,-3.5295,-3.5715,-3.5738,0.0,0.0,-3.5131,-3.3512,-3.256,0.0,0.0,0.0,0.0,0.0,0.0,0.0,0.0,0.0,0.0,0.0,0.0,0.0,0.0,0.0,0.0,0.0,0.0,0.0,0.0,0.0,0.0,0.0,0.0,0.0,0.0,0.0,0.0,0.0,0.0,0.0,0.0,0.0,0.0,0.0,0.0,0.0,0.0,0.0,0.0,0.0,0.0,0.0,0.0,0.0,0.0,0.0,0.0,0.0,0.0,0.0,0.0,0.0,0.0,0.0,-1.666,-1.7431,-1.8276,-1.9154,-2.0216,-2.1639,-2.2692,-2.3284,-2.4601,-2.5511,0.0,0.0,0.0,0.0,0.0,0.0,0.0,0.0,0.0,0.0,0.0,0.0,0.0,0.0,0.0,0.0,0.0,0.0,0.0,0.0,0.0,0.0,0.0,0.0,0.0,0.0,0.0,0.0,0.0,0.0,0.0,0.0,0.0,0.0,0.0,0.0,0.0,0.0,0.0,0.0,0.0,0.0,-3.5701,-3.5645,0.0,0.0,0.0,-3.5363,-3.4252,0.0,0.0,0.0,0.0,0.0,0.0,0.0,0.0,0.0,0.0,0.0,0.0,0.0,0.0,0.0,0.0,0.0,0.0,0.0,0.0,0.0,0.0,0.0,0.0,0.0,0.0,0.0,0.0,0.0,0.0,0.0,0.0,0.0,0.0,0.0,0.0,0.0,0.0,0.0,0.0,0.0,0.0,0.0,0.0,0.0,0.0,0.0,0.0,0.0,0.0,0.0,0.0,0.0,0.0,0.0,0.0,0.0,-1.8074,-1.9155,-2.0167,-2.1001,-2.2188,-2.3158,-2.3986,-2.4862,0.0,0.0,0.0,0.0,0.0,0.0,0.0,0.0,0.0,0.0,0.0,0.0,0.0,0.0,0.0,0.0,0.0,0.0,0.0,0.0,0.0,0.0,0.0,0.0,0.0,0.0,0.0,-2.9282,0.0,0.0,0.0,0.0,0.0,0.0,0.0,0.0,0.0,0.0,0.0,0.0,0.0,0.0,-3.5954,-3.6,-3.5675,-3.5444,0.0,0.0,-3.5215,-3.4366,-3.313,-3.2185,0.0,0.0,0.0,0.0,0.0,0.0,0.0,0.0,0.0,0.0,0.0,0.0,0.0,0.0,0.0,0.0,0.0,0.0,0.0,0.0,0.0,0.0,0.0,0.0,0.0,0.0,0.0,0.0,0.0,0.0,0.0,0.0,0.0,0.0,0.0,0.0,0.0,0.0,0.0,0.0,0.0,0.0,0.0,0.0,0.0,0.0,0.0,0.0,0.0,0.0,0.0,0.0,0.0,0.0,-1.8301,-1.9186,-1.9835,-2.0323,-2.0644,-2.236,-2.3412,-2.3666,-2.4731,-2.5312,0.0,0.0,0.0,0.0,0.0,0.0,0.0,0.0,0.0,0.0,0.0,0.0,0.0,0.0,0.0,0.0,0.0,0.0,0.0,0.0,0.0,0.0,0.0,0.0,0.0,0.0,0.0,0.0,0.0,0.0,0.0,0.0,0.0,0.0,0.0,0.0,0.0,0.0,0.0,0.0,0.0,-3.7747,-3.6319,-3.6527,-3.6312,0.0,-3.517,-3.5023,-3.3375,-3.2648,-3.2074,-3.1437,0.0,0.0,0.0,0.0,0.0,0.0,0.0,0.0,0.0,0.0,0.0,0.0,0.0,0.0,0.0,0.0,0.0,0.0,0.0,0.0,0.0,0.0,0.0,0.0,0.0,0.0,0.0,0.0,0.0,0.0,0.0,0.0,0.0,0.0,0.0,0.0,0.0,0.0,0.0,0.0,0.0,0.0,0.0,0.0,0.0,0.0,0.0,0.0,0.0,0.0,0.0,0.0,0.0,-1.8273,-1.8922,-1.9784,-2.0537,-2.1288,-2.2574,-2.3632,-2.4345,-2.4969,-2.5312,0.0,0.0,0.0,0.0,0.0,0.0,0.0,0.0,0.0,0.0,0.0,0.0,0.0,0.0,0.0,0.0,0.0,0.0,0.0,0.0,0.0,0.0,0.0,0.0,0.0,0.0,0.0,0.0,-3.1071,-3.177,-3.2512,0.0,0.0,0.0,0.0,0.0,0.0,0.0,0.0,0.0,0.0,-3.6808,-3.616,-3.6053,0.0,0.0,-3.5161,-3.5065,-3.385,-3.3251,-3.2772,-3.2201,-3.0896,0.0,0.0,0.0,0.0,0.0,0.0,0.0,0.0,0.0,0.0,0.0,0.0,0.0,0.0,0.0,0.0,0.0,0.0,0.0,0.0,0.0,0.0,0.0,0.0,0.0,0.0,0.0,0.0,0.0,0.0,0.0,0.0,0.0,0.0,0.0,0.0,0.0,0.0,0.0,0.0,0.0,0.0,0.0,0.0,0.0,0.0,0.0,0.0,0.0,0.0,0.0,0.0,-1.8201,-1.8709,-1.9854,-2.0847,-2.1517,-2.2734,-2.3717,-2.4418,-2.4766,-2.5028,0.0,0.0,0.0,0.0,0.0,0.0,0.0,0.0,0.0,0.0,0.0,0.0,0.0,0.0,0.0,0.0,0.0,0.0,0.0,0.0,0.0,0.0,0.0,0.0,0.0,0.0,0.0,0.0,-3.2079,-3.2933,-3.3453,0.0,0.0,0.0,0.0,0.0,0.0,0.0,0.0,0.0,0.0,-3.6187,-3.5865,-3.5654,-3.5424,-3.5118,-3.5316,-3.5253,-3.4284,-3.3751,-3.3219,-3.2516,0.0,0.0,0.0,0.0,0.0,0.0,0.0,0.0,0.0,0.0,0.0,0.0,0.0,0.0,0.0,0.0,0.0,0.0,0.0,0.0,0.0,0.0,0.0,0.0,0.0,0.0,0.0,-1.5141,0.0,0.0,-1.5655,0.0,0.0,0.0,0.0,0.0,0.0,0.0,0.0,0.0,0.0,0.0,0.0,0.0,0.0,0.0,0.0,0.0,0.0,0.0,0.0,0.0,0.0,-1.8201,-1.87,-2.0313,-2.1165,-2.1242,-2.2767,-2.3593,-2.3666,-2.4043,-2.4418,-2.479,0.0,0.0,0.0,0.0,0.0,0.0,0.0,0.0,0.0,0.0,0.0,0.0,0.0,0.0,0.0,0.0,0.0,0.0,0.0,0.0,0.0,0.0,0.0,0.0,0.0,0.0,-3.1962,-3.2578,-3.3239,0.0,0.0,0.0,0.0,0.0,0.0,0.0,0.0,0.0,-3.6589,-3.6574,-3.6298,-3.5287,-3.5526,-3.5749,-3.5407,-3.5644,-3.5504,-3.443,-3.3872,-3.3103,0.0,0.0,0.0,0.0,0.0,0.0,0.0,0.0,0.0,0.0,0.0,0.0,0.0,0.0,0.0,0.0,0.0,0.0,0.0,0.0,0.0,0.0,0.0,0.0,0.0,0.0,0.0,-1.5404,-1.5507,0.0,0.0,0.0,0.0,0.0,0.0,0.0,0.0,0.0,0.0,0.0,-1.6555,-1.6555,0.0,0.0,0.0,0.0,0.0,0.0,0.0,0.0,0.0,0.0,0.0,0.0,-1.7797,-1.8282,-1.9904,-2.0914,-2.1242,-2.2756,-2.3593,-2.3593,-2.397,-2.4418,-2.4801,0.0,0.0,0.0,0.0,0.0,0.0,0.0,0.0,0.0,0.0,0.0,0.0,0.0,0.0,0.0,0.0,0.0,0.0,0.0,0.0,0.0,0.0,0.0,0.0,0.0,-3.2414,0.0,0.0,0.0,0.0,0.0,0.0,0.0,0.0,0.0,0.0,0.0,-3.6574,-3.6011,-3.5742,-3.5498,-3.5041,-3.5102,-3.5195,0.0,0.0,0.0,0.0,0.0,0.0,0.0,0.0,0.0,0.0,0.0,0.0,0.0,0.0,-2.4276,-2.3975,-2.2883,-2.1993,-2.2004,0.0,0.0,0.0,0.0,0.0,0.0,0.0,0.0,0.0,0.0,0.0,0.0,0.0,0.0,-1.5745,-1.5856,-1.5864,0.0,0.0,0.0,0.0,0.0,0.0,0.0,0.0,-1.6627,-1.673,-1.673,-1.673,-1.673,-1.673,-1.673,-1.673,0.0,0.0,0.0,0.0,0.0,0.0,0.0,0.0,-1.7708,-1.8345,-1.9806,-2.0817,-2.1548,-2.2767,-2.3372,-2.3372,-2.374,-2.4189,-2.4562,-2.4909,-2.517,0.0,0.0,0.0,0.0,0.0,0.0,0.0,0.0,0.0,0.0,0.0,0.0,0.0,0.0,0.0,0.0,0.0,0.0,0.0,0.0,0.0,0.0,0.0,-3.3269,0.0,0.0,0.0,0.0,0.0,0.0,0.0,0.0,0.0,-3.6768,-3.634,-3.582,-3.5661,-3.5379,-3.5105,-3.4994,0.0,0.0,0.0,0.0,0.0,0.0,0.0,-3.3767,-3.2367,-3.1792,-3.0852,-2.8961,-2.7657,-2.6782,-2.6521,0.0,0.0,-2.5016,-2.3902,-2.2872,-2.267,-2.1913,-2.1381,-2.1375,-2.1288,-2.1241,0.0,0.0,0.0,0.0,0.0,0.0,0.0,0.0,-1.5721,-1.592,0.0,-1.6222,0.0,0.0,0.0,0.0,-1.6722,-1.6722,0.0,0.0,-1.673,-1.673,-1.673,-1.673,-1.673,-1.673,-1.673,-1.6738,-1.6762,-1.6754,0.0,0.0,0.0,0.0,0.0,0.0,-1.7942,-1.9045,-2.0041,-2.1058,-2.2025,-2.2703,-2.3001,-2.3001,-2.3372,-2.3824,-2.4189,-2.4574,-2.4921,-2.5241,-2.5312,0.0,0.0,0.0,0.0,0.0,0.0,0.0,0.0,0.0,0.0,0.0,0.0,0.0,0.0,0.0,0.0,0.0,0.0,0.0,0.0,-3.3665,0.0,0.0,0.0,0.0,0.0,0.0,0.0,0.0,0.0,0.0,-3.6011,-3.5759,-3.5448,-3.5475,0.0,0.0,0.0,0.0,-3.5379,-3.5379,-3.5661,-3.5537,-3.4671,-3.4104,-3.3328,-3.2226,0.0,0.0,-2.7855,-2.755,-2.7284,-2.6658,-2.6452,-2.6245,-2.5453,-2.4707,-2.3913,-2.3287,-2.2947,-2.2585,-2.2014,-2.1852,-2.17,-1.5457,0.0,0.0,0.0,0.0,-1.6179,-1.6267,-1.6428,-1.6428,-1.6484,-1.6579,-1.6579,0.0,0.0,0.0,0.0,0.0,0.0,-1.673,-1.673,-1.673,-1.673,-1.673,-1.673,-1.673,-1.673,-1.673,-1.6873,-1.7195,-1.7763,-1.7763,-1.7119,0.0,0.0,0.0,0.0,-1.8399,-1.959,-2.0362,-2.1068,-2.1883,-2.2478,-2.2852,-2.3001,-2.3372,-2.3666,-2.3751,-2.4418,-2.4861,-2.4921,-2.5182,0.0,0.0,0.0,0.0,0.0,0.0,0.0,0.0,0.0,0.0,0.0,0.0,0.0,0.0,0.0,0.0,0.0,0.0,0.0,-3.3093,-3.3339,-3.3563,0.0,0.0,0.0,0.0,0.0,0.0,0.0,0.0,0.0,-3.5038,-3.4816,-3.48,0.0,0.0,-3.5088,-3.5287,-3.5165,-3.5024,-3.5008,-3.5118,0.0,-3.3751,-3.3818,-3.3407,-3.1667,-3.0539,-2.9532,-2.8583,-2.7999,-2.7417,-2.6645,-2.6521,-2.6465,-2.6164,-2.5511,-2.4945,-2.4659,-2.4131,-2.3672,-2.3463,-2.339,-2.3316,-1.6304,-1.5982,-1.6162,-1.6319,-1.6476,-1.6476,-1.6558,-1.673,-1.673,-1.673,-1.673,-1.673,-1.673,-1.673,-1.673,0.0,0.0,0.0,-1.673,-1.673,-1.673,-1.681,-1.6937,-1.6953,-1.7016,-1.7143,-1.7143,-1.7254,-1.7469,-1.805,-1.8294,-1.8263,0.0,-1.8071,-1.8776,-1.8562,-1.9263,-2.0726,-2.1204,-2.1767,-2.259,-2.3043,-2.3253,-2.3296,-2.3511,-2.3646,-2.3604,-2.4055,-2.449,-2.479,-2.4992,-2.517,0.0,0.0,0.0,0.0,0.0,0.0,0.0,0.0,0.0,0.0,0.0,-2.9296,-2.9732,0.0,0.0,0.0,-3.0689,-3.1492,-3.2446,-3.2555,0.0,0.0,0.0,0.0,0.0,0.0,0.0,-3.3543,-3.3335,-3.3387,-3.3901,-3.3732,-3.402,-3.5195,-3.5135,-3.5024,-3.5258,0.0,-3.4899,-3.4899,-3.4739,-3.4267,-3.3355,-3.3335,-3.2873,-3.1366,-3.0582,-2.9931,-2.9247,-2.8519,-2.7802,-2.7095,-2.6658,-2.6521,-2.6521,-2.6107,-2.5676,-2.5382,-2.4933,-2.4492,-2.4192,-2.412,-2.412,-1.722,-1.648,-1.648,-1.6621,-1.673,-1.673,-1.673,-1.673,-1.673,-1.673,-1.673,-1.673,-1.6746,-1.6778,-1.6778,0.0,-1.681,-1.6818,-1.6826,-1.681,-1.6818,-1.6992,-1.7318,-1.7326,-1.7477,-1.7763,-1.7763,-1.7787,-1.7811,-1.7898,-1.8513,-1.955,-1.9488,-1.947,-1.9436,-1.9401,-2.0316,-2.2237,-2.2237,-2.2747,-2.3737,-2.3988,-2.401,-2.3809,-2.3787,-2.371,-2.3609,-2.366,-2.4004,-2.4646,-2.479,-2.4921,-2.5253,0.0,0.0,0.0,0.0,0.0,0.0,0.0,0.0,0.0,0.0,0.0,0.0,0.0,0.0,0.0,-3.0011,0.0,-3.1422,-3.148,0.0,0.0,0.0,-3.3355,-3.3834,-3.3355,-3.2949,-3.2933,0.0,0.0,-3.2803,-3.2803,-3.3371,-3.5088,-3.5152,-3.5041,-3.5088,-3.4994,-3.4899,-3.4899,-3.4497,-3.3917,-3.3303,-3.2734,-3.2048,-3.1292,-3.0955,-3.0493,-2.9685,-2.9016,-2.8298,-2.7471,-2.6905,-2.6521,-2.6521,-2.6452,-2.6245,-2.5523,-2.5382,-2.5158,-2.4552,-2.4409,-2.448,-1.7454,-1.7274,-1.7447,-1.713,-1.6738,-1.673,-1.673,-1.673,-1.673,-1.673,-1.673,-1.673,-1.6881,-1.7151,-1.7143,-1.7286,-1.7525,-1.7525,-1.7525,-1.7525,-1.7525,-1.7572,-1.7652,-1.7652,-1.7699,-1.7763,-1.7763,-1.7906,-1.8257,-1.8877,-1.9148,-1.9125,-2.0393,-2.1245,-2.1608,-2.1398,-2.1836,-2.293,-2.293,-2.3254,-2.3817,-2.3977,-2.4173,-2.4312,-2.4312,-2.4071,-2.3732,-2.4013,-2.4071,-2.392,-2.4502,-2.4873,-2.4933,-2.5182,0.0,0.0,0.0,0.0,0.0,0.0,0.0,0.0,0.0,-2.8183,-2.8587,0.0,-2.8651,0.0,-2.9407,-3.024,-3.1349,-3.148,0.0,0.0,-3.2492,-3.2641,-3.2749,-3.2641,-3.2547,-3.2547,-3.2734,-3.3108,-3.3575,-3.3968,-3.4431,-3.5041,-3.4707,-3.4578,-3.5195,-3.5071,-3.4899,-3.4899,-3.4756,-3.4382,-3.3303,-3.2241,-3.1509,-3.1424,-3.1307,-3.0718,-2.9393,-2.9002,-2.8427,-2.7108,-2.6658,-2.6521,-2.6521,-2.6521,-2.6452,-2.6245,-2.6245,-2.6164,-2.5943,-2.5861,-2.5873,-1.7533,-1.7612,-1.7771,-1.7548,-1.7199,-1.7199,-1.7199,-1.7191,-1.7191,-1.7199,-1.7191,-1.7199,-1.731,-1.7493,-1.7501,-1.7596,-1.7763,-1.7763,-1.7763,-1.7763,-1.7763,-1.785,-1.8001,-1.8009,-1.8089,-1.824,-1.8247,-1.8604,-1.9232,-1.9681,-2.0231,-2.0701,-2.1774,-2.264,-2.3268,-2.2774,-2.2908,-2.3784,-2.3784,-2.395,-2.428,-2.4516,-2.4573,-2.4621,-2.4792,-2.4563,-2.4082,-2.4293,-2.4315,-2.4254,-2.4425,-2.468,-2.4815,-2.4956,-2.5052,0.0,0.0,0.0,0.0,0.0,0.0,0.0,0.0,0.0,0.0,0.0,-2.8716,-2.898,-2.9044,-2.9532,-3.0495,-3.0866,-3.1175,-3.1522,-3.2048,-3.2398,-3.2398,-3.2398,-3.2398,-3.2398,-3.2641,-3.2964,-3.3193,-3.3439,-3.3748,-3.4118,-3.4002,-3.4202,-3.4961,-3.5024,-3.4899,-3.4899,-3.4707,-3.4134,-3.3002,-3.2048,-3.1409,-3.1409,-3.1336,-3.097,-3.0086,-2.9393,-2.8698,-2.7749,-2.7053,-2.6602,-2.6533,-2.6521,-2.6521,-2.6521,-2.6521,-2.6521,-2.6521,-2.6521,-2.6521,-1.7746,-1.7906,-1.7914,-1.7906,-1.7906,-1.7906,-1.7858,-1.7763,-1.7763,-1.7763,-1.7763,-1.7763,-1.7795,-1.7834,-1.7834,-1.7866,-1.7906,-1.7906,-1.7906,-1.7906,-1.7906,-1.8065,-1.8367,-1.8457,-1.8616,-1.8819,-1.892,-1.9371,-2.0076,-2.0257,-2.115,-2.2648,-2.3008,-2.3551,-2.4272,-2.3637,-2.3637,-2.4464,-2.455,-2.4625,-2.4861,-2.5115,-2.5082,-2.4945,-2.5169,-2.5043,-2.4607,-2.4574,-2.4689,-2.4893,-2.458,-2.4551,-2.4837,-2.4815,-2.4788,0.0,-2.5052,0.0,0.0,0.0,0.0,0.0,0.0,0.0,0.0,-2.8183,-2.8753,-2.9345,-2.8867,-2.8817,-2.9442,-3.0011,-3.0464,-3.0644,-3.1637,-3.2272,-3.2398,-3.2398,-3.2398,-3.2398,-3.2398,-3.2398,-3.2492,-3.2398,-3.2508,-3.3071,-3.3511,-3.3969,-3.4626,-3.4851,-3.4947,-3.4899,-3.4382,-3.3594,-3.2656,-3.191,-3.1482,-3.1351,-3.1336,-3.1161,-3.0747,-2.9718,-2.8889,-2.8403,-2.743,-2.6714,-2.6521,-2.6533,-2.6521,-2.6533,-2.6533,-2.6521,-2.6521,-2.6521,-2.6521,-1.8537,-1.8629,-1.8621,-1.8629,-1.8629,-1.8629,-1.8295,-1.7771,-1.7763,-1.7763,-1.7763,-1.7763,-1.793,-1.8192,-1.82,-1.8359,-1.8621,-1.8629,-1.8629,-1.8621,-1.8629,-1.8661,-1.8724,-1.9521,-1.9563,-1.8912,-1.9629,-1.972,-1.9096,-1.9903,-2.0512,-2.0881,-2.2394,-2.3183,-2.3367,0.0,0.0,0.0,-2.455,-2.4615,-2.4861,-2.5115,-2.5253,-2.5419,-2.5681,0.0,-2.5065,-2.5043,-2.4949,-2.4656,-2.4748,0.0,0.0,0.0,0.0,0.0,0.0,0.0,0.0,0.0,0.0,0.0,-2.6151,-2.6701,-2.7108,-2.7643,-2.817,-2.8702,-2.8651,-2.8817,-2.9456,-2.9642,-3.0133,-3.119,-3.1537,-3.1879,-3.2327,-3.2398,-3.2398,-3.2398,-3.2398,-3.2547,-3.2819,-3.2841,-3.2964,-3.333,-3.3783,-3.4086,-3.4233,-3.4757,-3.5011,-3.4851,-3.4101,-3.3177,-3.2492,-3.191,-3.1482,-3.1467,-3.1351,-3.0837,-2.978,-2.9219,-2.8403,-2.743,-2.685,-2.6726,-2.6645,-2.6658,-2.6671,-2.6671,-2.6615,-2.6521,-2.6521,-2.6533,-2.6521,-1.9344,-1.9336,-1.9336,-1.9336,0.0,-1.9336,-1.9137,-1.878,-1.8438,-1.8287,-1.8295,-1.8287,-1.8494,-1.8827,-1.8827,-1.9018,-1.9344,-1.9336,-1.9336,-1.9344,-1.9336,-1.9336,-1.9336,-1.9886,-2.0168,-2.0168,-2.0636,-2.1177,-2.1639,-2.2098,-2.2646,-2.309,-2.3999,-2.4454,-2.4464,-2.4927,-2.4985,-2.455,-2.455,-2.454,-2.47,-2.4956,-2.5115,-2.538,-2.5633,0.0,0.0,0.0,0.0,0.0,0.0,0.0,0.0,-2.4902,0.0,-2.5182,-2.5148,-2.5288,-2.5613,-2.5444,-2.5312,-2.5312,-2.5594,-2.607,-2.6892,-2.7229,-2.7643,-2.8131,-2.8183,-2.843,-2.898,-2.9345,-2.9752,-3.0435,-3.0807,-3.1233,-3.1823,-3.1936,-3.2048,-3.2342,-3.2398,-3.26,-3.3106,-3.3137,-3.3293,-3.3739,-3.4187,-3.4548,-3.4775,-3.5234,-3.5429,-3.5005,-3.4037,-3.3123,-3.2499,-3.1925,-3.1482,-3.1467,-3.1467,-3.0955,-2.995,-2.9345,-2.8661,-2.755,-2.7027,-2.6714,-2.6589,-2.6589,-2.6665,-2.693,-2.6936,-2.6992,-2.718,-2.7067,-2.6866,-1.986,-1.986,-1.986,-1.986,-1.986,-1.986,-1.986,-1.9828,-1.9256,0.0,0.0,-1.9018,-1.9177,-1.9455,-1.9463,-1.9606,-1.986,-1.986,-1.986,-1.986,-1.986,-1.9957,-2.0152,-2.0337,-2.0908,-2.177,-2.196,-2.2802,-2.421,-2.4394,-2.4864,-2.5603,-2.5785,-2.5885,-2.5885,-2.5885,-2.5513,-2.4809,-2.4619,-2.4578,-2.4654,-2.4828,-2.5031,-2.52,-2.5475,-2.5644,-2.5895,-2.5895,-2.5895,-2.5884,-2.5524,-2.5262,-2.5164,-2.5101,-2.5239,-2.5615,-2.5617,-2.5745,-2.6164,-2.5829,-2.5588,-2.56,-2.56,-2.5929,-2.6794,-2.685,-2.7108,-2.7577,-2.7643,-2.7855,-2.8392,-2.8917,-2.9254,-2.9504,-3.0011,-3.0613,-3.1338,-3.1586,-3.1965,-3.2425,-3.2773,-3.2967,-3.3449,-3.3426,-3.3508,-3.404,-3.4423,-3.494,-3.549,-3.5805,-3.5742,-3.5195,-3.4266,-3.3383,-3.271,-3.2276,-3.1884,-3.193,-3.19,-3.1471,-3.0592,-2.9888,-2.9091,-2.7947,-2.7294,-2.6934,-2.6754,-2.688,-2.6974,-2.7415,-2.7431,-2.7557,-2.7934,-2.7833,-2.757,-1.9868,-1.986,-1.986,-1.986,-1.986,-1.986,-1.986,-1.986,-1.9757,-1.9717,-1.9717,-1.9717,-1.9741,-1.9797,-1.9797,-1.9828,-1.986,-1.986,-1.986,-1.986,-1.986,-2.0442,-2.1292,-2.2123,-2.2595,-2.2802,-2.3653,-2.3737,-2.3364,-2.4127,-2.4579,-2.4772,-2.5513,-2.5896,-2.5885,-2.5885,-2.5823,-2.5689,-2.5326,-2.514,-2.513,-2.4995,-2.5031,-2.5189,-2.5475,-2.5728,-2.5895,-2.5906,-2.5895,-2.5895,-2.5841,-2.5611,-2.5196,-2.519,-2.536,-2.5673,-2.5712,-2.5972,-2.674,-2.6743,-2.6695,-2.6707,-2.6707,-2.6615,-2.632,-2.6289,-2.6564,-2.704,-2.7172,-2.731,-2.7842,-2.8079,-2.8536,-2.9373,-2.9594,-3.0102,-3.125,-3.196,-3.2512,-3.3111,-3.3859,-3.4079,-3.4069,-3.4012,-3.3879,-3.394,-3.4467,-3.4849,-3.5849,-3.6101,-3.5846,-3.5347,-3.4659,-3.3949,-3.3381,-3.3321,-3.311,-3.3215,-3.3034,-3.2276,-3.0616,-3.0062,-2.9288,-2.7695,-2.7571,-2.7595,-2.7564,-2.7926,-2.8024,-2.8201,-2.8069,-2.8132,-2.8381,-2.851,-2.8511,-2.0432,-2.044,-2.044,-2.044,-2.044,-2.0432,-2.044,-2.044,-2.044,-2.0218,-1.9876,-1.986,-1.9971,-2.0146,-2.0154,-2.0257,-2.044,-2.1031,-2.1023,-2.054,-2.1601,-2.2085,-2.2102,-2.3062,-2.3827,-2.4421,-2.4908,-2.5192,-2.5372,-2.5862,-2.606,-2.605,-2.6434,-2.662,-2.663,-2.663,-2.663,-2.661,-2.5937,-2.5585,-2.5585,-2.5228,-2.5162,-2.54,-2.5264,-2.5391,-2.5738,-2.5728,-2.5812,-2.5895,-2.5895,-2.5797,-2.559,-2.5568,-2.5705,-2.6108,-2.6086,-2.634,-2.6961,-2.694,-2.6923,-2.6923,-2.6923,-2.6817,-2.6602,-2.6554,-2.6771,-2.7331,-2.7389,-2.7755,-2.8602,-2.8726,-2.9053,-2.9921,-2.9986,-3.0345,-3.1154,-3.1596,-3.2217,-3.3181,-3.3683,-3.4166,-3.4833,-3.4698,-3.4698,-3.491,-3.5278,-3.5675,-3.6271,-3.6275,-3.6016,-3.5471,-3.4802,-3.4167,-3.3651,-3.3499,-3.3499,-3.3499,-3.3114,-3.2275,-3.0914,-3.0358,-2.9524,-2.8391,-2.8139,-2.8112,-2.8137,-2.8198,-2.8344,-2.861,-2.8635,-2.8711,-2.9026,-2.9328,-2.9277,-2.0925,-2.0925,-2.0925,-2.0925,-2.0925,-2.0925,-2.0925,-2.0925,-2.0917,-2.0607,-2.0146,-2.0098,-2.0257,-2.0504,-2.0512,-2.0662,-2.0995,-2.1725,-2.1725,-2.1121,-2.2601,-2.3111,-2.2719,-2.3601,-2.4698,-2.5586,-2.5887,-2.6476,-2.7262,-2.7272,-2.7272,-2.7262,-2.7272,-2.7272,-2.7272,-2.7272,-2.7272,-2.722,-2.6548,-2.6144,-2.603,-2.5606,-2.5425,-2.5543,-2.5304,-2.5232,-2.557,-2.557,-2.5738,-2.5895,-2.5895,-2.5895,-2.5895,-2.5895,-2.6052,-2.64,-2.6495,-2.66,-2.7053,-2.7127,-2.7143,-2.7143,-2.722,-2.7296,-2.7284,-2.7296,-2.7315,-2.7483,-2.7471,-2.7974,-2.897,-2.9267,-2.9588,-3.0254,-3.0405,-3.061,-3.1182,-3.1411,-3.1985,-3.3108,-3.3499,-3.4113,-3.5032,-3.5184,-3.5241,-3.5713,-3.607,-3.6196,-3.6196,-3.6196,-3.5936,-3.5522,-3.4982,-3.461,-3.4038,-3.3993,-3.4023,-3.3948,-3.3397,-3.2616,-3.1682,-3.0788,-2.9877,-2.9035,-2.8707,-2.8626,-2.8566,-2.8583,-2.8687,-2.9051,-2.9126,-2.9176,-2.9269,-2.9381,-2.9443,-2.0925,-2.0925,-2.0925,-2.0925,-2.0925,-2.0925,-2.0925,-2.0925,-2.0925,-2.0901,-2.079,-2.0821,-2.0821,-2.0869,-2.0861,-2.0885,-2.0925,-2.1019,-2.1019,-2.1019,-2.1121,-2.1623,-2.2619,-2.3701,-2.4688,-2.579,-2.6678,-2.7167,-2.7262,-2.7272,-2.7272,-2.7272,-2.7272,-2.7272,-2.7272,-2.7272,-2.7272,-2.7272,-2.7179,-2.6931,-2.6506,-2.6051,-2.5805,-2.5574,-2.5532,-2.5561,-2.5624,-2.557,-2.5738,-2.5895,-2.5895,-2.5895,-2.5895,-2.5895,-2.6052,-2.6445,-2.6472,-2.6707,-2.7186,-2.7591,-2.7773,-2.782,-2.808,-2.8306,-2.8318,-2.833,-2.7945,-2.7324,-2.7046,-2.7594,-2.852,-2.8703,-2.9282,-3.0346,-3.0458,-3.0608,-3.1293,-3.1833,-3.2495,-3.3141,-3.3725,-3.442,-3.4931,-3.5091,-3.5295,-3.5657,-3.5718,-3.5668,-3.5668,-3.5668,-3.5653,-3.5499,-3.5385,-3.534,-3.519,-3.5295,-3.513,-3.5126,-3.4604,-3.3552,-3.2438,-3.1502,-3.065,-2.9489,-2.9263,-2.9346,-2.925,-2.9366,-2.9476,-2.9285,-2.9359,-2.9381,-2.887,-2.8621,-2.8621,-2.0925,-2.0925,-2.0925,-2.0925,-2.0925,-2.0925,-2.0925,-2.0925,-2.0925,-2.0925,-2.0925,-2.0925,-2.0925,-2.0925,-2.0925,-2.0925,-2.0917,-2.1522,-2.1818,-2.2021,-2.3111,-2.3998,-2.451,-2.5479,-2.6274,-2.6668,-2.7061,-2.7272,-2.7272,-2.7272,-2.7272,-2.7272,-2.7272,-2.7272,-2.7272,-2.7272,-2.7272,-2.7272,-2.7272,-2.7169,-2.6962,-2.6527,-2.6287,-2.6201,-2.603,-2.5851,-2.5689,-2.5905,-2.5946,-2.576,-2.5812,-2.5895,-2.5895,-2.5895,-2.5979,-2.6135,-2.6373,-2.6693,-2.7174,-2.736,-2.7615,-2.7881,-2.8042,-2.8283,-2.851,-2.851,-2.8294,-2.7969,-2.7861,-2.8159,-2.895,-2.9051,-2.9563,-3.0606,-3.0908,-3.1087,-3.1762,-3.2075,-3.2526,-3.3129,-3.3492,-3.3905,-3.4499,-3.4861,-3.5154,-3.5459,-3.5554,-3.5489,-3.5489,-3.5489,-3.5489,-3.5489,-3.5489,-3.5489,-3.5504,-3.5489,-3.5489,-3.5279,-3.4423,-3.3322,-3.2765,-3.1721,-3.0724,-2.9912,-2.9905,-2.9896,-2.9808,-2.922,-2.9052,-2.8961,-2.8462,-2.8051,-2.7718,-2.7637,-2.7557,-2.0925,-2.0925,-2.0925,-2.0925,-2.0925,-2.0925,-2.0925,-2.0925,-2.0925,-2.0925,-2.0917,-2.1224,-2.1326,-2.1318,-2.1019,-2.1027,-2.142,-2.2123,-2.2719,-2.3111,-2.459,-2.5197,-2.5392,-2.638,-2.686,-2.687,-2.7156,-2.7272,-2.7272,-2.7272,-2.7272,-2.7272,-2.7272,-2.7272,-2.7272,-2.7272,-2.7272,-2.7272,-2.7272,-2.7272,-2.722,-2.6931,-2.6703,-2.6651,-2.6532,-2.6235,-2.5763,-2.6075,-2.612,-2.5775,-2.5899,-2.5895,-2.5895,-2.5895,-2.5895,-2.5895,-2.6218,-2.6456,-2.6869,-2.694,-2.7196,-2.7464,-2.7626,-2.7857,-2.8099,-2.8271,-2.8351,-2.8327,-2.8431,-2.87,-2.9263,-2.9419,-2.9871,-3.0784,-3.0934,-3.1233,-3.1763,-3.1936,-3.22,-3.2832,-3.2889,-3.3157,-3.3837,-3.438,-3.4942,-3.5198,-3.5359,-3.5489,-3.5489,-3.5489,-3.5489,-3.5489,-3.5489,-3.5489,-3.5504,-3.5213,-3.5198,-3.4854,-3.3919,-3.2847,-3.2621,-3.1663,-3.0898,-3.0374,-3.0443,-3.0101,-2.9564,-2.8912,-2.8223,-2.8051,-2.7557,-2.6987,-2.6812,-2.673,-2.64,-2.0925,-2.0925,-2.0925,-2.0925,-2.0925,-2.0925,-2.0925,-2.0925,-2.0925,-2.0925,-2.1027,-2.192,-2.2426,-2.2333,-2.142,-2.1522,-2.2325,-2.2518,-2.3111,-2.3998,-2.4196,-2.4196,-2.4295,-2.5285,-2.579,-2.6091,-2.687,-2.7272,-2.7272,-2.7272,-2.7272,-2.7272,-2.7272,-2.7272,-2.7272,-2.7272,-2.7272,-2.7272,-2.7272,-2.7272,-2.7262,-2.7231,-2.7003,-2.6734,-2.6846,-2.6708,-2.6235,-2.6256,-2.6271,-2.613,-2.5988,-2.5917,-2.5895,-2.5895,-2.5895,-2.5895,-2.5895,-2.5979,-2.6063,-2.6385,-2.661,-2.6693,-2.694,-2.7267,-2.7348,-2.7615,-2.7869,-2.7962,-2.8271,-2.8645,-2.9184,-2.9263,-2.9561,-3.0254,-3.0317,-3.0633,-3.1158,-3.132,-3.1556,-3.2082,-3.2228,-3.2503,-3.2932,-3.3973,-3.438,-3.4677,-3.5052,-3.5359,-3.5294,-3.5359,-3.5424,-3.5424,-3.5424,-3.5504,-3.5424,-3.4971,-3.4528,-3.4109,-3.3353,-3.2232,-3.1955,-3.1529,-3.1123,-3.0609,-3.0292,-2.9806,-2.9106,-2.8462,-2.7799,-2.7395,-2.6987,-2.6494,-2.5913,-2.583,-2.5579,-2.0925,-2.0925,-2.0925,-2.0925,-2.0925,-2.0925,-2.0925,-2.0925,-2.0925,-2.0925,-2.1121,-2.203,-2.2526,-2.2535,-2.2811,-2.3203,-2.3502,-2.3502,-2.4097,-2.5089,-2.5089,-2.5489,-2.6167,-2.6572,-2.6668,-2.6764,-2.7061,-2.7272,-2.7272,-2.7272,-2.7272,-2.7272,-2.7272,-2.7272,-2.7272,-2.7272,-2.7272,-2.7272,-2.7272,-2.7272,-2.7272,-2.7272,-2.7169,-2.7118,-2.7296,-2.7087,-2.6514,-2.6891,-2.6807,-2.6032,-2.6098,-2.6053,-2.5939,-2.5895,-2.5895,-2.5895,-2.5895,-2.5895,-2.5895,-2.6063,-2.6218,-2.6445,-2.6257,-2.6505,-2.701,-2.7021,-2.7115,-2.7708,-2.7696,-2.7926,-2.8339,-2.8657,-2.904,-2.9574,-2.9716,-2.9947,-3.0482,-3.0872,-3.1198,-3.1434,-3.1669,-3.2009,-3.2475,-3.296,-3.3297,-3.3644,-3.3919,-3.407,-3.4153,-3.4423,-3.4758,-3.4839,-3.5133,-3.5294,-3.4773,-3.4528,-3.4163,-3.3547,-3.2791,-3.2218,-3.1809,-3.1334,-3.0773,-3.0381,-3.0062,-2.925,-2.8462,-2.7313,-2.6741,-2.6008,-2.5684,-2.5673,-2.502,-2.5179,-2.4935,-2.1258,-2.1242,-2.1139,-2.1099,-2.1084,-2.0964,-2.0925,-2.0925,-2.0925,-2.0925,-2.1121,-2.2021,-2.2526,-2.2719,-2.3998,-2.459,-2.459,-2.459,-2.5187,-2.6177,-2.6187,-2.6572,-2.7167,-2.7272,-2.7272,-2.7262,-2.7272,-2.7272,-2.7272,-2.7272,-2.7272,-2.7272,-2.7272,-2.7272,-2.7272,-2.7272,-2.7272,-2.7272,-2.7272,-2.7272,-2.7272,-2.7272,-2.7272,-2.7357,-2.7441,-2.7306,-2.6796,-2.731,-2.7233,-2.6345,-2.6258,-2.6141,-2.5972,-2.5895,-2.5895,-2.5895,-2.5895,-2.5895,-2.5895,-2.5895,-2.6063,-2.6302,-2.5935,-2.6019,-2.6704,-2.6456,-2.6704,-2.7208,-2.736,-2.736,-2.7615,-2.7938,-2.8327,-2.8803,-2.904,-2.9263,-2.9716,-3.0037,-3.0444,-3.0823,-3.1286,-3.173,-3.1982,-3.2273,-3.2533,-3.2804,-3.3003,-3.3227,-3.3297,-3.3561,-3.4109,-3.4245,-3.4476,-3.4423,-3.3988,-3.363,-3.3339,-3.2777,-3.2304,-3.1882,-3.1529,-3.1048,-3.0533,-3.0152,-2.9431,-2.8621,-2.7557,-2.6329,-2.5432,-2.4711,-2.4711,-2.4946,-2.4615,-2.454,-2.454,-2.1926,-2.1862,-2.1592,-2.1449,-2.1401,-2.1107,-2.0941,-2.0964,-2.0933,-2.0925,-2.1019,-2.2021,-2.2526,-2.2929,-2.4501,-2.5489,-2.5392,-2.5489,-2.6081,-2.7061,-2.7167,-2.7167,-2.7272,-2.7272,-2.7272,-2.7272,-2.7272,-2.7272,-2.7272,-2.7272,-2.7272,-2.7272,-2.7272,-2.7272,-2.7272,-2.7272,-2.7272,-2.7272,-2.7272,-2.7272,-2.7272,-2.7272,-2.7272,-2.7272,-2.7357,-2.7347,-2.7315,-2.7304,-2.7236,-2.6873,-2.6445,-2.6174,-2.5964,-2.5917,-2.5906,-2.5895,-2.5895,-2.5906,-2.5895,-2.5895,-2.5895,-2.5979,-2.5895,-2.5812,-2.6063,-2.6207,-2.6362,-2.661,-2.694,-2.7185,-2.7185,-2.7267,-2.7441,-2.7881,-2.8259,-2.8566,-2.8712,-2.8791,-2.9184,-3.0177,-3.0885,-3.1447,-3.1495,-3.185,-3.2187,-3.216,-3.2506,-3.2875,-3.2875,-3.3003,-3.3478,-3.3822,-3.3837,-3.3644,-3.3143,-3.2648,-3.2362,-3.2015,-3.1616,-3.1198,-3.1123,-3.0773,-3.0381,-2.9908,-2.8609,-2.7718,-2.6412,-2.5348,-2.5031,-2.455,-2.455,-2.455,-2.455,-2.455,-2.455,-2.1957,-2.1949,-2.1846,-2.1798,-2.1751,-2.1425,-2.1282,-2.1258,-2.1036,-2.0925,-2.1121,-2.203,-2.2526,-2.282,-2.4007,-2.459,-2.4688,-2.5294,-2.6284,-2.7167,-2.7262,-2.7272,-2.7272,-2.7272,-2.7272,-2.7272,-2.7272,-2.7272,-2.7272,-2.7272,-2.7272,-2.7272,-2.7272,-2.7272,-2.7272,-2.7272,-2.7272,-2.7272,-2.7272,-2.7272,-2.7272,-2.7272,-2.7272,-2.7272,-2.7272,-2.7272,-2.7357,-2.74,-2.7357,-2.7165,-2.6858,-2.653,-2.6001,-2.5732,-2.5738,-2.5906,-2.5738,-2.5738,-2.5906,-2.5895,-2.5906,-2.5812,-2.5464,-2.5475,-2.5728,-2.5633,-2.5779,-2.6279,-2.6373,-2.6385,-2.661,-2.6682,-2.694,-2.736,-2.7522,-2.7684,-2.7753,-2.7983,-2.8688,-2.9626,-3.0101,-3.0495,-3.0973,-3.1421,-3.1408,-3.1394,-3.1616,-3.175,-3.1823,-3.2232,-3.242,-3.2706,-3.272,-3.2946,-3.2577,-3.2232,-3.1882,-3.1676,-3.1259,-3.0986,-3.0911,-3.0609,-3.0292,-2.925,-2.7947,-2.6741,-2.5432,-2.4786,-2.4625,-2.455,-2.455,-2.455,-2.455,-2.4454,-2.4282,-2.2347,-2.2339,-2.2204,-2.2156,-2.2116,-2.1783,-2.156,-2.1433,-2.1219,-2.1052,-2.1043,-2.1623,-2.192,-2.2123,-2.3011,-2.3502,-2.371,-2.4992,-2.6091,-2.6764,-2.7156,-2.7262,-2.7272,-2.7272,-2.7272,-2.7272,-2.7272,-2.7272,-2.7272,-2.7272,-2.7272,-2.7272,-2.7272,-2.7272,-2.7272,-2.7272,-2.7272,-2.7272,-2.7272,-2.7272,-2.7272,-2.7272,-2.7272,-2.7272,-2.7272,-2.7272,-2.7357,-2.7441,-2.7411,-2.7325,-2.7054,-2.6588,-2.6009,-2.5798,-2.5743,-2.5665,-2.5644,-2.5728,-2.5633,-2.5738,-2.5822,-2.5728,-2.538,-2.5391,-2.5728,-2.5464,-2.5622,-2.6041,-2.6052,-2.5968,-2.6218,-2.629,-2.6373,-2.6704,-2.7021,-2.7103,-2.7092,-2.7336,-2.781,-2.8597,-2.9003,-2.9626,-3.0266,-3.0508,-3.0659,-3.0898,-3.0986,-3.0986,-3.1123,-3.1394,-3.1663,-3.1869,-3.2015,-3.216,-3.216,-3.1882,-3.1542,-3.1334,-3.1061,-3.0986,-3.0911,-3.0596,-3.0203,-2.8505,-2.7058,-2.6163,-2.4935,-2.47,-2.455,-2.455,-2.455,-2.455,-2.4454,-2.4003,-2.382,-2.3006,-2.2974,-2.2649,-2.2521,-2.2466,-2.214,-2.1838,-2.1568,-2.1538,-2.1354,-2.102,-2.1248,-2.1121,-2.1224,-2.2215,-2.2627,-2.292,-2.4805,-2.5693,-2.6081,-2.6774,-2.7272,-2.7272,-2.7272,-2.7272,-2.7272,-2.7272,-2.7272,-2.7272,-2.7272,-2.7272,-2.7272,-2.7272,-2.7272,-2.7272,-2.7272,-2.7272,-2.7272,-2.7272,-2.7272,-2.7272,-2.7272,-2.7272,-2.7272,-2.7272,-2.7272,-2.7357,-2.7357,-2.7357,-2.7284,-2.7087,-2.6662,-2.6112,-2.613,-2.583,-2.5402,-2.5665,-2.5559,-2.538,-2.5475,-2.5559,-2.5559,-2.5559,-2.5644,-2.5728,-2.5728,-2.5717,-2.5895,-2.5812,-2.5812,-2.5895,-2.5895,-2.5979,-2.6063,-2.6539,-2.6775,-2.6599,-2.6846,-2.7174,-2.7418,-2.7959,-2.8664,-2.9537,-2.9704,-3.0177,-3.0583,-3.0898,-3.0986,-3.0986,-3.1198,-3.1408,-3.1468,-3.1542,-3.1603,-3.1676,-3.1542,-3.1198,-3.1048,-3.0911,-3.0986,-3.0672,-3.019,-2.9549,-2.7855,-2.6329,-2.5432,-2.4861,-2.4625,-2.455,-2.455,-2.455,-2.455,-2.4186,-2.3637,-2.3202,-2.3014,-2.3006,-2.2911,-2.2879,-2.2823,-2.2498,-2.2299,-2.2241,-2.246,-2.2116,-2.1562,-2.1832,-2.1623,-2.1121,-2.2021,-2.2526,-2.312,-2.4707,-2.5693,-2.5887,-2.6774,-2.7272,-2.7272,-2.7272,-2.7272,-2.7272,-2.7272,-2.7272,-2.7272,-2.7272,-2.7272,-2.7272,-2.7262,-2.7262,-2.7272,-2.7262,-2.7272,-2.7272,-2.7262,-2.7262,-2.7262,-2.7262,-2.7272,-2.7272,-2.7272,-2.7272,-2.7272,-2.7272,-2.7272,-2.7326,-2.7201,-2.7059,-2.6599,-2.6108,-2.5773,-2.5689,-2.5381,-2.52,-2.52,-2.5295,-2.5285,-2.5285,-2.5285,-2.5369,-2.538,-2.5369,-2.5464,-2.5559,-2.5549,-2.5549,-2.5812,-2.5728,-2.5728,-2.5895,-2.6124,-2.6218,-2.6135,-2.6135,-2.6456,-2.7103,-2.7418,-2.7891,-2.8585,-2.9225,-2.9704,-3.0101,-3.0508,-3.0986,-3.0986,-3.0986,-3.1198,-3.1123,-3.1198,-3.1185,-3.1185,-3.1123,-3.0986,-3.0836,-3.0836,-3.0898,-3.0343,-2.9459,-2.8505,-2.7209,-2.5841,-2.4786,-2.47,-2.455,-2.455,-2.455,-2.455,-2.4454,-2.3724,-2.3183,-2.2755,-2.3014,-2.3014,-2.3014,-2.3014,-2.299,-2.2791,-2.2633,-2.2606,-2.3059,-2.2795,-2.2316,-2.2291,-2.2417,-2.2308,-2.2426,-2.282,-2.3411,-2.4903,-2.5693,-2.5887,-2.6774,-2.7262,-2.7272,-2.7272,-2.7272,-2.7272,-2.7272,-2.7272,-2.7272,-2.7272,-2.7272,-2.7167,-2.687,-2.6668,-2.6572,-2.6177,-2.5964,-2.5974,-2.637,-2.6668,-2.6668,-2.7061,-2.7262,-2.7272,-2.7272,-2.7272,-2.7272,-2.7272,-2.7272,-2.7305,-2.7296,-2.7159,-2.6804,-2.6166,-2.5774,-2.5672,-2.5209,-2.5031,-2.4946,-2.5031,-2.5115,-2.5105,-2.5031,-2.5115,-2.52,-2.52,-2.5285,-2.538,-2.5285,-2.5369,-2.5454,-2.538,-2.5211,-2.5285,-2.5369,-2.5633,-2.5822,-2.5895,-2.6135,-2.6456,-2.6704,-2.694,-2.7799,-2.8359,-2.9003,-2.9561,-3.0101,-3.0583,-3.0898,-3.0911,-3.0986,-3.0986,-3.0986,-3.1048,-3.1048,-3.1061,-3.0911,-3.0773,-3.0609,-3.0748,-2.9781,-2.8821,-2.7844,-2.6719,-2.5348,-2.455,-2.455,-2.455,-2.455,-2.455,-2.455,-2.4368,-2.3724,-2.2911,-2.2482,-2.3014,-2.3014,-2.3014,-2.3014,-2.3014,-2.3006,-2.2791,-2.2678,-2.3243,-2.3295,-2.2946,-2.2773,-2.3211,-2.4088,-2.3411,-2.3411,-2.4285,-2.5489,-2.5887,-2.6274,-2.687,-2.7272,-2.7272,-2.7272,-2.7272,-2.7272,-2.7272,-2.7272,-2.7272,-2.7272,-2.7167,-2.686,-2.6081,-2.5693,-2.5489,-2.4698,-2.4187,-2.4492,-2.5187,-2.5684,-2.5984,-2.6572,-2.6965,-2.7272,-2.7272,-2.7272,-2.7272,-2.7272,-2.7272,-2.7272,-2.7272,-2.7128,-2.6734,-2.6389,-2.5951,-2.5435,-2.5291,-2.4986,-2.4636,-2.4786,-2.4861,-2.4861,-2.4861,-2.4946,-2.5031,-2.5031,-2.5115,-2.52,-2.5115,-2.5115,-2.5105,-2.485,-2.4765,-2.485,-2.4946,-2.5211,-2.5644,-2.5895,-2.5895,-2.5895,-2.5906,-2.6302,-2.6775,-2.7255,-2.7742,-2.8676,-2.9303,-2.9871,-3.0266,-3.0508,-3.0748,-3.0986,-3.0986,-3.0986,-3.0986,-3.0986,-3.0911,-3.0773,-3.0457,-3.0203,-2.9069,-2.8096,-2.7197,-2.6235,-2.5189,-2.4625,-2.455,-2.455,-2.455,-2.455,-2.455,-2.4454,-2.4186,-2.3105,-2.2394,-2.3014,-2.3014,-2.3014,-2.3014,-2.3014,-2.3006,-2.2815,-2.2568,-2.3277,-2.3391,-2.3135,-2.3471,-2.3908,-2.4196,-2.459,-2.5187,-2.5489,-2.638,-2.6955,-2.6965,-2.7156,-2.7262,-2.7357,-2.7357,-2.7357,-2.7357,-2.7272,-2.7272,-2.7272,-2.7167,-2.686,-2.6081,-2.5684,-2.5294,-2.4492,-2.4088,-2.4088,-2.4187,-2.4295,-2.4796,-2.5489,-2.5887,-2.6572,-2.7167,-2.7272,-2.7272,-2.7272,-2.7272,-2.7272,-2.7272,-2.7262,-2.7189,-2.7097,-2.6723,-2.6266,-2.5799,-2.5384,-2.4999,-2.4633,-2.454,-2.4615,-2.4625,-2.4615,-2.4615,-2.4625,-2.4711,-2.4786,-2.4861,-2.4786,-2.4786,-2.4956,-2.5031,-2.4935,-2.485,-2.4935,-2.5105,-2.5369,-2.5717,-2.5895,-2.5906,-2.5895,-2.5979,-2.6229,-2.6869,-2.7336,-2.781,-2.8359,-2.9069,-2.9549,-2.9947,-3.019,-3.0508,-3.0823,-3.0823,-3.0672,-3.0672,-3.0685,-3.0546,-3.0305,-2.9651,-2.8518,-2.7706,-2.6964,-2.608,-2.5274,-2.4871,-2.455,-2.455,-2.455,-2.455,-2.4454,-2.4186,-2.3734,-2.2921,-2.2031,-2.3014,-2.3014,-2.3014,-2.3014,-2.299,-2.2839,-2.2664,-2.2622,-2.3076,-2.315,-2.3211,-2.3763,-2.4393,-2.4884,-2.5489,-2.5887,-2.6476,-2.6965,-2.7262,-2.7262,-2.7262,-2.7357,-2.7452,-2.7441,-2.7441,-2.7357,-2.7272,-2.7272,-2.7262,-2.6774,-2.6187,-2.5586,-2.4805,-2.3908,-2.3311,-2.2902,-2.2509,-2.271,-2.3111,-2.371,-2.4106,-2.5294,-2.6187,-2.7071,-2.7272,-2.7272,-2.7272,-2.7272,-2.7272,-2.7272,-2.7272,-2.7272,-2.7189,-2.6827,-2.6372,-2.5906,-2.5471,-2.5026,-2.4674,-2.455,-2.455,-2.455,-2.455,-2.455,-2.455,-2.455,-2.454,-2.4615,-2.4615,-2.4625,-2.4711,-2.4529,-2.4605,-2.4519,-2.468,-2.4765,-2.4861,-2.5295,-2.5728,-2.5822,-2.5812,-2.5895,-2.6146,-2.6456,-2.6857,-2.7255,-2.7487,-2.8119,-2.8924,-2.9316,-2.9394,-2.9716,-3.0343,-3.0508,-3.0279,-3.0292,-3.0457,-3.0318,-3.0088,-2.9184,-2.8039,-2.7383,-2.6823,-2.5852,-2.4861,-2.4786,-2.455,-2.455,-2.4464,-2.4454,-2.4358,-2.3907,-2.3367,-2.257,-2.1587,-2.3014,-2.3127,-2.3127,-2.3095,-2.3111,-2.2838,-2.2739,-2.273,-2.2938,-2.3246,-2.3533,-2.4126,-2.4992,-2.579,-2.5994,-2.6572,-2.7061,-2.7357,-2.7357,-2.7357,-2.7357,-2.7452,-2.7547,-2.7631,-2.7536,-2.7357,-2.7357,-2.7357,-2.7071,-2.6284,-2.5693,-2.5197,-2.3619,-2.2728,-2.2123,-2.1522,-2.1224,-2.1318,-2.192,-2.271,-2.312,-2.4501,-2.5479,-2.6678,-2.7262,-2.7272,-2.7272,-2.7272,-2.7272,-2.7272,-2.7272,-2.7272,-2.7169,-2.691,-2.6465,-2.603,-2.572,-2.5378,-2.4995,-2.4767,-2.4695,-2.4643,-2.456,-2.455,-2.455,-2.455,-2.454,-2.454,-2.455,-2.455,-2.4454,-2.4358,-2.41,-2.4013,-2.4176,-2.4251,-2.4433,-2.5041,-2.538,-2.5559,-2.5559,-2.5644,-2.5728,-2.5884,-2.629,-2.6704,-2.6857,-2.7162,-2.7959,-2.8438,-2.8505,-2.8912,-2.9549,-3.0343,-3.0203,-3.0062,-3.0152,-2.9908,-2.9767,-2.87,-2.7626,-2.6976,-2.6246,-2.5348,-2.4615,-2.454,-2.455,-2.455,-2.4454,-2.4454,-2.4176,-2.3637,-2.3018,-2.2306,-2.1141,-2.3352,-2.3801,-2.3809,-2.385,-2.3913,-2.3485,-2.331,-2.3505,-2.3117,-2.3886,-2.5026,-2.5333,-2.5877,-2.6668,-2.7061,-2.7156,-2.7357,-2.7536,-2.7547,-2.7547,-2.7536,-2.7631,-2.7726,-2.7809,-2.782,-2.7631,-2.7536,-2.7452,-2.7061,-2.6274,-2.5197,-2.4295,-2.3011,-2.2123,-2.1428,-2.1027,-2.0917,-2.1019,-2.1326,-2.2013,-2.3111,-2.3511,-2.4402,-2.5984,-2.686,-2.7262,-2.7272,-2.7272,-2.7272,-2.7272,-2.7272,-2.7272,-2.7241,-2.7148,-2.6858,-2.6486,-2.6279,-2.5968,-2.5564,-2.5275,-2.5161,-2.5037,-2.485,-2.4633,-2.4602,-2.4612,-2.4716,-2.4654,-2.4623,-2.4485,-2.455,-2.4389,-2.4368,-2.4368,-2.4368,-2.4454,-2.4529,-2.4786,-2.5115,-2.5211,-2.5295,-2.538,-2.5464,-2.5464,-2.5706,-2.5946,-2.603,-2.6257,-2.6812,-2.7221,-2.729,-2.7936,-2.8743,-2.9549,-3.0203,-3.0062,-2.9908,-2.9496,-2.9106,-2.8223,-2.7232,-2.6483,-2.5663,-2.4935,-2.454,-2.454,-2.455,-2.455,-2.455,-2.4454,-2.4003,-2.3367,-2.2658,-2.1943,-2.0872,-2.346,-2.3787,-2.3796,-2.3795,-2.3716,-2.3095,-2.2934,-2.2997,-2.2877,-2.3186,-2.4161,-2.5197,-2.6071,-2.6658,-2.7251,-2.7547,-2.7631,-2.7715,-2.782,-2.782,-2.7809,-2.7914,-2.7914,-2.7998,-2.7904,-2.7809,-2.7726,-2.7547,-2.7251,-2.5674,-2.4688,-2.389,-2.2509,-2.142,-2.1019,-2.0925,-2.1019,-2.1121,-2.113,-2.1522,-2.2911,-2.2911,-2.4304,-2.5489,-2.6668,-2.7262,-2.7272,-2.7272,-2.7272,-2.7272,-2.7272,-2.7272,-2.7272,-2.722,-2.7055,-2.6693,-2.6589,-2.6382,-2.5989,-2.5658,-2.5575,-2.5554,-2.5326,-2.5254,-2.5233,-2.5264,-2.5192,-2.5171,-2.4964,-2.4892,-2.4912,-2.4619,-2.4475,-2.455,-2.456,-2.456,-2.454,-2.4625,-2.4786,-2.4956,-2.5126,-2.5211,-2.5285,-2.5285,-2.52,-2.52,-2.52,-2.5432,-2.5841,-2.608,-2.6318,-2.6801,-2.7614,-2.8347,-2.9069,-2.925,-2.9184,-2.8858,-2.8359,-2.7476,-2.6823,-2.6069,-2.5421,-2.4786,-2.4625,-2.455,-2.455,-2.455,-2.455,-2.4464,-2.41,-2.3637,-2.257,-2.1587,-2.0512,-2.3682,-2.3788,-2.378,-2.3851,-2.3625,-2.2837,-2.2756,-2.2937,-2.2672,-2.3038,-2.371,-2.5089,-2.6071,-2.6542,-2.7326,-2.7925,-2.7998,-2.7998,-2.8102,-2.8102,-2.7998,-2.8102,-2.8196,-2.8196,-2.7998,-2.7809,-2.782,-2.7536,-2.6754,-2.5178,-2.4187,-2.3302,-2.1717,-2.0925,-2.0925,-2.0925,-2.1224,-2.1224,-2.1232,-2.1121,-2.1818,-2.3203,-2.4482,-2.5392,-2.637,-2.7071,-2.7262,-2.7272,-2.7272,-2.7272,-2.7272,-2.7272,-2.7272,-2.7272,-2.7096,-2.6786,-2.6713,-2.6496,-2.6289,-2.6051,-2.602,-2.602,-2.5916,-2.5875,-2.5834,-2.574,-2.5802,-2.5813,-2.5595,-2.5357,-2.5306,-2.5047,-2.484,-2.4705,-2.4716,-2.4567,-2.4581,-2.454,-2.454,-2.4711,-2.4956,-2.4956,-2.4956,-2.4946,-2.4871,-2.4871,-2.4871,-2.4871,-2.5274,-2.5432,-2.5673,-2.5924,-2.6412,-2.7058,-2.7626,-2.8119,-2.8039,-2.7879,-2.7383,-2.6648,-2.6152,-2.5663,-2.5105,-2.4625,-2.454,-2.455,-2.455,-2.455,-2.455,-2.4454,-2.4358,-2.382,-2.2833,-2.1489,-2.015,-2.3885,-2.4403,-2.4395,-2.453,-2.4449,-2.3401,-2.3886,-2.481,-2.3247,-2.4196,-2.5984,-2.6157,-2.6456,-2.7326,-2.8008,-2.8196,-2.8196,-2.829,-2.829,-2.829,-2.8186,-2.8092,-2.8092,-2.8301,-2.8102,-2.7809,-2.7904,-2.7136,-2.6071,-2.4688,-2.3601,-2.2719,-2.1717,-2.0925,-2.0925,-2.0925,-2.0925,-2.1019,-2.0917,-2.0917,-2.1318,-2.3003,-2.4088,-2.459,-2.5489,-2.6476,-2.7167,-2.7272,-2.7272,-2.7272,-2.7272,-2.7272,-2.7272,-2.7272,-2.7251,-2.72,-2.7179,-2.7148,-2.6951,-2.6682,-2.6486,-2.6423,-2.6206,-2.5958,-2.603,-2.6051,-2.6041,-2.5885,-2.5823,-2.5813,-2.5802,-2.5709,-2.5502,-2.5295,-2.514,-2.4923,-2.4736,-2.4726,-2.4705,-2.455,-2.4711,-2.4711,-2.4625,-2.4625,-2.454,-2.454,-2.4625,-2.4625,-2.47,-2.4946,-2.5105,-2.5348,-2.5757,-2.6318,-2.6494,-2.6905,-2.6905,-2.6823,-2.6329,-2.5902,-2.5579,-2.5179,-2.4861,-2.454,-2.455,-2.455,-2.455,-2.455,-2.455,-2.4454,-2.4272,-2.382,-2.3193,-2.1667,-1.9968,-2.4065,-2.4361,-2.437,-2.4381,-2.4336,-2.3586,-2.358,-2.4044,-2.3728,-2.4223,-2.5401,-2.5877,-2.6456,-2.7431,-2.8186,-2.8571,-2.8477,-2.8571,-2.8488,-2.8488,-2.8384,-2.8384,-2.8186,-2.8196,-2.7998,-2.8072,-2.7631,-2.6648,-2.5382,-2.4421,-2.3601,-2.2426,-2.1522,-2.0925,-2.0925,-2.0925,-2.1121,-2.1326,-2.1326,-2.1216,-2.1522,-2.2802,-2.4088,-2.4187,-2.5674,-2.6658,-2.7156,-2.7272,-2.7272,-2.7272,-2.7272,-2.7272,-2.7272,-2.7272,-2.7262,-2.7262,-2.7262,-2.7251,-2.721,-2.7044,-2.6962,-2.6941,-2.6755,-2.6713,-2.6662,-2.662,-2.663,-2.6682,-2.6413,-2.6289,-2.6196,-2.602,-2.5823,-2.5658,-2.5606,-2.5316,-2.5078,-2.4974,-2.4912,-2.4726,-2.455,-2.455,-2.455,-2.455,-2.454,-2.454,-2.455,-2.454,-2.454,-2.4625,-2.4786,-2.485,-2.5337,-2.5746,-2.5757,-2.5841,-2.5841,-2.5673,-2.5443,-2.5105,-2.502,-2.47,-2.454,-2.455,-2.455,-2.455,-2.455,-2.455,-2.455,-2.4368,-2.4176,-2.3551,-2.2833,-2.1747,-2.0133,-2.4161,-2.4161,-2.4161,-2.4161,-2.4152,-2.3546,-2.3538,-2.3728,-2.3637,-2.4026,-2.4716,-2.5684,-2.6658,-2.7515,-2.8373,-2.8757,-2.8757,-2.885,-2.8675,-2.8581,-2.8592,-2.8668,-2.8578,-2.8411,-2.838,-2.8338,-2.8103,-2.6801,-2.5362,-2.4418,-2.3678,-2.2148,-2.1326,-2.0925,-2.0925,-2.0925,-2.1121,-2.1326,-2.1428,-2.1224,-2.1326,-2.2702,-2.3592,-2.4581,-2.5771,-2.7061,-2.7262,-2.7272,-2.7272,-2.7272,-2.7272,-2.7272,-2.7272,-2.7272,-2.7272,-2.7272,-2.7272,-2.7272,-2.7272,-2.722,-2.7262,-2.7272,-2.7272,-2.7127,-2.7179,-2.7272,-2.7262,-2.7148,-2.6941,-2.6765,-2.6682,-2.6434,-2.6268,-2.6154,-2.6041,-2.5751,-2.5492,-2.5326,-2.514,-2.4933,-2.4736,-2.455,-2.455,-2.455,-2.455,-2.455,-2.455,-2.455,-2.4464,-2.4464,-2.454,-2.469,-2.485,-2.5179,-2.5189,-2.5031,-2.4861,-2.4775,-2.4625,-2.454,-2.4615,-2.4615,-2.454,-2.455,-2.4464,-2.455,-2.455,-2.455,-2.4464,-2.4272,-2.4003,-2.3193,-2.2375,-2.1302,-2.0034,-2.4161,-2.4161,-2.4161,-2.4161,-2.4152,-2.3529,-2.3827,-2.444,-2.3229,-2.3818,-2.5294,-2.6552,-2.7421,-2.8279,-2.8373,-2.8664,-2.885,-2.885,-2.8664,-2.8664,-2.8603,-2.8769,-2.8869,-2.886,-2.8741,-2.8536,-2.8307,-2.7212,-2.5778,-2.5303,-2.3554,-2.1423,-2.152,-2.1099,-2.0941,-2.1059,-2.0925,-2.1121,-2.1121,-2.1019,-2.1224,-2.2215,-2.3211,-2.4196,-2.5187,-2.6284,-2.7262,-2.7272,-2.7272,-2.7272,-2.7272,-2.7272,-2.7272,-2.7272,-2.7272,-2.7272,-2.7272,-2.7272,-2.7272,-2.7272,-2.7272,-2.7272,-2.7272,-2.7272,-2.7272,-2.7272,-2.7272,-2.7272,-2.7127,-2.7148,-2.7148,-2.7127,-2.6786,-2.663,-2.6465,-2.6248,-2.5937,-2.5595,-2.5399,-2.515,-2.4954,-2.4778,-2.4612,-2.4623,-2.455,-2.455,-2.455,-2.455,-2.4454,-2.4454,-2.4454,-2.4529,-2.4529,-2.4615,-2.4625,-2.4625,-2.4615,-2.4615,-2.4454,-2.4454,-2.4454,-2.4454,-2.4368,-2.4464,-2.4454,-2.4464,-2.4454,-2.4272,-2.4176,-2.4176,-2.3734,-2.2824,-2.1569,-2.0215,-1.9039,-2.4161,-2.4161,-2.4161,-2.4161,-2.4161,-2.3945,-2.4143,-2.4341,-2.3845,-2.3935,-2.4922,-2.5684,-2.6552,-2.722,-2.7515,-2.7987,-2.8653,-2.8258,-2.8373,-2.8607,-2.8874,-2.9029,-2.9171,-2.9019,-2.8947,-2.9116,-2.8938,-2.7985,-2.6497,-2.621,-2.4801,-2.3375,-2.2716,-2.2229,-2.1914,-2.1155,-2.0948,-2.0925,-2.0925,-2.0925,-2.1216,-2.261,-2.3692,-2.4088,-2.5974,-2.6774,-2.7262,-2.7272,-2.7272,-2.7272,-2.7272,-2.7272,-2.7272,-2.7272,-2.7272,-2.7272,-2.7272,-2.7272,-2.7272,-2.7272,-2.7272,-2.7272,-2.7272,-2.7272,-2.7272,-2.7272,-2.7272,-2.7272,-2.7272,-2.7272,-2.7262,-2.7241,-2.7127,-2.7034,-2.6879,-2.6672,-2.6403,-2.6041,-2.5802,-2.5616,-2.5316,-2.5047,-2.4871,-2.4629,-2.4623,-2.455,-2.455,-2.4464,-2.4368,-2.4368,-2.4368,-2.4368,-2.4368,-2.4368,-2.4378,-2.4454,-2.4454,-2.4368,-2.4282,-2.4282,-2.4282,-2.41,-2.4013,-2.4196,-2.4272,-2.4013,-2.3917,-2.382,-2.382,-2.3993,-2.328,-2.2199,-2.0845,-1.9222,-1.8319,-2.4922,-2.4922,-2.4932,-2.4637,-2.4251,-2.4161,-2.435,-2.444,-2.4242,-2.435,-2.4529,-2.5109,-2.5868,-2.6542,-2.6924,-2.76,-2.8456,-2.8362,-2.8092,-2.8441,-2.8899,-2.9245,-2.9246,-2.937,-2.9721,-2.9963,-2.9203,-2.8216,-2.7214,-2.7043,-2.5912,-2.4987,-2.4508,-2.384,-2.2419,-2.157,-2.1036,-2.0948,-2.0925,-2.1121,-2.1522,-2.3003,-2.4393,-2.4786,-2.637,-2.7071,-2.7272,-2.7272,-2.7272,-2.7272,-2.7272,-2.7272,-2.7272,-2.7272,-2.7272,-2.7272,-2.7272,-2.7272,-2.7272,-2.7272,-2.7272,-2.7272,-2.7272,-2.7272,-2.7272,-2.7272,-2.7272,-2.7272,-2.7272,-2.7272,-2.7272,-2.7262,-2.7262,-2.7148,-2.7158,-2.6982,-2.6796,-2.6506,-2.6299,-2.6103,-2.5751,-2.5368,-2.4918,-2.4722,-2.445,-2.4368,-2.4378,-2.4282,-2.4196,-2.4196,-2.4196,-2.4196,-2.4206,-2.4292,-2.4292,-2.4196,-2.41,-2.41,-2.4013,-2.4024,-2.4013,-2.3657,-2.3387,-2.3377,-2.3377,-2.3377,-2.3105,-2.2561,-2.3096,-2.382,-2.2561,-2.1042,-1.9869,-1.8427,-1.7963,-2.635,-2.6456,-2.636,-2.5499,-2.435,-2.4251,-2.4627,-2.5206,-2.4726,-2.4726,-2.5197,-2.5392,-2.6147,-2.72,-2.721,-2.7683,-2.8456,-2.8456,-2.8175,-2.7999,-2.8881,-2.9171,-2.949,-2.9796,-3.0232,-3.013,-2.9558,-2.8735,-2.7786,-2.737,-2.6695,-2.6191,-2.5739,-2.4949,-2.2938,-2.1917,-2.1266,-2.0988,-2.0956,-2.1428,-2.2325,-2.3502,-2.4492,-2.5489,-2.6562,-2.7262,-2.7272,-2.7272,-2.7272,-2.7272,-2.7272,-2.7272,-2.7272,-2.7272,-2.7272,-2.7272,-2.7272,-2.7272,-2.7272,-2.7272,-2.7272,-2.7272,-2.7272,-2.7272,-2.7272,-2.7272,-2.7272,-2.7272,-2.7272,-2.7272,-2.7272,-2.7272,-2.7272,-2.7272,-2.7272,-2.7231,-2.7024,-2.692,-2.6693,-2.6527,-2.6123,-2.5699,-2.5155,-2.4707,-2.4298,-2.4196,-2.4196,-2.411,-2.4024,-2.3937,-2.3937,-2.3754,-2.3754,-2.3474,-2.3474,-2.3657,-2.3754,-2.3754,-2.3474,-2.3202,-2.2931,-2.257,-2.2394,-2.2385,-2.2296,-2.211,-2.1658,-2.1203,-2.1658,-2.1845,-2.0962,-1.9712,-1.8535,-1.78,-1.752,-2.6157,-2.5771,-2.6264,-2.5877,-2.5109,-2.5499,-2.5877,-2.6071,-2.579,-2.5586,-2.5489,-2.5781,-2.6638,-2.7115,-2.6829,-2.7115,-2.8269,-2.6829,-2.6446,-2.7778,-2.8753,-2.8655,-2.8974,-2.981,-3.0512,-3.0338,-2.9963,-2.9418,-2.8628,-2.8145,-2.7422,-2.6781,-2.61,-2.485,-2.3676,-2.2454,-2.1354,-2.1242,-2.1187,-2.1428,-2.2526,-2.3601,-2.4688,-2.5684,-2.6764,-2.7262,-2.7272,-2.7272,-2.7272,-2.7272,-2.7272,-2.7272,-2.7272,-2.7272,-2.7272,-2.7272,-2.7272,-2.7272,-2.7272,-2.7272,-2.7272,-2.7272,-2.7272,-2.7272,-2.7272,-2.7272,-2.7272,-2.7272,-2.7272,-2.7272,-2.7272,-2.7272,-2.7272,-2.7272,-2.7272,-2.7272,-2.7169,-2.7138,-2.7024,-2.69,-2.661,-2.5857,-2.5242,-2.4655,-2.4206,-2.3861,-2.3851,-2.3927,-2.3754,-2.358,-2.3493,-2.3222,-2.3038,-2.2658,-2.2482,-2.2668,-2.258,-2.2403,-2.1943,-2.1489,-2.1311,-2.14,-2.1311,-2.1212,-2.1033,-2.0764,-2.0404,-2.0133,-1.9786,-1.953,-1.9263,-1.8996,-1.8265,-1.7807,-1.7621,-2.703,-2.6542,-2.7125,-2.702,-2.6542,-2.6542,-2.6456,-2.6552,-2.6733,-2.6446,-2.5974,-2.635,-2.6733,-2.6829,-2.6733,-2.635,-2.7893,-2.722,-2.6167,-2.7546,-2.8868,-2.8692,-2.8765,-2.9661,-3.0575,-3.0495,-3.0391,-2.9953,-2.9523,-2.9102,-2.8368,-2.7314,-2.6218,-2.5955,-2.4887,-2.3653,-2.249,-2.2507,-2.2639,-2.2719,-2.371,-2.4501,-2.5285,-2.6177,-2.687,-2.7272,-2.7272,-2.7272,-2.7272,-2.7272,-2.7272,-2.7272,-2.7272,-2.7272,-2.7272,-2.7272,-2.7272,-2.7272,-2.7272,-2.7272,-2.7272,-2.7272,-2.7272,-2.7272,-2.7272,-2.7272,-2.7272,-2.7272,-2.7272,-2.7272,-2.7272,-2.7272,-2.7272,-2.7272,-2.7272,-2.7272,-2.7262,-2.722,-2.721,-2.7107,-2.6951,-2.6176,-2.5278,-2.4652,-2.4025,-2.3797,-2.3493,-2.358,-2.357,-2.3396,-2.3057,-2.2687,-2.2492,-2.2129,-2.1765,-2.1587,-2.1418,-2.106,-2.0692,-2.0232,-2.0232,-2.0413,-2.0223,-1.9951,-1.9505,-1.9231,-1.9322,-1.9147,-1.8796,-1.8619,-1.8535,-1.8265,-1.79,-1.7714,-1.7621,-2.8746,-2.8746,-2.8746,-2.8664,-2.8466,-2.722,-2.6648,-2.6648,-2.7305,-2.721,-2.6552,-2.6648,-2.6935,-2.6829,-2.721,-2.7315,-2.703,-2.7893,-2.7505,-2.7544,-2.8773,-2.8468,-2.8925,-3.0119,-3.0625,-3.0567,-3.0391,-3.0391,-3.0172,-2.9227,-2.8495,-2.8067,-2.7295,-2.7004,-2.6286,-2.5234,-2.4183,-2.4079,-2.3752,-2.4053,-2.4903,-2.5392,-2.5984,-2.6774,-2.7262,-2.7272,-2.7272,-2.7272,-2.7272,-2.7272,-2.7272,-2.7272,-2.7272,-2.7272,-2.7272,-2.7272,-2.7272,-2.7272,-2.7272,-2.7272,-2.7272,-2.7272,-2.7272,-2.7272,-2.7272,-2.7272,-2.7272,-2.7272,-2.7272,-2.7272,-2.7272,-2.7272,-2.7272,-2.7272,-2.7272,-2.7272,-2.7272,-2.7262,-2.7262,-2.72,-2.7117,-2.6558,-2.5666,-2.4906,-2.4097,-2.3761,-2.3447,-2.3319,-2.3222,-2.3047,-2.2696,-2.2059,-2.1872,-2.1686,-2.123,-2.0602,-2.0141,-1.9786,-1.9695,-1.9413,-1.9505,-1.933,-1.9055,-1.8688,-1.7963,-1.7785,-1.8241,-1.8249,-1.7893,-1.7807,-1.7986,-1.7994,-1.7815,-1.7721,-1.7628,-2.8456,-2.7977,-2.856,-2.8456,-2.7977,-2.8081,-2.7788,-2.741,-2.8081,-2.7987,-2.7305,-2.7893,-2.7893,-2.8175,-2.7788,-2.7882,-2.7704,-2.761,-2.741,-2.7777,-2.8561,-2.8235,-2.878,-2.9886,-3.0547,-3.07,-3.0578,-3.0703,-2.9963,-2.9016,-2.8262,-2.7609,-2.7716,-2.7814,-2.7391,-2.6655,-2.5853,-2.5229,-2.4699,-2.5068,-2.5586,-2.579,-2.6476,-2.7071,-2.7272,-2.7272,-2.7272,-2.7272,-2.7272,-2.7272,-2.7272,-2.7272,-2.7272,-2.7272,-2.7272,-2.7272,-2.7272,-2.7272,-2.7272,-2.7272,-2.7272,-2.7272,-2.7272,-2.7272,-2.7272,-2.7272,-2.7272,-2.7272,-2.7272,-2.7272,-2.7272,-2.7272,-2.7272,-2.7272,-2.7272,-2.7272,-2.7272,-2.7272,-2.7262,-2.7231,-2.7158,-2.6681,-2.5726,-2.4967,-2.4296,-2.3752,-2.3398,-2.3232,-2.296,-2.2696,-2.2236,-2.1606,-2.097,-2.0692,-2.0059,-1.933,-1.8872,-1.8511,-1.8596,-1.8511,-1.8326,-1.8149,-1.7878,-1.7699,-1.7419,-1.7426,-1.7419,-1.7426,-1.7527,-1.7527,-1.7613,-1.7714,-1.7815,-1.7721,-1.7621,-2.856,-2.8175,-2.856,-2.8549,-2.8164,-2.856,-2.8456,-2.8175,-2.856,-2.8466,-2.8164,-2.856,-2.8664,-2.8269,-2.807,-2.7977,-2.7704,-2.7799,-2.7694,-2.761,-2.8338,-2.8094,-2.852,-2.9532,-3.0088,-3.0282,-3.0596,-3.092,-3.0287,-2.9649,-2.89,-2.8581,-2.8475,-2.8453,-2.8356,-2.7839,-2.7209,-2.6494,-2.5995,-2.5879,-2.6081,-2.6284,-2.6774,-2.7071,-2.7272,-2.7272,-2.7272,-2.7272,-2.7272,-2.7272,-2.7272,-2.7272,-2.7272,-2.7272,-2.7272,-2.7272,-2.7272,-2.7272,-2.7272,-2.7272,-2.7272,-2.7272,-2.7272,-2.7272,-2.7272,-2.7272,-2.7272,-2.7272,-2.7272,-2.7272,-2.7272,-2.7272,-2.7272,-2.7272,-2.7272,-2.7272,-2.7272,-2.7272,-2.7251,-2.722,-2.6981,-2.6472,-2.5837,-2.5098,-2.4376,-2.387,-2.3447,-2.3213,-2.2775,-2.2325,-2.1686,-2.0962,-2.015,-1.9604,-1.8972,-1.8603,-1.8334,-1.8056,-1.787,-1.7785,-1.7326,-1.7333,-1.7512,-1.7419,-1.7333,-1.7333,-1.7333,-1.7333,-1.7333,-1.7426,-1.7426,-1.752,-1.7621,-1.7628,-1.7621,-2.8757,-2.8757,-2.885,-2.8757,-2.8757,-2.8757,-2.8757,-2.885,-2.8757,-2.8757,-2.8746,-2.8757,-2.8466,-2.8164,-2.8362,-2.7977,-2.7893,-2.8092,-2.8175,-2.7694,-2.8612,-2.8636,-2.8586,-2.9498,-2.9896,-2.9709,-3.0013,-3.0884,-3.0899,-3.0391,-2.9869,-2.9994,-2.9682,-2.9403,-2.9044,-2.845,-2.7811,-2.7388,-2.7013,-2.687,-2.7071,-2.7262,-2.7272,-2.7272,-2.7272,-2.7272,-2.7272,-2.7272,-2.7272,-2.7272,-2.7272,-2.7272,-2.7272,-2.7272,-2.7272,-2.7272,-2.7272,-2.7272,-2.7272,-2.7272,-2.7272,-2.7272,-2.7272,-2.7272,-2.7272,-2.7272,-2.7272,-2.7272,-2.7272,-2.7272,-2.7272,-2.7272,-2.7272,-2.7272,-2.7272,-2.7272,-2.7272,-2.7272,-2.7262,-2.7241,-2.7105,-2.6679,-2.6077,-2.5358,-2.4655,-2.4057,-2.3477,-2.3193,-2.2687,-2.2138,-2.1418,-2.0602,-1.9695,-1.9063,-1.8796,-1.8427,-1.8064,-1.7785,-1.7598,-1.7419,-1.7333,-1.7333,-1.7333,-1.7333,-1.7333,-1.7333,-1.7333,-1.7333,-1.7333,-1.7333,-1.7333,-1.7333,-1.7426,-1.7527,-1.7527,-2.885,-2.885,-2.885,-2.885,-2.885,-2.885,-2.885,-2.885,-2.885,-2.885,-2.885,-2.8757,-2.8664,-2.856,-2.8653,-2.8373,-2.8466,-2.8477,-2.8571,-2.8466,-2.8953,-2.8888,-2.8828,-2.9386,-2.9677,-3.0033,-3.0432,-3.0627,-3.0501,-3.04,-3.0245,-2.9911,-2.9694,-2.9342,-2.9135,-2.8514,-2.8048,-2.781,-2.751,-2.7272,-2.7272,-2.7272,-2.7272,-2.7272,-2.7272,-2.7272,-2.7272,-2.7272,-2.7272,-2.7272,-2.7272,-2.7272,-2.7272,-2.7272,-2.7272,-2.7272,-2.7272,-2.7272,-2.7272,-2.7272,-2.7272,-2.7272,-2.7272,-2.7272,-2.7272,-2.7272,-2.7272,-2.7272,-2.7272,-2.7272,-2.7272,-2.7272,-2.7272,-2.7272,-2.7272,-2.7272,-2.7272,-2.7272,-2.7272,-2.7272,-2.7272,-2.6843,-2.6259,-2.5698,-2.4911,-2.4205,-2.3477,-2.2979,-2.2511,-2.1961,-2.1507,-2.0602,-1.9513,-1.8888,-1.8519,-1.8156,-1.7785,-1.7606,-1.7419,-1.7333,-1.7333,-1.7333,-1.7333,-1.7333,-1.7333,-1.7333,-1.7333,-1.7333,-1.7333,-1.7333,-1.7333,-1.7333,-1.7333,-1.7426,-1.7426,-2.885,-2.885,-2.885,-2.885,-2.885,-2.885,-2.885,-2.885,-2.885,-2.885,-2.885,-2.885,-2.885,-2.885,-2.885,-2.885,-2.885,-2.8757,-2.8757,-2.8757,-2.8779,-2.8618,-2.8929,-2.9263,-2.9235,-2.958,-2.9979,-3.0156,-3.0028,-2.9965,-2.9821,-2.9588,-2.9206,-2.8998,-2.8721,-2.8152,-2.78,-2.7614,-2.7365,-2.7282,-2.7272,-2.7272,-2.7272,-2.7272,-2.7272,-2.7272,-2.7272,-2.7272,-2.7272,-2.7272,-2.7272,-2.7272,-2.7272,-2.7272,-2.7272,-2.7272,-2.7272,-2.7272,-2.7272,-2.7272,-2.7272,-2.7272,-2.7272,-2.7272,-2.7272,-2.7272,-2.7272,-2.7272,-2.7272,-2.7272,-2.7272,-2.7272,-2.7272,-2.7272,-2.7272,-2.7272,-2.7272,-2.7272,-2.7272,-2.7272,-2.7272,-2.7051,-2.654,-2.5973,-2.5295,-2.4572,-2.382,-2.3164,-2.2568,-2.1596,-2.115,-2.0512,-1.9338,-1.8427,-1.7878,-1.7699,-1.7512,-1.7333,-1.7333,-1.7333,-1.7333,-1.7333,-1.7333,-1.7333,-1.7333,-1.7333,-1.7333,-1.7333,-1.7333,-1.7333,-1.7333,-1.7333,-1.7333,-1.7333,-1.7333,-2.885,-2.885,-2.885,-2.885,-2.885,-2.885,-2.885,-2.885,-2.885,-2.885,-2.885,-2.885,-2.885,-2.885,-2.885,-2.885,-2.885,-2.885,-2.885,-2.885,-2.885,-2.8625,-2.8661,-2.8856,-2.8977,-2.9117,-2.9461,-2.9578,-2.9583,-2.9593,-2.9505,-2.9058,-2.8791,-2.8546,-2.8125,-2.781,-2.7645,-2.7438,-2.7272,-2.7272,-2.7272,-2.7272,-2.7272,-2.7272,-2.7272,-2.7272,-2.7272,-2.7272,-2.7272,-2.7272,-2.7272,-2.7272,-2.7272,-2.7272,-2.7272,-2.7272,-2.7272,-2.7272,-2.7272,-2.7272,-2.7272,-2.7272,-2.7272,-2.7272,-2.7272,-2.7272,-2.7272,-2.7272,-2.7272,-2.7272,-2.7272,-2.7272,-2.7272,-2.7272,-2.7272,-2.7272,-2.7272,-2.7272,-2.7272,-2.7272,-2.7272,-2.7177,-2.6717,-2.6158,-2.5578,-2.4861,-2.4144,-2.3623,-2.283,-2.1374,-2.0421,-1.9786,-1.8788,-1.8056,-1.7512,-1.7333,-1.7333,-1.7333,-1.7333,-1.7333,-1.7333,-1.7333,-1.7333,-1.7333,-1.7333,-1.7239,-1.7333,-1.7333,-1.7333,-1.7239,-1.7333,-1.7333,-1.7333,-1.7333,-1.7333,-2.885,-2.885,-2.885,-2.885,-2.885,-2.885,-2.885,-2.885,-2.885,-2.885,-2.885,-2.885,-2.885,-2.885,-2.885,-2.885,-2.885,-2.885,-2.885,-2.885,-2.885,-2.8664,-2.8696,-2.8849,-2.9056,-2.9178,-2.9406,-2.9516,-2.9386,-2.9547,-2.9391,-2.8932,-2.8554,-2.8202,-2.7914,-2.7676,-2.7396,-2.7272,-2.7272,-2.7272,-2.7272,-2.7272,-2.7272,-2.7272,-2.7272,-2.7272,-2.7272,-2.7272,-2.7272,-2.7272,-2.7272,-2.7272,-2.7272,-2.7272,-2.7272,-2.7272,-2.7272,-2.7272,-2.7272,-2.7272,-2.7272,-2.7272,-2.7272,-2.7272,-2.7272,-2.7272,-2.7272,-2.7272,-2.7272,-2.7272,-2.7272,-2.7272,-2.7272,-2.7272,-2.7272,-2.7272,-2.7272,-2.7272,-2.7272,-2.7272,-2.7272,-2.7071,-2.6648,-2.6124,-2.5525,-2.4716,-2.3461,-2.2943,-2.2694,-2.1266,-1.9695,-1.9055,-1.8334,-1.7785,-1.7333,-1.7333,-1.7333,-1.7333,-1.7333,-1.7333,-1.7333,-1.7333,-1.7333,-1.7333,-1.7232,-1.7138,-1.7232,-1.6951,-1.7044,-1.7044,-1.7239,-1.7333,-1.7333,-1.7333,-1.7333]},{"header":{"parameterUnit":"m.s-1","parameterCategory":1,"la1":31.0,"la2":29.5877,"lo1":-88.7671,"lo2":-86.6584,"dy":0.0162,"dx":0.0185,"nx":115,"ny":88,"refTime":"2023-08-04T00:00:00:Z","depth":0,"parameterNumber":3,"parameterNumberName":"V-component_of_WINDS"},"data":[0.0,0.0,0.0,0.0,0.0,0.0,0.0,0.0,0.0,0.0,0.0,0.0,0.0,0.0,0.0,0.0,0.0,0.0,0.0,0.0,0.0,0.0,0.0,0.0,0.0,0.0,0.0,0.0,0.0,0.0,0.0,0.0,0.0,0.0,0.0,0.0,0.0,0.0,0.0,0.0,0.0,0.0,0.0,0.0,0.0,0.0,0.0,0.0,0.0,0.0,0.0,0.0,0.0,0.0,0.0,0.0,0.0,0.0,0.0,0.0,0.0,0.0,0.0,0.0,0.0,0.0,0.0,0.0,0.0,0.0,0.0,0.0,0.0,0.0,0.0,0.0,0.0,0.0,0.0,0.0,0.0,0.0,0.0,0.0,0.0,0.0,0.0,0.0,0.0,0.0,0.0,0.0,0.0,0.0,0.0,0.0,0.0,0.0,0.0,0.0,0.0,0.0,0.0,0.0,0.0,0.0,0.0,0.0,0.0,0.0,0.0,0.0,0.0,0.0,0.0,0.0,0.0,0.0,0.0,0.0,0.0,0.0,0.0,0.0,0.0,0.0,0.0,0.0,0.0,0.0,0.0,0.0,0.0,0.0,0.0,0.0,0.0,0.0,0.0,0.0,0.0,0.0,0.0,0.0,0.0,0.0,0.0,0.0,0.0,0.0,0.0,0.0,0.0,0.0,0.0,0.0,0.0,0.0,0.0,0.0,0.0,0.0,0.0,0.0,0.0,0.0,0.0,0.0,0.0,0.0,0.0,0.0,0.0,0.0,0.0,0.0,0.0,0.0,0.0,0.0,0.0,0.0,0.0,0.0,0.0,0.0,0.0,0.0,0.0,0.0,0.0,0.0,0.0,0.0,0.0,0.0,0.0,0.0,0.0,0.0,0.0,0.0,0.0,0.0,0.0,0.0,0.0,0.0,0.0,0.0,0.0,0.0,0.0,0.0,0.0,0.0,0.0,0.0,0.0,0.0,0.0,0.0,0.0,0.0,0.0,0.0,0.0,0.0,0.0,0.0,0.0,0.0,0.0,0.0,0.0,0.0,0.0,0.0,0.0,0.0,0.0,0.0,0.0,0.0,0.0,0.0,0.0,0.0,0.0,0.0,0.0,0.0,0.0,0.0,0.0,0.0,0.0,0.0,0.0,0.0,0.0,0.0,0.0,0.0,0.0,0.0,0.0,0.0,0.0,0.0,0.0,0.0,0.0,0.0,0.0,0.0,0.0,0.0,0.0,0.0,0.0,0.0,0.0,0.0,0.0,0.0,0.0,0.0,0.0,0.0,0.0,0.0,0.0,0.0,0.0,0.0,0.0,0.0,0.0,0.0,0.0,0.0,0.0,0.0,0.0,0.0,0.0,0.0,0.0,0.0,0.0,0.0,0.0,0.0,0.0,0.0,0.0,0.0,0.0,0.0,0.0,0.0,0.0,0.0,0.0,0.0,0.0,0.0,0.0,0.0,0.0,0.0,0.0,0.0,0.0,0.0,0.0,0.0,0.0,0.0,0.0,0.0,0.0,0.0,0.0,0.0,0.0,0.0,0.0,0.0,0.0,0.0,0.0,0.0,0.0,0.0,0.0,0.0,0.0,0.0,0.0,0.0,0.0,0.0,0.0,0.0,0.0,0.0,0.0,0.0,0.0,0.0,0.0,0.0,0.0,0.0,0.0,0.0,0.0,0.0,0.0,0.0,0.0,0.0,0.0,0.0,0.0,0.0,0.0,0.0,0.0,0.0,0.0,0.0,0.0,0.0,0.0,0.0,0.0,0.0,0.0,0.0,0.0,0.0,0.0,0.0,0.0,0.0,0.0,0.0,0.0,0.0,0.0,0.0,0.0,0.0,0.0,0.0,0.0,0.0,0.0,0.0,0.0,0.0,0.0,0.0,0.0,0.0,0.0,0.0,0.0,0.0,0.0,0.0,0.0,0.0,0.0,0.0,0.0,0.0,0.0,0.0,0.0,0.0,0.0,0.0,0.0,0.0,0.0,0.0,0.0,0.0,0.0,0.0,0.0,0.0,0.0,0.0,0.0,0.0,0.0,0.0,0.0,0.0,0.0,0.0,0.0,0.0,0.0,0.0,0.0,0.0,0.0,0.0,0.0,0.0,0.0,0.0,0.0,0.0,0.0,0.0,0.0,0.0,0.0,0.0,0.0,0.0,0.0,0.0,0.0,0.0,0.0,0.0,0.0,0.0,0.0,0.0,0.0,0.0,0.0,0.0,0.0,0.0,0.0,0.0,0.0,0.0,0.0,0.0,0.0,0.0,0.0,0.0,0.0,0.0,0.0,0.0,0.0,0.0,0.0,0.0,0.0,0.0,0.0,0.0,0.0,0.0,0.0,0.0,0.0,0.0,0.0,0.0,0.0,0.0,0.0,0.0,0.0,0.0,0.0,0.0,0.0,0.0,0.0,0.0,0.0,0.0,0.0,0.0,0.0,0.0,0.0,0.0,0.0,0.0,0.0,0.0,0.0,0.0,0.0,0.0,0.0,0.0,0.0,0.0,0.0,0.0,0.0,0.0,0.0,0.0,0.0,0.0,0.0,0.0,0.0,0.0,0.0,0.0,0.0,0.0,0.0,0.0,0.0,0.0,0.0,0.0,0.0,0.0,0.0,0.0,0.0,0.0,0.0,0.0,0.0,0.0,0.0,0.0,0.0,0.0,0.0,0.0,0.0,0.0,0.0,0.0,0.0,0.0,0.0,0.0,0.0,0.0,0.0,0.0,0.0,0.0,0.0,0.0,0.0,0.0,0.0,0.0,0.0,0.0,0.0,0.0,0.0,0.0,0.0,0.0,0.0,0.0,0.0,0.0,0.0,0.0,0.0,0.0,0.0,0.0,0.0,0.0,0.0,0.0,0.0,0.0,0.0,0.0,0.0,0.0,0.0,0.0,0.0,0.0,0.0,0.0,0.0,0.0,0.0,0.0,0.0,0.0,0.0,0.0,0.0,0.0,0.0,0.0,0.0,0.0,0.0,0.0,0.0,0.0,0.0,0.0,0.0,0.0,0.0,0.0,0.0,0.0,0.0,0.0,0.0,0.0,0.0,0.0,0.0,0.0,0.0,0.0,0.0,0.0,0.0,0.0,0.0,0.0,0.0,0.0,0.0,0.0,0.0,0.0,0.0,0.0,0.0,0.0,0.0,0.0,0.0,0.0,0.0,0.0,0.0,0.0,0.0,0.0,0.0,0.0,0.0,0.0,0.0,0.0,0.0,0.0,0.0,0.0,0.0,0.0,0.0,0.0,0.0,0.0,0.0,0.0,0.0,0.0,0.0,0.0,0.0,0.0,0.0,0.0,0.0,0.0,0.0,0.0,0.0,0.0,0.0,0.0,0.0,0.0,0.0,0.0,0.0,0.0,0.0,0.0,0.0,0.0,0.0,0.0,0.0,0.0,0.0,0.0,0.0,0.0,0.0,0.0,0.0,0.0,0.0,0.0,0.0,0.0,0.0,0.0,0.0,0.0,0.0,0.0,0.0,0.0,0.0,0.0,0.0,0.0,0.0,0.0,0.0,0.0,0.0,0.0,0.0,0.0,0.0,0.0,0.0,0.0,0.0,0.0,0.0,0.0,0.0,0.0,0.0,0.0,0.0,0.0,0.0,0.0,0.0,0.0,0.0,0.0,0.0,0.0,0.0,0.0,0.0,0.0,0.0,0.0,0.0,0.0,0.0,0.0,0.0,0.0,0.0,0.0,0.0,0.0,0.0,0.0,0.0,0.0,0.0,0.0,0.0,0.0,0.0,0.0,0.0,0.0,0.0,0.0,0.0,0.0,0.0,0.0,0.0,0.0,0.0,0.0,0.0,0.0,0.0,0.0,0.0,0.0,0.0,0.0,0.0,0.0,0.0,0.0,0.0,0.0,0.0,0.0,0.0,0.0,0.0,0.0,0.0,0.0,0.0,0.0,0.0,0.0,0.0,0.0,0.0,0.0,0.0,0.0,0.0,0.0,0.0,0.0,0.0,0.0,0.0,0.0,0.0,0.0,0.0,0.0,0.0,0.0,0.0,0.0,0.0,0.0,0.0,0.0,0.0,0.0,0.0,0.0,0.0,0.0,0.0,0.0,0.0,0.0,0.0,0.0,0.0,0.0,0.0,0.0,0.0,0.0,0.0,0.0,0.0,0.0,0.0,0.0,0.0,0.0,0.0,0.0,0.0,0.0,0.0,0.0,0.0,0.0,0.0,0.0,0.0,0.0,0.0,0.0,0.0,0.0,0.0,0.0,0.0,0.0,0.0,0.0,0.0,0.0,0.0,0.0,0.0,0.0,-1.8104,0.0,0.0,0.0,0.0,0.0,0.0,0.0,0.0,0.0,0.0,0.0,0.0,0.0,0.0,0.0,0.0,0.0,0.0,0.0,0.0,0.0,0.0,0.0,0.0,0.0,0.0,0.0,0.0,0.0,0.0,0.0,0.0,0.0,0.0,0.0,0.0,0.0,0.0,0.0,0.0,0.0,0.0,0.0,0.0,0.0,0.0,0.0,0.0,0.0,0.0,0.0,0.0,0.0,0.0,0.0,0.0,0.0,0.0,0.0,0.0,0.0,0.0,0.0,0.0,0.0,0.0,0.0,0.0,0.0,0.0,0.0,0.0,0.0,0.0,0.0,0.0,0.0,0.0,0.0,0.0,0.0,0.0,0.0,0.0,0.0,0.0,0.0,0.0,0.0,0.0,0.0,0.0,0.0,0.0,0.0,0.0,0.0,0.0,0.0,0.0,0.0,0.0,0.0,0.0,0.0,0.0,0.0,0.0,0.0,0.0,-1.776,-1.7488,-1.7457,-1.7813,-1.8478,0.0,0.0,0.0,0.0,0.0,0.0,0.0,0.0,0.0,0.0,0.0,0.0,0.0,0.0,0.0,0.0,0.0,0.0,0.0,0.0,0.0,0.0,0.0,0.0,0.0,0.0,0.0,0.0,0.0,0.0,0.0,0.0,0.0,0.0,0.0,0.0,0.0,0.0,0.0,0.0,0.0,0.0,0.0,0.0,0.0,0.0,0.0,0.0,0.0,0.0,0.0,0.0,0.0,0.0,0.0,0.0,0.0,0.0,0.0,0.0,0.0,0.0,0.0,0.0,0.0,0.0,0.0,0.0,0.0,0.0,0.0,0.0,0.0,0.0,0.0,0.0,0.0,0.0,0.0,0.0,0.0,0.0,0.0,0.0,0.0,0.0,0.0,0.0,0.0,0.0,0.0,0.0,0.0,0.0,0.0,0.0,0.0,0.0,0.0,0.0,0.0,0.0,0.0,0.0,0.0,0.0,0.0,0.0,0.0,0.0,0.0,0.0,-1.7895,-1.835,-1.8879,0.0,0.0,0.0,0.0,0.0,0.0,0.0,0.0,0.0,0.0,0.0,0.0,0.0,0.0,0.0,0.0,0.0,0.0,0.0,0.0,0.0,0.0,0.0,0.0,0.0,0.0,0.0,0.0,0.0,0.0,0.0,0.0,0.0,0.0,0.0,0.0,0.0,0.0,0.0,0.0,0.0,0.0,0.0,0.0,0.0,0.0,0.0,0.0,0.0,0.0,0.0,0.0,0.0,0.0,0.0,0.0,0.0,0.0,0.0,0.0,0.0,0.0,0.0,0.0,0.0,0.0,0.0,0.0,0.0,0.0,0.0,0.0,0.0,0.0,0.0,0.0,0.0,0.0,0.0,0.0,0.0,0.0,0.0,0.0,0.0,0.0,0.0,0.0,0.0,0.0,0.0,0.0,0.0,0.0,0.0,0.0,0.0,0.0,0.0,0.0,0.0,0.0,0.0,0.0,0.0,0.0,0.0,0.0,0.0,0.0,-1.8085,-1.853,-1.8266,0.0,-2.0,0.0,0.0,0.0,0.0,0.0,0.0,0.0,0.0,0.0,0.0,0.0,0.0,0.0,0.0,0.0,0.0,0.0,0.0,0.0,0.0,0.0,0.0,0.0,0.0,0.0,0.0,0.0,0.0,0.0,0.0,0.0,0.0,0.0,0.0,0.0,0.0,0.0,0.0,0.0,0.0,0.0,0.0,0.0,0.0,0.0,0.0,0.0,0.0,0.0,0.0,0.0,0.0,0.0,0.0,0.0,0.0,0.0,0.0,0.0,0.0,0.0,0.0,0.0,0.0,0.0,0.0,0.0,0.0,0.0,0.0,0.0,0.0,0.0,0.0,0.0,0.0,0.0,0.0,0.0,0.0,0.0,0.0,0.0,0.0,0.0,0.0,0.0,0.0,0.0,0.0,0.0,0.0,0.0,0.0,0.0,0.0,0.0,0.0,0.0,0.0,0.0,0.0,0.0,0.0,0.0,0.0,0.0,0.0,0.0,0.0,-1.8562,-1.8322,-1.8998,-1.9847,0.0,0.0,0.0,0.0,0.0,0.0,0.0,0.0,0.0,0.0,0.0,0.0,0.0,0.0,0.0,0.0,0.0,0.0,0.0,0.0,0.0,0.0,0.0,0.0,0.0,0.0,0.0,0.0,0.0,0.0,0.0,0.0,0.0,0.0,0.0,0.0,0.0,0.0,0.0,0.0,0.0,0.0,0.0,0.0,0.0,0.0,0.0,0.0,0.0,0.0,0.0,0.0,0.0,0.0,0.0,0.0,0.0,0.0,0.0,0.0,0.0,0.0,0.0,0.0,0.0,0.0,0.0,0.0,0.0,0.0,0.0,0.0,0.0,0.0,0.0,0.0,0.0,0.0,0.0,0.0,0.0,0.0,0.0,0.0,0.0,0.0,0.0,0.0,0.0,0.0,0.0,0.0,0.0,0.0,0.0,0.0,0.0,0.0,0.0,0.0,0.0,0.0,0.0,0.0,0.0,0.0,0.0,0.0,0.0,0.0,-1.9277,-1.9277,-1.8687,-1.97,-2.0655,-2.1348,0.0,0.0,0.0,0.0,0.0,0.0,0.0,0.0,0.0,0.0,0.0,0.0,0.0,0.0,0.0,0.0,0.0,0.0,0.0,0.0,0.0,0.0,0.0,0.0,0.0,0.0,0.0,0.0,0.0,0.0,0.0,0.0,0.0,0.0,0.0,0.0,0.0,0.0,0.0,0.0,0.0,0.0,0.0,0.0,0.0,0.0,0.0,0.0,0.0,0.0,0.0,0.0,0.0,0.0,0.0,0.0,0.0,0.0,0.0,0.0,0.0,0.0,0.0,0.0,0.0,0.0,0.0,0.0,0.0,0.0,0.0,0.0,0.0,0.0,0.0,0.0,0.0,0.0,0.0,0.0,0.0,0.0,0.0,0.0,0.0,0.0,0.0,0.0,0.0,0.0,0.0,0.0,0.0,0.0,0.0,0.0,0.0,0.0,0.0,0.0,0.0,0.0,0.0,0.0,0.0,0.0,0.0,0.0,-1.9319,-1.9908,-2.0072,-1.9756,-2.0358,-2.0921,0.0,0.0,0.0,0.0,0.0,0.0,0.0,0.0,0.0,0.0,0.0,0.0,0.0,0.0,0.0,0.0,0.0,0.0,0.0,0.0,0.0,0.0,0.0,0.0,0.0,0.0,0.0,0.0,0.0,0.0,0.0,0.0,0.0,0.0,0.0,0.0,0.0,0.0,0.0,0.0,0.0,0.0,0.0,0.0,0.0,0.0,0.0,0.0,0.0,0.0,0.0,0.0,0.0,0.0,0.0,0.0,0.0,0.0,0.0,0.0,0.0,0.0,0.0,0.0,0.0,0.0,0.0,0.0,0.0,0.0,0.0,0.0,0.0,0.0,0.0,0.0,0.0,0.0,0.0,0.0,0.0,0.0,0.0,0.0,0.0,0.0,0.0,0.0,0.0,0.0,0.0,0.0,0.0,0.0,0.0,0.0,0.0,0.0,0.0,0.0,0.0,0.0,0.0,0.0,0.0,0.0,0.0,0.0,0.0,-1.9978,-1.9966,-2.0174,-2.0567,-2.0792,-2.1144,0.0,0.0,0.0,0.0,0.0,0.0,0.0,0.0,0.0,0.0,0.0,0.0,0.0,0.0,0.0,0.0,0.0,0.0,0.0,0.0,0.0,0.0,0.0,0.0,0.0,0.0,0.0,0.0,0.0,0.0,0.0,0.0,0.0,0.0,0.0,0.0,0.0,0.0,0.0,0.0,0.0,0.0,0.0,0.0,0.0,0.0,0.0,0.0,0.0,0.0,0.0,0.0,0.0,0.0,0.0,0.0,0.0,0.0,0.0,0.0,0.0,0.0,0.0,0.0,0.0,0.0,0.0,0.0,0.0,0.0,0.0,0.0,0.0,0.0,0.0,0.0,0.0,0.0,0.0,0.0,0.0,0.0,0.0,0.0,0.0,0.0,0.0,0.0,0.0,0.0,0.0,0.0,0.0,0.0,0.0,0.0,0.0,0.0,0.0,0.0,0.0,0.0,0.0,0.0,0.0,0.0,0.0,0.0,0.0,-2.0864,0.0,-2.0368,-2.0871,-2.0947,-2.1215,0.0,0.0,0.0,0.0,0.0,0.0,0.0,0.0,0.0,0.0,0.0,0.0,0.0,0.0,0.0,0.0,0.0,0.0,0.0,0.0,0.0,0.0,0.0,0.0,0.0,0.0,0.0,0.0,0.0,0.0,0.0,0.0,0.0,0.0,0.0,0.0,0.0,0.0,0.0,0.0,0.0,0.0,0.0,0.0,0.0,0.0,0.0,0.0,0.0,0.0,0.0,0.0,0.0,0.0,0.0,0.0,0.0,0.0,0.0,0.0,0.0,0.0,0.0,0.0,0.0,0.0,0.0,0.0,0.0,0.0,0.0,0.0,0.0,0.0,0.0,0.0,0.0,0.0,0.0,0.0,0.0,0.0,0.0,0.0,0.0,0.0,0.0,0.0,0.0,0.0,0.0,0.0,0.0,0.0,0.0,0.0,0.0,0.0,0.0,0.0,0.0,0.0,0.0,0.0,0.0,0.0,0.0,0.0,-2.2166,-2.2044,-2.1126,-2.0673,-2.0712,-2.0898,-2.1131,0.0,0.0,0.0,0.0,0.0,0.0,0.0,0.0,0.0,0.0,0.0,0.0,0.0,0.0,0.0,0.0,0.0,0.0,0.0,0.0,0.0,0.0,0.0,0.0,0.0,0.0,0.0,0.0,0.0,0.0,0.0,0.0,0.0,0.0,0.0,0.0,0.0,0.0,0.0,0.0,0.0,0.0,0.0,0.0,0.0,0.0,0.0,0.0,0.0,0.0,0.0,0.0,0.0,0.0,0.0,0.0,0.0,0.0,0.0,0.0,0.0,0.0,0.0,0.0,0.0,0.0,0.0,0.0,0.0,0.0,0.0,0.0,0.0,0.0,0.0,0.0,0.0,0.0,0.0,0.0,0.0,0.0,0.0,0.0,0.0,0.0,0.0,0.0,0.0,0.0,0.0,0.0,0.0,0.0,0.0,0.0,0.0,0.0,0.0,0.0,0.0,0.0,0.0,0.0,0.0,0.0,0.0,0.0,0.0,-2.2189,-2.1313,-2.0898,-2.0898,-2.0686,-2.0921,0.0,0.0,0.0,0.0,0.0,0.0,0.0,0.0,0.0,0.0,0.0,0.0,0.0,0.0,0.0,0.0,0.0,0.0,0.0,0.0,0.0,0.0,0.0,0.0,0.0,0.0,0.0,0.0,0.0,0.0,0.0,0.0,0.0,0.0,0.0,0.0,0.0,0.0,0.0,0.0,0.0,0.0,0.0,0.0,0.0,0.0,0.0,0.0,0.0,0.0,0.0,0.0,0.0,0.0,0.0,0.0,0.0,0.0,0.0,0.0,0.0,0.0,0.0,0.0,0.0,0.0,0.0,0.0,0.0,0.0,0.0,0.0,0.0,0.0,0.0,0.0,0.0,0.0,0.0,0.0,0.0,0.0,0.0,0.0,0.0,0.0,0.0,0.0,0.0,0.0,0.0,0.0,0.0,0.0,0.0,0.0,0.0,0.0,0.0,0.0,0.0,0.0,0.0,0.0,0.0,0.0,0.0,0.0,0.0,-2.2249,-2.1506,-2.1131,-2.1144,-2.0934,-2.1068,-2.1616,0.0,0.0,0.0,0.0,0.0,0.0,0.0,0.0,0.0,0.0,0.0,0.0,0.0,0.0,0.0,0.0,0.0,0.0,0.0,0.0,0.0,0.0,0.0,0.0,0.0,0.0,0.0,0.0,0.0,0.0,0.0,0.0,0.0,0.0,0.0,0.0,0.0,0.0,0.0,0.0,0.0,0.0,0.0,0.0,0.0,0.0,0.0,0.0,0.0,0.0,0.0,0.0,0.0,0.0,0.0,0.0,0.0,0.0,0.0,0.0,0.0,0.0,0.0,0.0,0.0,0.0,0.0,0.0,0.0,0.0,0.0,0.0,0.0,0.0,0.0,0.0,0.0,0.0,0.0,0.0,0.0,0.0,0.0,0.0,0.0,0.0,0.0,0.0,0.0,0.0,0.0,0.0,0.0,0.0,0.0,0.0,0.0,0.0,0.0,0.0,0.0,0.0,0.0,0.0,0.0,0.0,0.0,0.0,-2.2463,-2.1862,-2.1518,-2.138,-2.138,-2.1429,0.0,0.0,0.0,0.0,0.0,0.0,0.0,0.0,0.0,0.0,0.0,0.0,0.0,0.0,0.0,0.0,0.0,0.0,0.0,0.0,0.0,0.0,0.0,0.0,0.0,0.0,0.0,0.0,0.0,0.0,0.0,0.0,0.0,0.0,0.0,0.0,0.0,0.0,0.0,0.0,0.0,0.0,0.0,0.0,0.0,0.0,0.0,0.0,0.0,0.0,0.0,0.0,0.0,0.0,0.0,0.0,0.0,0.0,0.0,0.0,0.0,0.0,0.0,0.0,0.0,0.0,0.0,0.0,0.0,0.0,0.0,0.0,0.0,0.0,0.0,0.0,0.0,0.0,0.0,0.0,0.0,0.0,0.0,0.0,0.0,0.0,0.0,0.0,0.0,0.0,0.0,0.0,0.0,0.0,0.0,0.0,0.0,0.0,0.0,0.0,0.0,0.0,0.0,0.0,0.0,0.0,0.0,0.0,0.0,-2.4313,-2.3669,-2.2711,-2.1508,-2.116,-2.1563,0.0,0.0,0.0,0.0,0.0,0.0,0.0,0.0,0.0,0.0,0.0,0.0,0.0,0.0,0.0,0.0,0.0,0.0,0.0,0.0,0.0,0.0,0.0,0.0,0.0,0.0,0.0,0.0,0.0,0.0,0.0,0.0,0.0,0.0,0.0,0.0,0.0,0.0,0.0,0.0,0.0,0.0,0.0,0.0,0.0,0.0,0.0,0.0,0.0,0.0,0.0,0.0,0.0,0.0,0.0,0.0,0.0,0.0,0.0,0.0,0.0,0.0,0.0,0.0,0.0,0.0,0.0,0.0,0.0,0.0,0.0,0.0,0.0,0.0,0.0,0.0,0.0,0.0,0.0,0.0,0.0,0.0,0.0,0.0,0.0,0.0,0.0,0.0,0.0,0.0,0.0,0.0,0.0,0.0,0.0,0.0,0.0,0.0,0.0,0.0,0.0,0.0,0.0,0.0,0.0,0.0,0.0,0.0,-2.5527,-2.5183,-2.4699,-2.3904,-2.2697,-2.2035,-2.2115,0.0,0.0,0.0,0.0,0.0,0.0,0.0,0.0,0.0,0.0,0.0,0.0,0.0,0.0,0.0,0.0,0.0,0.0,0.0,0.0,0.0,0.0,0.0,0.0,0.0,0.0,0.0,0.0,0.0,0.0,0.0,0.0,0.0,0.0,0.0,0.0,0.0,0.0,0.0,0.0,0.0,0.0,0.0,0.0,0.0,0.0,0.0,0.0,0.0,0.0,0.0,0.0,0.0,0.0,0.0,0.0,0.0,0.0,0.0,0.0,0.0,0.0,0.0,0.0,0.0,0.0,0.0,0.0,0.0,0.0,0.0,0.0,0.0,0.0,0.0,0.0,0.0,0.0,0.0,0.0,0.0,0.0,0.0,0.0,0.0,0.0,0.0,0.0,0.0,0.0,0.0,0.0,0.0,0.0,0.0,0.0,0.0,0.0,0.0,0.0,0.0,0.0,0.0,0.0,0.0,0.0,0.0,0.0,-2.5939,-2.5691,-2.5449,-2.5056,-2.4502,-2.3514,-2.2937,0.0,0.0,0.0,0.0,0.0,0.0,0.0,0.0,0.0,0.0,0.0,0.0,0.0,0.0,0.0,0.0,0.0,0.0,0.0,0.0,0.0,0.0,0.0,0.0,0.0,0.0,0.0,0.0,0.0,0.0,0.0,0.0,0.0,0.0,0.0,0.0,0.0,0.0,0.0,0.0,0.0,0.0,0.0,0.0,0.0,0.0,0.0,0.0,0.0,0.0,0.0,0.0,0.0,0.0,0.0,0.0,0.0,0.0,0.0,0.0,0.0,0.0,0.0,0.0,0.0,0.0,0.0,0.0,0.0,0.0,0.0,0.0,0.0,0.0,0.0,0.0,0.0,0.0,0.0,0.0,0.0,0.0,0.0,0.0,0.0,0.0,0.0,0.0,0.0,0.0,0.0,0.0,0.0,0.0,0.0,0.0,0.0,0.0,0.0,0.0,0.0,0.0,0.0,0.0,0.0,0.0,0.0,0.0,-2.7739,-2.7363,-2.6924,-2.6462,-2.603,-2.4571,-2.3904,0.0,0.0,0.0,0.0,0.0,0.0,0.0,0.0,0.0,0.0,0.0,0.0,0.0,0.0,0.0,0.0,0.0,0.0,0.0,0.0,0.0,0.0,0.0,0.0,0.0,0.0,0.0,0.0,0.0,0.0,0.0,0.0,0.0,0.0,0.0,0.0,0.0,0.0,0.0,0.0,0.0,0.0,0.0,0.0,0.0,0.0,0.0,0.0,-1.9509,0.0,0.0,0.0,0.0,0.0,0.0,0.0,0.0,0.0,0.0,0.0,0.0,0.0,0.0,0.0,0.0,0.0,0.0,0.0,0.0,0.0,0.0,0.0,0.0,0.0,0.0,0.0,0.0,0.0,0.0,0.0,0.0,0.0,0.0,0.0,0.0,0.0,0.0,0.0,0.0,0.0,0.0,0.0,0.0,0.0,0.0,0.0,0.0,0.0,0.0,0.0,0.0,0.0,0.0,0.0,0.0,0.0,0.0,0.0,-2.8759,-2.8491,-2.8119,-2.7615,-2.6886,-2.5993,-2.5216,0.0,0.0,0.0,0.0,0.0,0.0,0.0,0.0,0.0,0.0,0.0,0.0,0.0,0.0,0.0,0.0,0.0,0.0,0.0,0.0,0.0,0.0,0.0,0.0,0.0,0.0,0.0,0.0,0.0,0.0,0.0,0.0,0.0,0.0,0.0,0.0,0.0,0.0,0.0,0.0,0.0,0.0,0.0,0.0,0.0,0.0,0.0,0.0,0.0,0.0,0.0,0.0,0.0,0.0,0.0,0.0,0.0,0.0,0.0,0.0,0.0,0.0,0.0,0.0,0.0,0.0,0.0,0.0,0.0,0.0,0.0,0.0,0.0,0.0,0.0,0.0,0.0,0.0,0.0,0.0,0.0,0.0,0.0,0.0,0.0,0.0,0.0,0.0,0.0,0.0,0.0,0.0,0.0,0.0,0.0,0.0,0.0,0.0,0.0,0.0,0.0,0.0,0.0,0.0,0.0,0.0,0.0,-2.9872,-2.9543,-2.9316,-2.9154,-2.8602,-2.7685,-2.7565,-2.6701,-2.5051,0.0,0.0,0.0,0.0,0.0,0.0,0.0,0.0,0.0,0.0,0.0,0.0,0.0,0.0,0.0,0.0,0.0,0.0,0.0,0.0,0.0,0.0,0.0,0.0,0.0,0.0,0.0,0.0,0.0,0.0,0.0,0.0,0.0,0.0,0.0,0.0,0.0,0.0,-0.5334,-0.7277,0.0,0.0,0.0,0.0,0.0,0.0,0.0,0.0,-2.2005,0.0,0.0,0.0,0.0,0.0,0.0,0.0,0.0,0.0,0.0,0.0,0.0,0.0,0.0,0.0,0.0,0.0,0.0,0.0,0.0,0.0,0.0,0.0,0.0,0.0,0.0,0.0,0.0,0.0,0.0,0.0,0.0,0.0,0.0,0.0,0.0,0.0,0.0,0.0,0.0,0.0,0.0,0.0,0.0,0.0,0.0,0.0,0.0,0.0,0.0,0.0,0.0,0.0,0.0,0.0,0.0,-3.1491,-3.1006,-3.0563,-3.0251,-2.9998,-2.964,-2.9184,-2.9273,-2.8634,-2.7095,0.0,0.0,0.0,0.0,0.0,0.0,0.0,0.0,0.0,0.0,0.0,0.0,0.0,0.0,0.0,0.0,0.0,0.0,0.0,0.0,0.0,0.0,0.0,0.0,0.0,0.0,0.0,0.0,0.0,0.0,0.0,0.0,0.0,0.0,0.0,0.0,0.0,0.0,0.0,-0.9691,-1.0873,0.0,0.0,0.0,0.0,0.0,0.0,0.0,0.0,-2.4304,0.0,0.0,0.0,0.0,0.0,0.0,0.0,0.0,0.0,0.0,0.0,0.0,0.0,0.0,0.0,0.0,0.0,0.0,0.0,0.0,0.0,0.0,0.0,0.0,0.0,0.0,0.0,0.0,0.0,0.0,0.0,0.0,0.0,0.0,0.0,0.0,0.0,0.0,0.0,0.0,0.0,0.0,0.0,0.0,0.0,0.0,0.0,0.0,0.0,0.0,0.0,0.0,0.0,0.0,0.0,-3.2809,-3.2509,-3.2133,-3.1732,-3.131,-3.0831,-3.0394,-3.0212,-2.975,0.0,0.0,0.0,0.0,0.0,0.0,0.0,0.0,0.0,0.0,0.0,0.0,0.0,0.0,0.0,0.0,0.0,0.0,0.0,0.0,0.0,0.0,0.0,0.0,0.0,0.0,0.0,0.0,0.0,0.0,0.0,0.0,0.0,0.0,0.0,0.0,0.0,0.0,0.0,0.0,-1.0267,-1.144,-1.3142,0.0,0.0,0.0,0.0,0.0,0.0,-2.2817,-2.4514,0.0,0.0,0.0,0.0,0.0,0.0,0.0,0.0,0.0,0.0,0.0,0.0,0.0,0.0,0.0,0.0,0.0,0.0,0.0,0.0,0.0,0.0,0.0,0.0,0.0,0.0,0.0,0.0,0.0,0.0,0.0,0.0,0.0,0.0,0.0,0.0,0.0,0.0,0.0,0.0,0.0,0.0,0.0,0.0,0.0,0.0,0.0,0.0,0.0,0.0,0.0,0.0,0.0,0.0,0.0,-3.3916,-3.3813,-3.3515,-3.3057,-3.2462,-3.1967,-3.1563,-3.1083,-3.0707,0.0,0.0,0.0,0.0,0.0,0.0,0.0,0.0,0.0,0.0,0.0,0.0,0.0,0.0,0.0,0.0,0.0,0.0,0.0,0.0,0.0,0.0,0.0,0.0,0.0,0.0,0.0,0.0,0.0,0.0,0.0,0.0,0.0,0.0,0.0,0.0,0.0,0.0,0.0,0.0,0.0,-1.1971,-1.4336,-1.5732,0.0,0.0,0.0,0.0,-2.124,-2.3131,0.0,0.0,0.0,0.0,0.0,0.0,0.0,0.0,0.0,0.0,0.0,0.0,0.0,0.0,0.0,0.0,0.0,0.0,0.0,0.0,0.0,0.0,0.0,0.0,0.0,0.0,0.0,0.0,0.0,0.0,0.0,0.0,0.0,0.0,0.0,0.0,0.0,0.0,0.0,0.0,0.0,0.0,0.0,0.0,0.0,0.0,0.0,0.0,0.0,0.0,0.0,0.0,0.0,0.0,0.0,0.0,-3.4351,-3.4248,-3.3968,-3.3524,-3.3139,-3.2886,-3.2692,-3.2347,-3.1805,0.0,0.0,0.0,0.0,0.0,0.0,0.0,0.0,0.0,0.0,0.0,0.0,0.0,0.0,0.0,0.0,0.0,0.0,0.0,0.0,0.0,0.0,0.0,0.0,0.0,0.0,0.0,0.0,0.0,0.0,0.0,0.0,0.0,0.0,0.0,0.0,0.0,0.0,0.0,0.0,0.0,-1.3388,-1.462,-1.5529,-1.676,0.0,0.0,-2.0283,-2.3032,-2.4425,0.0,0.0,0.0,0.0,0.0,0.0,0.0,0.0,0.0,0.0,0.0,0.0,0.0,0.0,0.0,0.0,0.0,0.0,0.0,0.0,0.0,0.0,0.0,0.0,0.0,0.0,0.0,0.0,0.0,0.0,0.0,0.0,0.0,0.0,0.0,0.0,0.0,0.0,0.0,0.0,0.0,0.0,0.0,0.0,0.0,0.0,0.0,0.0,0.0,0.0,0.0,0.0,0.0,0.0,0.0,-3.5526,-3.5154,-3.5295,-3.5094,-3.4492,-3.3966,-3.3484,-3.3099,-3.2647,-3.2216,0.0,0.0,0.0,0.0,0.0,0.0,0.0,0.0,0.0,0.0,0.0,0.0,0.0,0.0,0.0,0.0,0.0,0.0,0.0,0.0,0.0,0.0,0.0,0.0,0.0,0.0,0.0,0.0,0.0,0.0,0.0,0.0,0.0,0.0,0.0,0.0,0.0,0.0,0.0,0.0,0.0,0.0,-1.5709,-1.7002,0.0,0.0,0.0,-2.0623,-2.2563,0.0,0.0,0.0,0.0,0.0,0.0,0.0,0.0,0.0,0.0,0.0,0.0,0.0,0.0,0.0,0.0,0.0,0.0,0.0,0.0,0.0,0.0,0.0,0.0,0.0,0.0,0.0,0.0,0.0,0.0,0.0,0.0,0.0,0.0,0.0,0.0,0.0,0.0,0.0,0.0,0.0,0.0,0.0,0.0,0.0,0.0,0.0,0.0,0.0,0.0,0.0,0.0,0.0,0.0,0.0,0.0,0.0,-3.5859,-3.6025,-3.5827,-3.5299,-3.4496,-3.3853,-3.3319,-3.2695,0.0,0.0,0.0,0.0,0.0,0.0,0.0,0.0,0.0,0.0,0.0,0.0,0.0,0.0,0.0,0.0,0.0,0.0,0.0,0.0,0.0,0.0,0.0,0.0,0.0,0.0,0.0,-1.7248,0.0,0.0,0.0,0.0,0.0,0.0,0.0,0.0,0.0,0.0,0.0,0.0,0.0,0.0,-1.5169,-1.7075,-1.8177,-1.9245,0.0,0.0,-2.0951,-2.2424,-2.4181,-2.5487,0.0,0.0,0.0,0.0,0.0,0.0,0.0,0.0,0.0,0.0,0.0,0.0,0.0,0.0,0.0,0.0,0.0,0.0,0.0,0.0,0.0,0.0,0.0,0.0,0.0,0.0,0.0,0.0,0.0,0.0,0.0,0.0,0.0,0.0,0.0,0.0,0.0,0.0,0.0,0.0,0.0,0.0,0.0,0.0,0.0,0.0,0.0,0.0,0.0,0.0,0.0,0.0,0.0,0.0,-3.6706,-3.6274,-3.5968,-3.5739,-3.5577,-3.4431,-3.3748,-3.3642,-3.2819,-3.2398,0.0,0.0,0.0,0.0,0.0,0.0,0.0,0.0,0.0,0.0,0.0,0.0,0.0,0.0,0.0,0.0,0.0,0.0,0.0,0.0,0.0,0.0,0.0,0.0,0.0,0.0,0.0,0.0,0.0,0.0,0.0,0.0,0.0,0.0,0.0,0.0,0.0,0.0,0.0,0.0,0.0,-1.4964,-1.8505,-1.8311,-1.8903,0.0,-2.1028,-2.1044,-2.3806,-2.4826,-2.5627,-2.6496,0.0,0.0,0.0,0.0,0.0,0.0,0.0,0.0,0.0,0.0,0.0,0.0,0.0,0.0,0.0,0.0,0.0,0.0,0.0,0.0,0.0,0.0,0.0,0.0,0.0,0.0,0.0,0.0,0.0,0.0,0.0,0.0,0.0,0.0,0.0,0.0,0.0,0.0,0.0,0.0,0.0,0.0,0.0,0.0,0.0,0.0,0.0,0.0,0.0,0.0,0.0,0.0,0.0,-3.6851,-3.6544,-3.6062,-3.5571,-3.5081,-3.4268,-3.3594,-3.3203,-3.2687,-3.2398,0.0,0.0,0.0,0.0,0.0,0.0,0.0,0.0,0.0,0.0,0.0,0.0,0.0,0.0,0.0,0.0,0.0,0.0,0.0,0.0,0.0,0.0,0.0,0.0,0.0,0.0,0.0,0.0,-2.0468,-2.0142,-1.9535,0.0,0.0,0.0,0.0,0.0,0.0,0.0,0.0,0.0,0.0,-1.7557,-1.9025,-1.9474,0.0,0.0,-2.1231,-2.1278,-2.3265,-2.4047,-2.4696,-2.5499,-2.6976,0.0,0.0,0.0,0.0,0.0,0.0,0.0,0.0,0.0,0.0,0.0,0.0,0.0,0.0,0.0,0.0,0.0,0.0,0.0,0.0,0.0,0.0,0.0,0.0,0.0,0.0,0.0,0.0,0.0,0.0,0.0,0.0,0.0,0.0,0.0,0.0,0.0,0.0,0.0,0.0,0.0,0.0,0.0,0.0,0.0,0.0,0.0,0.0,0.0,0.0,0.0,0.0,-3.6908,-3.6719,-3.6002,-3.5391,-3.4941,-3.4185,-3.3559,-3.315,-3.2866,-3.2617,0.0,0.0,0.0,0.0,0.0,0.0,0.0,0.0,0.0,0.0,0.0,0.0,0.0,0.0,0.0,0.0,0.0,0.0,0.0,0.0,0.0,0.0,0.0,0.0,0.0,0.0,0.0,0.0,-2.1032,-2.0679,-1.9902,0.0,0.0,0.0,0.0,0.0,0.0,0.0,0.0,0.0,0.0,-1.914,-1.9778,-2.0275,-2.0867,-2.1415,-2.1011,-2.1078,-2.2585,-2.3305,-2.4024,-2.5063,0.0,0.0,0.0,0.0,0.0,0.0,0.0,0.0,0.0,0.0,0.0,0.0,0.0,0.0,0.0,0.0,0.0,0.0,0.0,0.0,0.0,0.0,0.0,0.0,0.0,0.0,0.0,-3.4008,0.0,0.0,-3.4955,0.0,0.0,0.0,0.0,0.0,0.0,0.0,0.0,0.0,0.0,0.0,0.0,0.0,0.0,0.0,0.0,0.0,0.0,0.0,0.0,0.0,0.0,-3.6908,-3.6702,-3.5722,-3.5224,-3.5178,-3.4234,-3.3694,-3.3642,-3.3398,-3.315,-3.2897,0.0,0.0,0.0,0.0,0.0,0.0,0.0,0.0,0.0,0.0,0.0,0.0,0.0,0.0,0.0,0.0,0.0,0.0,0.0,0.0,0.0,0.0,0.0,0.0,0.0,0.0,-2.1457,-2.1871,-2.1792,0.0,0.0,0.0,0.0,0.0,0.0,0.0,0.0,0.0,-1.8143,-1.8435,-1.9097,-2.1098,-2.0615,-2.0226,-2.0857,-2.0372,-2.0498,-2.2146,-2.2955,-2.4051,0.0,0.0,0.0,0.0,0.0,0.0,0.0,0.0,0.0,0.0,0.0,0.0,0.0,0.0,0.0,0.0,0.0,0.0,0.0,0.0,0.0,0.0,0.0,0.0,0.0,0.0,0.0,-3.4597,-3.4829,0.0,0.0,0.0,0.0,0.0,0.0,0.0,0.0,0.0,0.0,0.0,-3.7184,-3.7184,0.0,0.0,0.0,0.0,0.0,0.0,0.0,0.0,0.0,0.0,0.0,0.0,-3.7105,-3.6869,-3.5907,-3.5328,-3.5178,-3.4218,-3.3694,-3.3694,-3.345,-3.315,-3.2912,0.0,0.0,0.0,0.0,0.0,0.0,0.0,0.0,0.0,0.0,0.0,0.0,0.0,0.0,0.0,0.0,0.0,0.0,0.0,0.0,0.0,0.0,0.0,0.0,0.0,-2.2697,0.0,0.0,0.0,0.0,0.0,0.0,0.0,0.0,0.0,0.0,0.0,-1.8435,-1.9552,-2.0119,-2.0702,-2.1578,-2.1405,-2.1252,0.0,0.0,0.0,0.0,0.0,0.0,0.0,0.0,0.0,0.0,0.0,0.0,0.0,0.0,-3.3108,-3.3303,-3.4086,-3.469,-3.4706,0.0,0.0,0.0,0.0,0.0,0.0,0.0,0.0,0.0,0.0,0.0,0.0,0.0,0.0,-3.5364,-3.5614,-3.5632,0.0,0.0,0.0,0.0,0.0,0.0,0.0,0.0,-3.7345,-3.7577,-3.7577,-3.7577,-3.7577,-3.7577,-3.7577,-3.7577,0.0,0.0,0.0,0.0,0.0,0.0,0.0,0.0,-3.7126,-3.6794,-3.5916,-3.534,-3.4991,-3.4234,-3.3848,-3.3848,-3.3591,-3.3293,-3.3043,-3.2757,-3.2508,0.0,0.0,0.0,0.0,0.0,0.0,0.0,0.0,0.0,0.0,0.0,0.0,0.0,0.0,0.0,0.0,0.0,0.0,0.0,0.0,0.0,0.0,0.0,-2.2972,0.0,0.0,0.0,0.0,0.0,0.0,0.0,0.0,0.0,-1.8132,-1.9018,-2.006,-2.0382,-2.0944,-2.1512,-2.1655,0.0,0.0,0.0,0.0,0.0,0.0,0.0,-2.3316,-2.5288,-2.5975,-2.6938,-2.8961,-3.0315,-3.1219,-3.1467,0.0,0.0,-3.2602,-3.3355,-3.407,-3.4251,-3.4231,-3.4383,-3.5052,-3.4738,-3.4492,0.0,0.0,0.0,0.0,0.0,0.0,0.0,0.0,-3.5311,-3.5757,0.0,-3.6435,0.0,0.0,0.0,0.0,-3.7559,-3.7559,0.0,0.0,-3.7577,-3.7577,-3.7577,-3.7577,-3.7577,-3.7577,-3.7577,-3.7594,-3.7648,-3.763,0.0,0.0,0.0,0.0,0.0,0.0,-3.6992,-3.6392,-3.5786,-3.522,-3.4739,-3.43,-3.4101,-3.4101,-3.3848,-3.3555,-3.3293,-3.3058,-3.2773,-3.2453,-3.2398,0.0,0.0,0.0,0.0,0.0,0.0,0.0,0.0,0.0,0.0,0.0,0.0,0.0,0.0,0.0,0.0,0.0,0.0,0.0,0.0,-2.3463,0.0,0.0,0.0,0.0,0.0,0.0,0.0,0.0,0.0,0.0,-1.9756,-2.0129,-2.0672,-2.0896,0.0,0.0,0.0,0.0,-2.0944,-2.0944,-2.0382,-2.0518,-2.1876,-2.268,-2.3772,-2.5405,0.0,0.0,-3.0133,-3.0464,-3.0703,-3.1351,-3.1524,-3.1697,-3.2287,-3.2788,-3.3371,-3.3882,-3.402,-3.4284,-3.4723,-3.4802,-3.4897,-3.7316,0.0,0.0,0.0,0.0,-3.6987,-3.697,-3.6899,-3.6899,-3.7023,-3.7238,-3.7238,0.0,0.0,0.0,0.0,0.0,0.0,-3.7577,-3.7577,-3.7577,-3.7577,-3.7577,-3.7577,-3.7577,-3.7577,-3.7577,-3.7898,-3.8396,-3.8093,-3.8093,-3.8451,0.0,0.0,0.0,0.0,-3.6701,-3.6079,-3.5627,-3.5237,-3.4851,-3.4448,-3.4201,-3.4101,-3.3848,-3.3642,-3.3607,-3.315,-3.2843,-3.2773,-3.2523,0.0,0.0,0.0,0.0,0.0,0.0,0.0,0.0,0.0,0.0,0.0,0.0,0.0,0.0,0.0,0.0,0.0,0.0,0.0,-2.4264,-2.3891,-2.361,0.0,0.0,0.0,0.0,0.0,0.0,0.0,0.0,0.0,-2.1471,-2.1756,-2.1745,0.0,0.0,-2.1502,-2.1098,-2.1339,-2.1568,-2.1558,-2.1415,0.0,-2.3305,-2.3243,-2.3829,-2.622,-2.7497,-2.8519,-2.947,-3.0025,-3.0584,-3.1336,-3.1467,-3.1539,-3.1739,-3.2216,-3.2656,-3.2873,-3.3214,-3.3495,-3.3665,-3.3716,-3.3767,-3.7721,-3.788,-3.7846,-3.7757,-3.7667,-3.7667,-3.7631,-3.7577,-3.7577,-3.7577,-3.7577,-3.7577,-3.7577,-3.7577,-3.7577,0.0,0.0,0.0,-3.7577,-3.7577,-3.7577,-3.7755,-3.8041,-3.8076,-3.8219,-3.8504,-3.8504,-3.8754,-3.9236,-3.8929,-3.9009,-3.939,0.0,-3.8316,-3.8497,-3.8058,-3.7401,-3.6633,-3.6359,-3.6047,-3.563,-3.5315,-3.4966,-3.4538,-3.4368,-3.4085,-3.371,-3.3414,-3.3096,-3.2897,-3.2718,-3.2508,0.0,0.0,0.0,0.0,0.0,0.0,0.0,0.0,0.0,0.0,0.0,-2.8789,-2.8338,0.0,0.0,0.0,-2.7271,-2.6308,-2.5122,-2.4981,0.0,0.0,0.0,0.0,0.0,0.0,0.0,-2.3706,-2.3998,-2.3925,-2.3191,-2.3401,-2.2947,-2.1252,-2.1425,-2.1568,-2.1185,0.0,-2.1807,-2.1807,-2.2025,-2.2681,-2.3902,-2.3998,-2.4659,-2.6671,-2.7536,-2.8157,-2.8867,-2.9532,-3.0208,-3.0896,-3.1351,-3.1467,-3.1467,-3.1811,-3.2135,-3.2342,-3.2641,-3.2949,-3.3145,-3.3198,-3.3198,-3.7569,-3.79,-3.79,-3.7774,-3.7577,-3.7577,-3.7577,-3.7577,-3.7577,-3.7577,-3.7577,-3.7577,-3.7612,-3.7684,-3.7684,0.0,-3.7755,-3.7773,-3.7791,-3.7755,-3.7773,-3.8165,-3.8897,-3.8915,-3.9254,-3.9896,-3.9896,-3.995,-4.0003,-3.9964,-4.0157,-4.0531,-3.9736,-3.9266,-3.9196,-3.9126,-3.8614,-3.7564,-3.7564,-3.7303,-3.6727,-3.6587,-3.6104,-3.5299,-3.5266,-3.4823,-3.3874,-3.379,-3.3498,-3.3005,-3.2897,-3.2773,-3.2468,0.0,0.0,0.0,0.0,0.0,0.0,0.0,0.0,0.0,0.0,0.0,0.0,0.0,0.0,0.0,-2.7986,0.0,-2.6483,-2.6414,0.0,0.0,0.0,-2.3902,-2.3254,-2.3902,-2.4492,-2.448,0.0,0.0,-2.4719,-2.4719,-2.3913,-2.1502,-2.1436,-2.1578,-2.1502,-2.1655,-2.1807,-2.1807,-2.2402,-2.3202,-2.3975,-2.4779,-2.5721,-2.6726,-2.7146,-2.7577,-2.8417,-2.9016,-2.969,-3.051,-3.1087,-3.1467,-3.1467,-3.1524,-3.1697,-3.2231,-3.2342,-3.2492,-3.2879,-3.2986,-3.2933,-3.9435,-3.9493,-3.9417,-3.8702,-3.7594,-3.7577,-3.7577,-3.7577,-3.7577,-3.7577,-3.7577,-3.7577,-3.7916,-3.8522,-3.8504,-3.8826,-3.9361,-3.9361,-3.9361,-3.9361,-3.9361,-3.9468,-3.9646,-3.9646,-3.9753,-3.9896,-3.9896,-4.0217,-4.0766,-4.0483,-4.0831,-4.1724,-4.0901,-3.9957,-3.8982,-3.8406,-3.7821,-3.7236,-3.7236,-3.7035,-3.6675,-3.6571,-3.6348,-3.6044,-3.6044,-3.5687,-3.4856,-3.4615,-3.4217,-3.3534,-3.3112,-3.2858,-3.2788,-3.2523,0.0,0.0,0.0,0.0,0.0,0.0,0.0,0.0,0.0,-2.996,-2.9602,0.0,-2.954,0.0,-2.8648,-2.771,-2.6539,-2.6414,0.0,0.0,-2.5158,-2.4933,-2.4791,-2.4933,-2.5087,-2.5087,-2.4779,-2.4276,-2.3728,-2.3128,-2.2467,-2.1578,-2.2111,-2.2241,-2.1252,-2.1492,-2.1807,-2.1807,-2.2035,-2.2542,-2.3975,-2.5417,-2.644,-2.6602,-2.6739,-2.7297,-2.8634,-2.9002,-2.9566,-3.0911,-3.1351,-3.1467,-3.1467,-3.1467,-3.1524,-3.1697,-3.1697,-3.1739,-3.1894,-3.1936,-3.1951,-4.0083,-4.0027,-3.9914,-3.9414,-3.8629,-3.8629,-3.8629,-3.8611,-3.8611,-3.8629,-3.8611,-3.8629,-3.8879,-3.9289,-3.9307,-3.9521,-3.9896,-3.9896,-3.9896,-3.9896,-3.9896,-4.0092,-4.0431,-4.0449,-4.0628,-4.0967,-4.0985,-4.106,-4.1244,-4.1032,-4.1025,-4.1293,-4.0737,-4.0016,-3.911,-3.8857,-3.8505,-3.8063,-3.8063,-3.7959,-3.7748,-3.7572,-3.7302,-3.6848,-3.6756,-3.6416,-3.5704,-3.5513,-3.5214,-3.4638,-3.4086,-3.366,-3.3536,-3.2967,-3.2648,0.0,0.0,0.0,0.0,0.0,0.0,0.0,0.0,0.0,0.0,0.0,-2.9477,-2.9107,-2.9044,-2.8519,-2.7458,-2.7069,-2.6744,-2.6333,-2.5721,-2.5312,-2.5312,-2.5312,-2.5312,-2.5312,-2.4933,-2.4504,-2.4227,-2.3852,-2.3412,-2.2905,-2.3043,-2.2745,-2.1634,-2.1568,-2.1807,-2.1807,-2.2111,-2.2916,-2.442,-2.5721,-2.6589,-2.6589,-2.6645,-2.704,-2.7934,-2.8634,-2.9331,-3.0283,-3.0984,-3.1424,-3.1482,-3.1467,-3.1467,-3.1467,-3.1467,-3.1467,-3.1467,-3.1467,-3.1467,-4.0331,-4.0217,-4.0235,-4.0217,-4.0217,-4.0217,-4.011,-3.9896,-3.9896,-3.9896,-3.9896,-3.9896,-3.9968,-4.0057,-4.0057,-4.0128,-4.0217,-4.0217,-4.0217,-4.0217,-4.0217,-4.0574,-4.1252,-4.1212,-4.1569,-4.2269,-4.2246,-4.2019,-4.1622,-4.1534,-4.1065,-4.0235,-4.0053,-3.9782,-3.9415,-3.9731,-3.9731,-3.9342,-3.9288,-3.9218,-3.9023,-3.886,-3.8439,-3.7688,-3.7491,-3.7128,-3.6481,-3.6432,-3.626,-3.5883,-3.5268,-3.4739,-3.4343,-3.3536,-3.3045,0.0,-3.2648,0.0,0.0,0.0,0.0,0.0,0.0,0.0,0.0,-2.996,-2.9387,-2.8712,-2.9247,-2.9324,-2.8556,-2.7986,-2.755,-2.7351,-2.6195,-2.5441,-2.5312,-2.5312,-2.5312,-2.5312,-2.5312,-2.5312,-2.5158,-2.5312,-2.517,-2.436,-2.3683,-2.3021,-2.2166,-2.1883,-2.1731,-2.1807,-2.2542,-2.3632,-2.4945,-2.5955,-2.6533,-2.6658,-2.6645,-2.685,-2.7323,-2.8325,-2.9142,-2.967,-3.0598,-3.1278,-3.1467,-3.1482,-3.1467,-3.1482,-3.1482,-3.1467,-3.1467,-3.1467,-3.1467,-4.1882,-4.1841,-4.1823,-4.1841,-4.1841,-4.1841,-4.1092,-3.9914,-3.9896,-3.9896,-3.9896,-3.9896,-4.0271,-4.086,-4.0877,-4.1234,-4.1823,-4.1841,-4.1841,-4.1823,-4.1841,-4.1912,-4.2055,-4.1626,-4.1715,-4.2228,-4.1856,-4.1813,-4.2145,-4.1727,-4.1366,-4.1202,-4.04,-3.9952,-3.9868,0.0,0.0,0.0,-3.9288,-3.9202,-3.9023,-3.886,-3.8701,-3.8404,-3.8253,0.0,-3.7161,-3.7128,-3.6815,-3.6212,-3.5841,0.0,0.0,0.0,0.0,0.0,0.0,0.0,0.0,0.0,0.0,0.0,-3.1724,-3.1263,-3.0911,-3.0433,-2.9946,-2.9463,-2.954,-2.9324,-2.857,-2.8376,-2.7855,-2.6756,-2.6346,-2.5931,-2.537,-2.5312,-2.5312,-2.5312,-2.5312,-2.5087,-2.4731,-2.4636,-2.4504,-2.4105,-2.3327,-2.2883,-2.2874,-2.2143,-2.1665,-2.1883,-2.3001,-2.4215,-2.5158,-2.5955,-2.6533,-2.6521,-2.6658,-2.7162,-2.826,-2.8839,-2.967,-3.0598,-3.1161,-3.1292,-3.1336,-3.1351,-3.1366,-3.1366,-3.1439,-3.1467,-3.1467,-3.1482,-3.1467,-4.3447,-4.3429,-4.3429,-4.3429,0.0,-4.3429,-4.2983,-4.218,-4.1413,-4.1074,-4.1092,-4.1074,-4.1538,-4.2287,-4.2287,-4.2715,-4.3447,-4.3429,-4.3429,-4.3447,-4.3429,-4.3429,-4.3429,-4.3137,-4.3006,-4.3006,-4.2783,-4.2474,-4.2241,-4.2002,-4.1709,-4.1443,-4.0946,-4.0699,-4.0715,-4.0479,-3.9984,-3.9288,-3.9288,-3.9272,-3.9148,-3.8985,-3.886,-3.8711,-3.8544,0.0,0.0,0.0,0.0,0.0,0.0,0.0,0.0,-3.54,0.0,-3.4187,-3.3678,-3.3255,-3.2931,-3.2567,-3.2398,-3.2398,-3.2176,-3.1766,-3.1073,-3.0777,-3.0433,-3.0036,-2.996,-2.9699,-2.9107,-2.8712,-2.8233,-2.7524,-2.7136,-2.6676,-2.6,-2.5861,-2.5721,-2.5382,-2.5312,-2.5242,-2.5289,-2.5313,-2.5431,-2.5424,-2.4952,-2.4416,-2.4125,-2.2881,-2.2139,-2.2732,-2.4055,-2.5073,-2.5277,-2.5968,-2.6533,-2.6521,-2.6521,-2.7027,-2.8051,-2.8712,-2.9421,-3.0464,-3.0955,-3.1278,-3.1409,-3.1409,-3.1498,-3.1811,-3.1959,-3.2168,-3.2392,-3.2258,-3.2018,-4.4607,-4.4607,-4.4607,-4.4607,-4.4607,-4.4607,-4.4607,-4.4535,-4.3251,0.0,0.0,-4.2715,-4.3072,-4.3697,-4.3714,-4.4036,-4.4607,-4.4607,-4.4607,-4.4607,-4.4607,-4.4563,-4.4476,-4.437,-4.4082,-4.3663,-4.3568,-4.3111,-4.2359,-4.2252,-4.2001,-4.1577,-4.1465,-4.1425,-4.1425,-4.1425,-4.0829,-3.9702,-3.9591,-3.9524,-3.9454,-3.916,-3.8914,-3.8805,-3.8672,-3.856,-3.8391,-3.8391,-3.8391,-3.8375,-3.7841,-3.7452,-3.7307,-3.6522,-3.5879,-3.5419,-3.4619,-3.4011,-3.364,-3.3059,-3.2752,-3.2767,-3.2767,-3.2307,-3.1234,-3.1161,-3.0911,-3.0493,-3.0433,-3.0266,-2.9789,-2.917,-2.8748,-2.8492,-2.7986,-2.7443,-2.6883,-2.6622,-2.635,-2.5908,-2.572,-2.5757,-2.6251,-2.6469,-2.6773,-2.7077,-2.6653,-2.6329,-2.5549,-2.4037,-2.3211,-2.3963,-2.524,-2.6081,-2.6019,-2.6371,-2.6753,-2.6911,-2.6886,-2.7118,-2.7788,-2.8487,-2.9218,-3.0101,-3.085,-3.1397,-3.1603,-3.1752,-3.2004,-3.2527,-3.2691,-3.2841,-3.329,-3.317,-3.2856,-4.4624,-4.4607,-4.4607,-4.4607,-4.4607,-4.4607,-4.4607,-4.4607,-4.4375,-4.4285,-4.4285,-4.4285,-4.4339,-4.4464,-4.4464,-4.4535,-4.4607,-4.4607,-4.4607,-4.4607,-4.4607,-4.4343,-4.3898,-4.3419,-4.3175,-4.3111,-4.2672,-4.2603,-4.2809,-4.2428,-4.2146,-4.2055,-4.1633,-4.1442,-4.1425,-4.1425,-4.1326,-4.111,-4.0531,-4.0233,-4.0216,-3.9424,-3.8914,-3.8788,-3.8672,-3.8504,-3.8391,-3.8408,-3.8391,-3.8391,-3.8311,-3.797,-3.7355,-3.7171,-3.6557,-3.5498,-3.5228,-3.4939,-3.438,-3.4229,-3.4168,-3.4183,-3.4183,-3.3459,-3.1787,-3.161,-3.1379,-3.097,-3.0984,-3.0732,-3.0251,-3.0111,-2.9679,-2.8739,-2.8454,-2.8317,-2.8137,-2.7538,-2.7281,-2.7538,-2.7054,-2.6745,-2.6978,-2.7175,-2.7434,-2.7607,-2.7294,-2.674,-2.6286,-2.5161,-2.4636,-2.5213,-2.6118,-2.7004,-2.7395,-2.7713,-2.7783,-2.7871,-2.7965,-2.8305,-2.9053,-2.9542,-3.0065,-3.0623,-3.1439,-3.1885,-3.1989,-3.2553,-3.2958,-3.3166,-3.3304,-3.3378,-3.3526,-3.3826,-3.3978,-4.5891,-4.5909,-4.5909,-4.5909,-4.5909,-4.5891,-4.5909,-4.5909,-4.5909,-4.541,-4.4642,-4.4607,-4.4856,-4.5249,-4.5267,-4.5499,-4.5909,-4.562,-4.5602,-4.5864,-4.5288,-4.5032,-4.5067,-4.4539,-4.4113,-4.3831,-4.3579,-4.3415,-4.3288,-4.3042,-4.2946,-4.2929,-4.2717,-4.2601,-4.2618,-4.2618,-4.2618,-4.2585,-4.1508,-4.0945,-4.0945,-4.0178,-3.9688,-3.9489,-3.9089,-3.8727,-3.852,-3.8504,-3.8448,-3.8391,-3.8391,-3.8246,-3.7938,-3.7906,-3.7576,-3.6772,-3.6235,-3.576,-3.5295,-3.4793,-3.446,-3.446,-3.446,-3.4171,-3.3295,-3.3233,-3.3059,-3.2572,-3.2497,-3.2211,-3.1488,-3.1349,-3.1019,-3.0183,-3.0117,-2.9951,-2.9564,-2.9207,-2.8755,-2.8214,-2.7766,-2.7544,-2.746,-2.7724,-2.8098,-2.8396,-2.8062,-2.7747,-2.7581,-2.7088,-2.6651,-2.6729,-2.7436,-2.7916,-2.8111,-2.8109,-2.8109,-2.8109,-2.8533,-2.9188,-2.9984,-3.0491,-3.1112,-3.1809,-3.237,-3.2626,-3.2655,-3.3015,-3.3481,-3.3946,-3.3976,-3.4065,-3.4439,-3.4797,-3.4891,-4.6998,-4.6998,-4.6998,-4.6998,-4.6998,-4.6998,-4.6998,-4.6998,-4.698,-4.6284,-4.5249,-4.5142,-4.5499,-4.6052,-4.607,-4.6409,-4.688,-4.659,-4.659,-4.6888,-4.6084,-4.5852,-4.607,-4.558,-4.5018,-4.4541,-4.439,-4.4064,-4.3628,-4.3645,-4.3645,-4.3628,-4.3645,-4.3645,-4.3645,-4.3645,-4.3645,-4.3562,-4.2485,-4.1839,-4.1657,-4.0978,-4.0492,-4.0094,-3.9528,-3.904,-3.8632,-3.8632,-3.852,-3.8391,-3.8391,-3.8391,-3.8391,-3.8391,-3.8262,-3.7879,-3.7144,-3.6611,-3.6228,-3.5512,-3.5056,-3.5056,-3.4997,-3.4937,-3.4922,-3.4937,-3.4649,-3.409,-3.3924,-3.3486,-3.2601,-3.2362,-3.2148,-3.1603,-3.1485,-3.1285,-3.0911,-3.0733,-3.0221,-2.9163,-2.8864,-2.8624,-2.8369,-2.8491,-2.8793,-2.9049,-2.8949,-2.8791,-2.8791,-2.8791,-2.8585,-2.8382,-2.8709,-2.8913,-2.8561,-2.8524,-2.8549,-2.8486,-2.916,-2.9887,-3.0595,-3.133,-3.204,-3.2674,-3.317,-3.3369,-3.3446,-3.3764,-3.4188,-3.4622,-3.4711,-3.4925,-3.5507,-3.5642,-3.5718,-4.6998,-4.6998,-4.6998,-4.6998,-4.6998,-4.6998,-4.6998,-4.6998,-4.6998,-4.6944,-4.6694,-4.6766,-4.6766,-4.6873,-4.6855,-4.6908,-4.6998,-4.6934,-4.6934,-4.6934,-4.6888,-4.6637,-4.6119,-4.5528,-4.5001,-4.4446,-4.3964,-4.3687,-4.3628,-4.3645,-4.3645,-4.3645,-4.3645,-4.3645,-4.3645,-4.3645,-4.3645,-4.3645,-4.3495,-4.3098,-4.2419,-4.169,-4.0899,-4.0143,-4.0077,-3.9549,-3.8714,-3.8632,-3.852,-3.8391,-3.8391,-3.8391,-3.8391,-3.8391,-3.8262,-3.7943,-3.7806,-3.7616,-3.7247,-3.6948,-3.6689,-3.6751,-3.643,-3.623,-3.6245,-3.6261,-3.5768,-3.4816,-3.4463,-3.4076,-3.3099,-3.3018,-3.2664,-3.1839,-3.1678,-3.1696,-3.1983,-3.1557,-3.1243,-3.1726,-3.0903,-3.0452,-2.9834,-2.9706,-2.9616,-2.9394,-2.9443,-2.9534,-2.9534,-2.9534,-2.9521,-2.9524,-2.9691,-2.9654,-2.9528,-2.9616,-2.9478,-2.9605,-3.0213,-3.0745,-3.1189,-3.1778,-3.244,-3.3185,-3.3515,-3.3908,-3.4248,-3.4688,-3.5284,-3.5368,-3.5458,-3.5642,-3.6133,-3.6305,-3.6305,-4.6998,-4.6998,-4.6998,-4.6998,-4.6998,-4.6998,-4.6998,-4.6998,-4.6998,-4.6998,-4.6998,-4.6998,-4.6998,-4.6998,-4.6998,-4.6998,-4.698,-4.6684,-4.6525,-4.6429,-4.5852,-4.5372,-4.5142,-4.458,-4.4162,-4.3948,-4.373,-4.3645,-4.3645,-4.3645,-4.3645,-4.3645,-4.3645,-4.3645,-4.3645,-4.3645,-4.3645,-4.3645,-4.3645,-4.3479,-4.3148,-4.2452,-4.1865,-4.1526,-4.1057,-4.0384,-3.9558,-3.9324,-3.9016,-3.8553,-3.8448,-3.8391,-3.8391,-3.8391,-3.8335,-3.8205,-3.8017,-3.777,-3.7401,-3.7314,-3.715,-3.6999,-3.6877,-3.6693,-3.6492,-3.6492,-3.6215,-3.5799,-3.566,-3.5401,-3.4655,-3.4622,-3.4159,-3.3255,-3.3001,-3.3047,-3.289,-3.2639,-3.2384,-3.2132,-3.1783,-3.1341,-3.0657,-3.0304,-3.0024,-2.9754,-2.9702,-2.9779,-2.9779,-2.9779,-2.9779,-2.9779,-2.9779,-2.9779,-2.9792,-2.9779,-2.9779,-2.9998,-3.0859,-3.1621,-3.1918,-3.2848,-3.3677,-3.3958,-3.425,-3.4543,-3.4747,-3.5446,-3.6037,-3.6085,-3.643,-3.6723,-3.6951,-3.7011,-3.7071,-4.6998,-4.6998,-4.6998,-4.6998,-4.6998,-4.6998,-4.6998,-4.6998,-4.6998,-4.6998,-4.698,-4.6842,-4.6795,-4.6778,-4.6934,-4.6952,-4.6731,-4.6381,-4.607,-4.5852,-4.5054,-4.4763,-4.4652,-4.4121,-4.3831,-4.3848,-4.3671,-4.3645,-4.3645,-4.3645,-4.3645,-4.3645,-4.3645,-4.3645,-4.3645,-4.3645,-4.3645,-4.3645,-4.3645,-4.3645,-4.3562,-4.3098,-4.2734,-4.2444,-4.1849,-4.1181,-4.044,-3.996,-3.9463,-3.8942,-3.8578,-3.8391,-3.8391,-3.8391,-3.8391,-3.8391,-3.8148,-3.796,-3.7669,-3.7594,-3.7433,-3.7285,-3.7165,-3.6968,-3.6785,-3.6677,-3.6616,-3.6585,-3.6554,-3.6243,-3.5816,-3.5688,-3.5285,-3.4491,-3.4356,-3.4085,-3.3618,-3.3507,-3.3199,-3.2547,-3.2461,-3.216,-3.1415,-3.082,-3.0241,-3.0062,-2.9934,-2.9779,-2.9779,-2.9779,-2.9779,-2.9779,-2.9779,-2.9779,-2.9792,-3.0075,-3.0062,-3.0432,-3.1355,-3.242,-3.2621,-3.3659,-3.4467,-3.4332,-3.4714,-3.5088,-3.5389,-3.6024,-3.6616,-3.6723,-3.7071,-3.7488,-3.7589,-3.7648,-3.7879,-4.6998,-4.6998,-4.6998,-4.6998,-4.6998,-4.6998,-4.6998,-4.6998,-4.6998,-4.6998,-4.6952,-4.6477,-4.6235,-4.6301,-4.6731,-4.6684,-4.6284,-4.6168,-4.5852,-4.5372,-4.5267,-4.5267,-4.5214,-4.4691,-4.4446,-4.4293,-4.3848,-4.3645,-4.3645,-4.3645,-4.3645,-4.3645,-4.3645,-4.3645,-4.3645,-4.3645,-4.3645,-4.3645,-4.3645,-4.3645,-4.3628,-4.3578,-4.3214,-4.2576,-4.2343,-4.1922,-4.1181,-4.0238,-3.9691,-3.9667,-3.8894,-3.8424,-3.8391,-3.8391,-3.8391,-3.8391,-3.8391,-3.8335,-3.8278,-3.8033,-3.7828,-3.777,-3.7594,-3.7358,-3.7298,-3.715,-3.6984,-3.6938,-3.6677,-3.6336,-3.5879,-3.5816,-3.5544,-3.4957,-3.4876,-3.4624,-3.4153,-3.4031,-3.3839,-3.3368,-3.3227,-3.2931,-3.2362,-3.1267,-3.082,-3.0545,-3.0203,-2.9934,-3.0011,-2.9934,-2.9856,-2.9856,-2.9856,-2.9792,-2.9856,-3.0266,-3.0683,-3.1119,-3.1928,-3.3087,-3.3381,-3.3811,-3.4264,-3.475,-3.5001,-3.5365,-3.5943,-3.643,-3.689,-3.7191,-3.7488,-3.7838,-3.8238,-3.8294,-3.8463,-4.6998,-4.6998,-4.6998,-4.6998,-4.6998,-4.6998,-4.6998,-4.6998,-4.6998,-4.6998,-4.6888,-4.6447,-4.6186,-4.6204,-4.6003,-4.5784,-4.5631,-4.5631,-4.532,-4.4801,-4.4801,-4.4597,-4.4202,-4.4006,-4.3948,-4.3889,-4.373,-4.3645,-4.3645,-4.3645,-4.3645,-4.3645,-4.3645,-4.3645,-4.3645,-4.3645,-4.3645,-4.3645,-4.3645,-4.3645,-4.3645,-4.3645,-4.3479,-4.3188,-4.3053,-4.2723,-4.2022,-4.1409,-4.0694,-3.9895,-3.943,-3.8991,-3.8456,-3.8391,-3.8391,-3.8391,-3.8391,-3.8391,-3.8391,-3.8278,-3.8148,-3.7943,-3.8026,-3.7854,-3.7519,-3.7535,-3.7492,-3.7105,-3.7089,-3.6892,-3.66,-3.6352,-3.6022,-3.5559,-3.5415,-3.5219,-3.4758,-3.4438,-3.4196,-3.4005,-3.3813,-3.3437,-3.2903,-3.239,-3.2015,-3.1649,-3.1355,-3.122,-3.1158,-3.0859,-3.0482,-3.0419,-3.0139,-3.0011,-3.0495,-3.0683,-3.1031,-3.1696,-3.2506,-3.3073,-3.352,-3.4045,-3.4631,-3.4949,-3.5198,-3.58,-3.643,-3.7251,-3.7663,-3.8197,-3.8439,-3.8423,-3.8898,-3.8772,-3.8952,-4.7747,-4.7711,-4.7479,-4.739,-4.7354,-4.7087,-4.6998,-4.6998,-4.6998,-4.6998,-4.6888,-4.6429,-4.6186,-4.607,-4.5372,-4.5054,-4.5054,-4.5054,-4.4746,-4.4219,-4.4236,-4.4006,-4.3687,-4.3645,-4.3645,-4.3628,-4.3645,-4.3645,-4.3645,-4.3645,-4.3645,-4.3645,-4.3645,-4.3645,-4.3645,-4.3645,-4.3645,-4.3645,-4.3645,-4.3645,-4.3645,-4.3645,-4.3645,-4.3568,-4.3492,-4.3277,-4.2883,-4.2255,-4.1537,-4.0762,-4.005,-3.9308,-3.8505,-3.8391,-3.8391,-3.8391,-3.8391,-3.8391,-3.8391,-3.8391,-3.8278,-3.8091,-3.827,-3.8214,-3.7786,-3.796,-3.7786,-3.7449,-3.7314,-3.7314,-3.715,-3.6907,-3.6585,-3.6211,-3.6022,-3.5816,-3.5415,-3.5169,-3.4868,-3.4534,-3.4142,-3.373,-3.3409,-3.3129,-3.2818,-3.2519,-3.229,-3.2087,-3.2015,-3.1709,-3.1119,-3.097,-3.0771,-3.0859,-3.1281,-3.1636,-3.1915,-3.2492,-3.3017,-3.3451,-3.3811,-3.4332,-3.4817,-3.5148,-3.5703,-3.6305,-3.7071,-3.7953,-3.8606,-3.9164,-3.9164,-3.8969,-3.9202,-3.9272,-3.9272,-4.9246,-4.9103,-4.8496,-4.8175,-4.8068,-4.7408,-4.7033,-4.7087,-4.7015,-4.6998,-4.6934,-4.6429,-4.6186,-4.5988,-4.5125,-4.4597,-4.4652,-4.4597,-4.4276,-4.373,-4.3687,-4.3687,-4.3645,-4.3645,-4.3645,-4.3645,-4.3645,-4.3645,-4.3645,-4.3645,-4.3645,-4.3645,-4.3645,-4.3645,-4.3645,-4.3645,-4.3645,-4.3645,-4.3645,-4.3645,-4.3645,-4.3645,-4.3645,-4.3645,-4.3568,-4.3552,-4.3502,-4.2654,-4.214,-4.1979,-4.0721,-3.9357,-3.8675,-3.8424,-3.8408,-3.8391,-3.8391,-3.8408,-3.8391,-3.8391,-3.8391,-3.8335,-3.8391,-3.8448,-3.8278,-3.8132,-3.8001,-3.7828,-3.7594,-3.7417,-3.7417,-3.7358,-3.7254,-3.6999,-3.6662,-3.6399,-3.6258,-3.6196,-3.5879,-3.5023,-3.4452,-3.402,-3.3922,-3.3563,-3.3185,-3.3157,-3.2791,-3.2448,-3.2448,-3.229,-3.1769,-3.1402,-3.1415,-3.1649,-3.2146,-3.2648,-3.2932,-3.3297,-3.3756,-3.4196,-3.4264,-3.4631,-3.4949,-3.5329,-3.629,-3.6951,-3.7895,-3.8662,-3.8914,-3.9288,-3.9288,-3.9288,-3.9288,-3.9288,-3.9288,-4.9317,-4.9299,-4.9067,-4.896,-4.8853,-4.8122,-4.78,-4.7747,-4.7247,-4.6998,-4.6888,-4.6447,-4.6186,-4.602,-4.539,-4.5054,-4.5001,-4.4708,-4.4179,-4.3687,-4.3628,-4.3645,-4.3645,-4.3645,-4.3645,-4.3645,-4.3645,-4.3645,-4.3645,-4.3645,-4.3645,-4.3645,-4.3645,-4.3645,-4.3645,-4.3645,-4.3645,-4.3645,-4.3645,-4.3645,-4.3645,-4.3645,-4.3645,-4.3645,-4.3645,-4.3645,-4.3568,-4.3218,-4.2736,-4.2233,-4.1756,-4.0852,-3.9658,-3.8877,-3.852,-3.8408,-3.852,-3.852,-3.8408,-3.8391,-3.8408,-3.8448,-3.8655,-3.8672,-3.8504,-3.8544,-3.8399,-3.8059,-3.8017,-3.8033,-3.7828,-3.7754,-3.7594,-3.7314,-3.7194,-3.7074,-3.6997,-3.6799,-3.6228,-3.5464,-3.5088,-3.4773,-3.4399,-3.3991,-3.3977,-3.3962,-3.3756,-3.3604,-3.3534,-3.3087,-3.2847,-3.2563,-3.2577,-3.2376,-3.272,-3.3087,-3.3451,-3.3673,-3.4113,-3.4414,-3.4481,-3.475,-3.5001,-3.58,-3.6753,-3.7663,-3.8606,-3.9094,-3.9218,-3.9288,-3.9288,-3.9288,-3.9288,-3.9325,-3.9432,-5.0191,-5.0174,-4.987,-4.9763,-4.9674,-4.8925,-4.8425,-4.8139,-4.7658,-4.7283,-4.6987,-4.6637,-4.6477,-4.6381,-4.5903,-4.5631,-4.5546,-4.4855,-4.4293,-4.3889,-4.3671,-4.3628,-4.3645,-4.3645,-4.3645,-4.3645,-4.3645,-4.3645,-4.3645,-4.3645,-4.3645,-4.3645,-4.3645,-4.3645,-4.3645,-4.3645,-4.3645,-4.3645,-4.3645,-4.3645,-4.3645,-4.3645,-4.3645,-4.3645,-4.3645,-4.3645,-4.3568,-4.3492,-4.3234,-4.2686,-4.2466,-4.1535,-4.005,-3.9348,-3.8893,-3.8593,-3.856,-3.8504,-3.8544,-3.852,-3.8464,-3.8504,-3.8711,-3.8727,-3.8504,-3.8655,-3.8528,-3.8246,-3.8262,-3.8319,-3.8148,-3.8075,-3.8017,-3.7786,-3.7535,-3.7476,-3.746,-3.7282,-3.6906,-3.6275,-3.5976,-3.5464,-3.4971,-3.4787,-3.4654,-3.4467,-3.4414,-3.4414,-3.4264,-3.3962,-3.3659,-3.3437,-3.3297,-3.3157,-3.3157,-3.3451,-3.3825,-3.4045,-3.4346,-3.4414,-3.4481,-3.4735,-3.5052,-3.6322,-3.7413,-3.8067,-3.8952,-3.9148,-3.9288,-3.9288,-3.9288,-3.9288,-3.9325,-3.9556,-3.9644,-5.1672,-5.1601,-5.0869,-5.0584,-5.0459,-4.9727,-4.9049,-4.8443,-4.8093,-4.7683,-4.7212,-4.6895,-4.6888,-4.6842,-4.6315,-4.6137,-4.597,-4.4981,-4.4502,-4.4276,-4.3906,-4.3645,-4.3645,-4.3645,-4.3645,-4.3645,-4.3645,-4.3645,-4.3645,-4.3645,-4.3645,-4.3645,-4.3645,-4.3645,-4.3645,-4.3645,-4.3645,-4.3645,-4.3645,-4.3645,-4.3645,-4.3645,-4.3645,-4.3645,-4.3645,-4.3645,-4.3568,-4.3568,-4.3568,-4.3453,-4.2723,-4.165,-4.0402,-3.9854,-3.9397,-3.893,-3.8593,-3.8616,-3.8711,-3.8672,-3.8616,-3.8616,-3.8616,-3.856,-3.8504,-3.8504,-3.8488,-3.8391,-3.8448,-3.8448,-3.8391,-3.8391,-3.8335,-3.8278,-3.7902,-3.7711,-3.7812,-3.7637,-3.7401,-3.7222,-3.6768,-3.6197,-3.5514,-3.54,-3.5023,-3.4721,-3.4467,-3.4414,-3.4414,-3.4196,-3.3977,-3.3894,-3.3825,-3.3742,-3.3673,-3.3825,-3.4196,-3.4332,-3.4481,-3.4414,-3.4668,-3.5037,-3.5529,-3.6798,-3.7953,-3.8606,-3.9023,-3.9218,-3.9288,-3.9288,-3.9288,-3.9288,-3.9468,-3.9731,-3.9986,-5.169,-5.1672,-5.1458,-5.1387,-5.1262,-5.053,-5.0084,-4.9661,-4.8165,-4.77,-4.7589,-4.682,-4.6637,-4.6888,-4.6429,-4.6186,-4.587,-4.5035,-4.4502,-4.439,-4.3906,-4.3645,-4.3645,-4.3645,-4.3645,-4.3645,-4.3645,-4.3645,-4.3645,-4.3645,-4.3645,-4.3645,-4.3628,-4.3628,-4.3645,-4.3628,-4.3645,-4.3645,-4.3628,-4.3628,-4.3628,-4.3628,-4.3645,-4.3645,-4.3645,-4.3645,-4.3645,-4.3645,-4.3645,-4.3519,-4.2697,-4.2068,-4.1551,-4.059,-3.9877,-3.9558,-3.9083,-3.8805,-3.8805,-3.8766,-3.875,-3.875,-3.875,-3.8694,-3.8711,-3.8694,-3.8655,-3.8616,-3.86,-3.86,-3.8448,-3.8504,-3.8504,-3.8391,-3.8189,-3.8148,-3.8205,-3.8205,-3.796,-3.7476,-3.7222,-3.6845,-3.6259,-3.577,-3.54,-3.5088,-3.4787,-3.4414,-3.4414,-3.4414,-3.4196,-3.4264,-3.4196,-3.4182,-3.4182,-3.4264,-3.4414,-3.4549,-3.4549,-3.4467,-3.4905,-3.5578,-3.6322,-3.7279,-3.8311,-3.9094,-3.9148,-3.9288,-3.9288,-3.9288,-3.9288,-3.9325,-3.9679,-3.9952,-4.022,-5.169,-5.169,-5.169,-5.169,-5.1637,-5.1191,-5.0834,-5.0182,-4.8617,-4.7791,-4.7586,-4.6733,-4.6217,-4.6249,-4.6235,-4.602,-4.57,-4.4927,-4.4502,-4.439,-4.3906,-4.3628,-4.3645,-4.3645,-4.3645,-4.3645,-4.3645,-4.3645,-4.3645,-4.3645,-4.3645,-4.3687,-4.3848,-4.3948,-4.4006,-4.4219,-4.4299,-4.4316,-4.4105,-4.3948,-4.3948,-4.373,-4.3628,-4.3645,-4.3645,-4.3645,-4.3645,-4.3645,-4.3645,-4.3486,-4.3053,-4.2631,-4.2277,-4.1271,-4.0456,-4.0104,-3.938,-3.8914,-3.8969,-3.8914,-3.886,-3.8843,-3.8914,-3.886,-3.8805,-3.8805,-3.875,-3.8711,-3.875,-3.8694,-3.8639,-3.8711,-3.8821,-3.875,-3.8694,-3.8544,-3.8464,-3.8391,-3.8205,-3.796,-3.7786,-3.7594,-3.689,-3.6461,-3.5976,-3.5544,-3.5088,-3.4721,-3.4467,-3.4481,-3.4414,-3.4414,-3.4414,-3.4332,-3.4332,-3.4346,-3.4481,-3.4631,-3.475,-3.4601,-3.5335,-3.6072,-3.6783,-3.7632,-3.8662,-3.9288,-3.9288,-3.9288,-3.9288,-3.9288,-3.9288,-3.9379,-3.9679,-4.0086,-4.0351,-5.169,-5.169,-5.169,-5.169,-5.169,-5.1672,-5.1191,-5.0343,-4.9005,-4.8027,-4.7307,-4.6435,-4.5802,-4.5303,-4.57,-4.57,-4.5197,-4.4597,-4.439,-4.4162,-4.3848,-4.3645,-4.3645,-4.3645,-4.3645,-4.3645,-4.3645,-4.3645,-4.3645,-4.3645,-4.3687,-4.3831,-4.4276,-4.4502,-4.4597,-4.5018,-4.525,-4.5108,-4.4746,-4.4485,-4.4333,-4.4006,-4.3789,-4.3645,-4.3645,-4.3645,-4.3645,-4.3645,-4.3645,-4.3645,-4.3645,-4.3205,-4.2576,-4.1824,-4.113,-4.0508,-3.9699,-3.9221,-3.9235,-3.9094,-3.9023,-3.9023,-3.9023,-3.8969,-3.8914,-3.8914,-3.886,-3.8805,-3.886,-3.886,-3.8843,-3.9007,-3.9061,-3.9007,-3.8969,-3.8821,-3.856,-3.8391,-3.8391,-3.8391,-3.8408,-3.8091,-3.7711,-3.7342,-3.6982,-3.6212,-3.5706,-3.5285,-3.4971,-3.4787,-3.4601,-3.4414,-3.4414,-3.4414,-3.4414,-3.4414,-3.4481,-3.4631,-3.4883,-3.5052,-3.5897,-3.6615,-3.7263,-3.7994,-3.8788,-3.9218,-3.9288,-3.9288,-3.9288,-3.9288,-3.9288,-3.9325,-3.9468,-4.002,-4.04,-5.169,-5.169,-5.169,-5.169,-5.169,-5.1672,-5.1244,-5.0392,-4.9076,-4.7959,-4.7171,-4.6064,-4.5442,-4.5267,-4.5054,-4.4746,-4.4597,-4.4121,-4.3772,-4.3789,-4.3671,-4.3628,-4.3568,-4.3568,-4.3568,-4.3568,-4.3645,-4.3645,-4.3645,-4.3687,-4.3831,-4.4276,-4.4485,-4.4708,-4.5108,-4.5303,-4.5303,-4.525,-4.5214,-4.4964,-4.4597,-4.439,-4.4006,-4.3687,-4.3645,-4.3645,-4.3645,-4.3645,-4.3645,-4.3645,-4.3628,-4.3512,-4.3155,-4.2559,-4.1832,-4.1087,-4.0426,-3.9814,-3.9421,-3.9272,-3.9202,-3.9218,-3.9202,-3.9202,-3.9218,-3.9164,-3.9094,-3.9023,-3.9094,-3.9094,-3.8985,-3.8914,-3.8952,-3.9007,-3.8952,-3.8843,-3.8694,-3.8488,-3.8391,-3.8408,-3.8391,-3.8335,-3.8164,-3.7669,-3.7282,-3.6906,-3.6461,-3.5897,-3.5529,-3.5219,-3.5037,-3.4787,-3.4534,-3.4534,-3.4668,-3.4668,-3.4683,-3.4831,-3.5016,-3.5494,-3.6337,-3.6935,-3.7456,-3.8124,-3.8733,-3.904,-3.9288,-3.9288,-3.9288,-3.9288,-3.9325,-3.9468,-3.9696,-4.0103,-4.0577,-5.169,-5.169,-5.169,-5.169,-5.1637,-5.1298,-5.0905,-5.0218,-4.8652,-4.7729,-4.7068,-4.5892,-4.5161,-4.4892,-4.4597,-4.439,-4.4064,-4.3789,-4.3628,-4.3628,-4.3628,-4.3568,-4.3509,-4.3492,-4.3492,-4.3568,-4.3645,-4.3645,-4.3628,-4.3906,-4.4236,-4.4541,-4.4981,-4.5442,-4.5751,-4.5935,-4.6151,-4.6052,-4.5852,-4.5546,-4.5337,-4.4708,-4.4236,-4.3747,-4.3645,-4.3645,-4.3645,-4.3645,-4.3645,-4.3645,-4.3645,-4.3645,-4.3512,-4.2932,-4.2204,-4.1458,-4.0763,-4.005,-3.9487,-3.9288,-3.9288,-3.9288,-3.9288,-3.9288,-3.9288,-3.9288,-3.9272,-3.9202,-3.9202,-3.9218,-3.9164,-3.9255,-3.9185,-3.9239,-3.9115,-3.9061,-3.9023,-3.8766,-3.8504,-3.8464,-3.8448,-3.8391,-3.8221,-3.796,-3.7653,-3.7342,-3.7147,-3.6646,-3.6039,-3.5721,-3.5657,-3.5415,-3.4905,-3.4787,-3.4986,-3.5001,-3.4883,-3.503,-3.5228,-3.5879,-3.6707,-3.7175,-3.7605,-3.8327,-3.9023,-3.9094,-3.9288,-3.9288,-3.9342,-3.9325,-3.9362,-3.9592,-3.9868,-4.0302,-4.0814,-5.169,-5.164,-5.164,-5.1569,-5.1304,-5.0699,-5.0186,-4.959,-4.8091,-4.7138,-4.6689,-4.5614,-4.4855,-4.4446,-4.435,-4.4006,-4.373,-4.3568,-4.3568,-4.3568,-4.3568,-4.3509,-4.3449,-4.3372,-4.3432,-4.3568,-4.3568,-4.3568,-4.3747,-4.4179,-4.4502,-4.4763,-4.5615,-4.6087,-4.6381,-4.6684,-4.6842,-4.6778,-4.6477,-4.6052,-4.587,-4.5125,-4.458,-4.3964,-4.3628,-4.3645,-4.3645,-4.3645,-4.3645,-4.3645,-4.3645,-4.3645,-4.3479,-4.3065,-4.2353,-4.1657,-4.116,-4.0613,-4.0001,-3.9636,-3.952,-3.9437,-3.9305,-3.9288,-3.9288,-3.9288,-3.9272,-3.9272,-3.9288,-3.9288,-3.9325,-3.9362,-3.952,-3.9573,-3.9451,-3.9382,-3.9292,-3.8931,-3.8711,-3.8616,-3.8616,-3.856,-3.8504,-3.8375,-3.8075,-3.7786,-3.7653,-3.7385,-3.6768,-3.6399,-3.6322,-3.6024,-3.5529,-3.4905,-3.5052,-3.5198,-3.5148,-3.5329,-3.5474,-3.6243,-3.6995,-3.7472,-3.801,-3.8662,-3.9202,-3.9272,-3.9288,-3.9288,-3.9325,-3.9325,-3.9451,-3.9731,-4.007,-4.0449,-4.1047,-5.1538,-5.1333,-5.135,-5.0857,-5.0136,-5.0079,-4.9147,-4.7664,-4.7397,-4.6378,-4.5149,-4.4776,-4.4373,-4.3948,-4.373,-4.3671,-4.3568,-4.3432,-4.3449,-4.3449,-4.3432,-4.3372,-4.3312,-4.3235,-4.3251,-4.3372,-4.3432,-4.3509,-4.373,-4.4162,-4.4763,-4.5214,-4.5903,-4.6381,-4.6749,-4.6952,-4.698,-4.6934,-4.6795,-4.6411,-4.5852,-4.5649,-4.5178,-4.4333,-4.3831,-4.3628,-4.3645,-4.3645,-4.3645,-4.3645,-4.3645,-4.3645,-4.3595,-4.3446,-4.2982,-4.2386,-4.2054,-4.1558,-4.0912,-4.0448,-4.0266,-4.0067,-3.9769,-3.9421,-3.9371,-3.9388,-3.9553,-3.9454,-3.9404,-3.9375,-3.9288,-3.9412,-3.9379,-3.9379,-3.9379,-3.9325,-3.9255,-3.9094,-3.886,-3.8821,-3.8766,-3.8711,-3.8655,-3.8655,-3.8472,-3.8286,-3.823,-3.8026,-3.7589,-3.7294,-3.7219,-3.6737,-3.6134,-3.5529,-3.5052,-3.5198,-3.5329,-3.5623,-3.5943,-3.6616,-3.731,-3.7822,-3.8407,-3.8952,-3.9272,-3.9272,-3.9288,-3.9288,-3.9288,-3.9325,-3.9556,-3.9868,-4.0252,-4.0625,-4.1185,-5.0026,-4.9871,-4.9889,-4.9608,-4.9169,-4.8968,-4.8352,-4.7412,-4.6906,-4.6252,-4.5441,-4.4763,-4.4259,-4.3931,-4.3611,-4.3449,-4.3372,-4.3295,-4.3251,-4.3251,-4.3235,-4.319,-4.319,-4.3113,-4.3174,-4.3235,-4.3312,-4.3449,-4.3611,-4.4468,-4.5001,-4.5407,-4.6151,-4.6731,-4.6934,-4.6998,-4.6934,-4.6888,-4.6906,-4.6684,-4.5953,-4.5953,-4.5232,-4.4597,-4.3948,-4.3628,-4.3645,-4.3645,-4.3645,-4.3645,-4.3645,-4.3645,-4.3645,-4.3562,-4.3297,-4.2717,-4.2551,-4.222,-4.1591,-4.1061,-4.0928,-4.0895,-4.0531,-4.0415,-4.0382,-4.0431,-4.0315,-4.0282,-3.9951,-3.9835,-3.9868,-3.9591,-3.9358,-3.9288,-3.9305,-3.9305,-3.9272,-3.9218,-3.9094,-3.8985,-3.8876,-3.8821,-3.875,-3.875,-3.8805,-3.8805,-3.8805,-3.8606,-3.8311,-3.8124,-3.7937,-3.7573,-3.698,-3.6446,-3.5897,-3.58,-3.5879,-3.6117,-3.6461,-3.7131,-3.7605,-3.8108,-3.859,-3.9094,-3.9218,-3.9288,-3.9288,-3.9288,-3.9288,-3.9342,-3.952,-3.9731,-4.0302,-4.0814,-4.1366,-4.8556,-4.8504,-4.8487,-4.8364,-4.8171,-4.7879,-4.7442,-4.7029,-4.6484,-4.5955,-4.5546,-4.4801,-4.4259,-4.3956,-4.3519,-4.3207,-4.3113,-4.3113,-4.3068,-4.3068,-4.3113,-4.3068,-4.3007,-4.3007,-4.3113,-4.3235,-4.3251,-4.3432,-4.3873,-4.4729,-4.525,-4.5734,-4.6572,-4.6998,-4.6998,-4.6998,-4.6842,-4.6842,-4.686,-4.6888,-4.6525,-4.5784,-4.5091,-4.4652,-4.4105,-4.3747,-4.3628,-4.3645,-4.3645,-4.3645,-4.3645,-4.3645,-4.3645,-4.3645,-4.3363,-4.2866,-4.275,-4.2402,-4.2071,-4.169,-4.164,-4.164,-4.1475,-4.1409,-4.1342,-4.1193,-4.1293,-4.1309,-4.0961,-4.058,-4.0498,-4.0083,-3.9752,-3.9537,-3.9553,-3.9508,-3.9338,-3.9272,-3.9272,-3.9164,-3.8985,-3.8985,-3.8985,-3.8969,-3.904,-3.904,-3.904,-3.904,-3.8733,-3.8606,-3.8423,-3.8254,-3.7895,-3.7413,-3.6995,-3.6646,-3.6707,-3.6829,-3.7175,-3.7706,-3.8051,-3.8407,-3.8843,-3.9218,-3.9272,-3.9288,-3.9288,-3.9288,-3.9288,-3.9325,-3.9362,-3.9644,-4.0153,-4.0844,-4.1543,-4.8435,-4.8154,-4.8136,-4.7628,-4.6966,-4.7192,-4.6378,-4.5223,-4.5871,-4.5267,-4.4333,-4.4186,-4.403,-4.3519,-4.3129,-4.3007,-4.3007,-4.2945,-4.2945,-4.2945,-4.299,-4.3052,-4.3052,-4.2961,-4.3068,-4.3235,-4.3174,-4.3638,-4.4259,-4.5001,-4.558,-4.607,-4.6572,-4.6998,-4.6998,-4.6998,-4.6998,-4.6934,-4.698,-4.698,-4.6778,-4.5885,-4.5303,-4.5054,-4.4597,-4.4064,-4.3687,-4.3645,-4.3645,-4.3645,-4.3645,-4.3645,-4.3645,-4.3645,-4.3611,-4.3529,-4.3495,-4.3446,-4.3131,-4.27,-4.2386,-4.2286,-4.1939,-4.1541,-4.1657,-4.169,-4.1674,-4.1425,-4.1326,-4.1309,-4.1293,-4.1143,-4.0812,-4.0481,-4.0233,-3.9885,-3.9587,-3.957,-3.9537,-3.9288,-3.9164,-3.9164,-3.9218,-3.9218,-3.9272,-3.9272,-3.9218,-3.9218,-3.9148,-3.8969,-3.8843,-3.8662,-3.8367,-3.7937,-3.7838,-3.7546,-3.7546,-3.7605,-3.7953,-3.8222,-3.8463,-3.8772,-3.9023,-3.9272,-3.9288,-3.9288,-3.9288,-3.9288,-3.9288,-3.9325,-3.9415,-3.9644,-3.9969,-4.075,-4.163,-4.6725,-4.655,-4.6567,-4.6341,-4.6011,-4.629,-4.603,-4.5459,-4.558,-4.5319,-4.4669,-4.4373,-4.403,-4.3476,-4.299,-4.2759,-4.2821,-4.2759,-4.2837,-4.2837,-4.2883,-4.2883,-4.299,-4.3007,-4.3113,-4.3227,-4.3372,-4.3914,-4.4635,-4.5213,-4.558,-4.6235,-4.6684,-4.6998,-4.6998,-4.6998,-4.6888,-4.6795,-4.6795,-4.6824,-4.6684,-4.5985,-4.5303,-4.525,-4.4468,-4.3931,-4.3671,-4.3645,-4.3645,-4.3645,-4.3645,-4.3645,-4.3645,-4.3645,-4.3628,-4.3628,-4.3628,-4.3611,-4.3545,-4.328,-4.3148,-4.3115,-4.2816,-4.275,-4.2667,-4.2601,-4.2618,-4.27,-4.227,-4.2071,-4.1922,-4.164,-4.1326,-4.1061,-4.0978,-4.0514,-4.0133,-3.9967,-3.9868,-3.957,-3.9288,-3.9288,-3.9288,-3.9288,-3.9272,-3.9272,-3.9288,-3.9272,-3.9272,-3.9218,-3.9094,-3.9007,-3.8645,-3.8351,-3.8367,-3.8311,-3.8311,-3.8423,-3.8623,-3.8843,-3.8898,-3.9148,-3.9272,-3.9288,-3.9288,-3.9288,-3.9288,-3.9288,-3.9288,-3.9379,-3.9451,-3.9782,-4.0153,-4.0685,-4.1508,-4.5441,-4.5441,-4.5441,-4.5441,-4.5423,-4.5718,-4.5701,-4.558,-4.5649,-4.5424,-4.5052,-4.4485,-4.3931,-4.3399,-4.2867,-4.2634,-4.2634,-4.2571,-4.2713,-4.2775,-4.2791,-4.2905,-4.3176,-4.3333,-4.3493,-4.3637,-4.4113,-4.4825,-4.5521,-4.5924,-4.6222,-4.6434,-4.6795,-4.6998,-4.6998,-4.6998,-4.6888,-4.6795,-4.6749,-4.6842,-4.6795,-4.6035,-4.5563,-4.5037,-4.4412,-4.373,-4.3628,-4.3645,-4.3645,-4.3645,-4.3645,-4.3645,-4.3645,-4.3645,-4.3645,-4.3645,-4.3645,-4.3645,-4.3645,-4.3562,-4.3628,-4.3645,-4.3645,-4.3413,-4.3495,-4.3645,-4.3628,-4.3446,-4.3115,-4.2833,-4.27,-4.2303,-4.2038,-4.1856,-4.1674,-4.121,-4.0796,-4.0531,-4.0233,-3.9901,-3.9587,-3.9288,-3.9288,-3.9288,-3.9288,-3.9288,-3.9288,-3.9288,-3.9342,-3.9342,-3.9272,-3.9131,-3.9007,-3.8772,-3.8788,-3.8914,-3.9023,-3.9077,-3.9218,-3.9272,-3.9202,-3.9202,-3.9272,-3.9288,-3.9342,-3.9288,-3.9288,-3.9288,-3.9342,-3.9415,-3.9556,-3.9969,-4.0366,-4.092,-4.1534,-4.5441,-4.5441,-4.5441,-4.5441,-4.5423,-4.5684,-4.5529,-4.5247,-4.5837,-4.5511,-4.4708,-4.3972,-4.3459,-4.2929,-4.2867,-4.2696,-4.2571,-4.2571,-4.2696,-4.2696,-4.2808,-4.326,-4.3616,-4.4019,-4.447,-4.5227,-4.5301,-4.5967,-4.6987,-4.6845,-4.6985,-4.7009,-4.7222,-4.7112,-4.7033,-4.7023,-4.6998,-4.6888,-4.6888,-4.6934,-4.6842,-4.6315,-4.5802,-4.5267,-4.4746,-4.4179,-4.3628,-4.3645,-4.3645,-4.3645,-4.3645,-4.3645,-4.3645,-4.3645,-4.3645,-4.3645,-4.3645,-4.3645,-4.3645,-4.3645,-4.3645,-4.3645,-4.3645,-4.3645,-4.3645,-4.3645,-4.3645,-4.3645,-4.3413,-4.3446,-4.3446,-4.3413,-4.2866,-4.2618,-4.2353,-4.2005,-4.1508,-4.0961,-4.0647,-4.0249,-3.9934,-3.9653,-3.9388,-3.9404,-3.9288,-3.9288,-3.9288,-3.9288,-3.9325,-3.9325,-3.9325,-3.9255,-3.9255,-3.9202,-3.9218,-3.9218,-3.9202,-3.9202,-3.9325,-3.9325,-3.9325,-3.9325,-3.9379,-3.9342,-3.9325,-3.9342,-3.9325,-3.9415,-3.9451,-3.9451,-3.9696,-4.0136,-4.078,-4.1446,-4.2021,-4.5441,-4.5441,-4.5441,-4.5441,-4.5441,-4.5511,-4.5406,-4.53,-4.5563,-4.5494,-4.4961,-4.4485,-4.3972,-4.3562,-4.3399,-4.3096,-4.268,-4.2896,-4.2867,-4.3016,-4.3214,-4.3651,-4.4072,-4.4685,-4.522,-4.5483,-4.5643,-4.6118,-4.6833,-4.7284,-4.7642,-4.7662,-4.7894,-4.767,-4.7536,-4.7237,-4.7051,-4.6998,-4.6998,-4.6998,-4.6824,-4.6102,-4.5511,-4.5303,-4.4316,-4.3906,-4.3628,-4.3645,-4.3645,-4.3645,-4.3645,-4.3645,-4.3645,-4.3645,-4.3645,-4.3645,-4.3645,-4.3645,-4.3645,-4.3645,-4.3645,-4.3645,-4.3645,-4.3645,-4.3645,-4.3645,-4.3645,-4.3645,-4.3645,-4.3645,-4.3628,-4.3595,-4.3413,-4.3264,-4.3015,-4.2684,-4.2253,-4.1674,-4.1293,-4.0994,-4.0514,-4.0083,-3.9802,-3.9607,-3.9404,-3.9288,-3.9288,-3.9342,-3.9379,-3.9379,-3.9379,-3.9379,-3.9379,-3.9379,-3.9395,-3.9325,-3.9325,-3.9379,-3.9432,-3.9432,-3.9432,-3.952,-3.9573,-3.9484,-3.9415,-3.9573,-3.9609,-3.9644,-3.9644,-3.954,-3.9919,-4.0463,-4.1133,-4.1937,-4.2382,-4.4961,-4.4961,-4.4978,-4.514,-4.5371,-4.5441,-4.5318,-4.5247,-4.5353,-4.5318,-4.5177,-4.4835,-4.4356,-4.3956,-4.3722,-4.3323,-4.2789,-4.2851,-4.3052,-4.3173,-4.3455,-4.3976,-4.4607,-4.5226,-4.5766,-4.5702,-4.6284,-4.696,-4.7615,-4.7556,-4.8225,-4.8777,-4.8888,-4.8609,-4.8077,-4.7607,-4.7247,-4.7051,-4.6998,-4.6888,-4.6684,-4.5885,-4.5161,-4.4947,-4.4105,-4.3747,-4.3645,-4.3645,-4.3645,-4.3645,-4.3645,-4.3645,-4.3645,-4.3645,-4.3645,-4.3645,-4.3645,-4.3645,-4.3645,-4.3645,-4.3645,-4.3645,-4.3645,-4.3645,-4.3645,-4.3645,-4.3645,-4.3645,-4.3645,-4.3645,-4.3645,-4.3628,-4.3628,-4.3446,-4.3462,-4.3181,-4.2883,-4.2419,-4.2088,-4.1773,-4.121,-4.0597,-4.0072,-3.9757,-3.9511,-3.9379,-3.9395,-3.9432,-3.9484,-3.9484,-3.9484,-3.9484,-3.9501,-3.9448,-3.9448,-3.9484,-3.952,-3.952,-3.9573,-3.959,-3.9573,-3.9764,-3.9901,-3.9885,-3.9885,-3.9885,-4.002,-4.0285,-4.0003,-3.9644,-4.0285,-4.1076,-4.1656,-4.2378,-4.2577,-4.4071,-4.403,-4.4088,-4.4614,-4.5318,-4.5371,-4.5123,-4.478,-4.5069,-4.5069,-4.4763,-4.4652,-4.4169,-4.3529,-4.3545,-4.3246,-4.2789,-4.2789,-4.2974,-4.3321,-4.3842,-4.4493,-4.5194,-4.5881,-4.6553,-4.7523,-4.7766,-4.8061,-4.8863,-4.8873,-4.9423,-4.978,-4.9708,-4.9497,-4.8912,-4.8372,-4.7765,-4.714,-4.7069,-4.6749,-4.6284,-4.5631,-4.5108,-4.4597,-4.3989,-4.3628,-4.3645,-4.3645,-4.3645,-4.3645,-4.3645,-4.3645,-4.3645,-4.3645,-4.3645,-4.3645,-4.3645,-4.3645,-4.3645,-4.3645,-4.3645,-4.3645,-4.3645,-4.3645,-4.3645,-4.3645,-4.3645,-4.3645,-4.3645,-4.3645,-4.3645,-4.3645,-4.3645,-4.3645,-4.3645,-4.3578,-4.3247,-4.3081,-4.2717,-4.2452,-4.1806,-4.1127,-4.0453,-3.9927,-3.9651,-3.9484,-3.9484,-3.9537,-3.959,-3.9642,-3.9642,-3.9729,-3.9729,-3.985,-3.985,-3.9764,-3.9729,-3.9729,-3.985,-3.9986,-4.012,-4.0302,-4.04,-4.0383,-4.0431,-4.0511,-4.0733,-4.0949,-4.0733,-4.0655,-4.1139,-4.1796,-4.2374,-4.2709,-4.2824,-4.4186,-4.4412,-4.4145,-4.4373,-4.4835,-4.4614,-4.4373,-4.4259,-4.4446,-4.4541,-4.4597,-4.4429,-4.3898,-4.3604,-4.3781,-4.3604,-4.2912,-4.3781,-4.4013,-4.3394,-4.4276,-4.5197,-4.592,-4.6569,-4.7209,-4.7622,-4.7951,-4.8242,-4.8601,-4.8995,-4.9471,-4.9842,-5.0137,-5.0115,-4.9361,-4.8706,-4.7961,-4.7711,-4.7308,-4.6749,-4.6186,-4.558,-4.5001,-4.4485,-4.3889,-4.3628,-4.3645,-4.3645,-4.3645,-4.3645,-4.3645,-4.3645,-4.3645,-4.3645,-4.3645,-4.3645,-4.3645,-4.3645,-4.3645,-4.3645,-4.3645,-4.3645,-4.3645,-4.3645,-4.3645,-4.3645,-4.3645,-4.3645,-4.3645,-4.3645,-4.3645,-4.3645,-4.3645,-4.3645,-4.3645,-4.3645,-4.3479,-4.3429,-4.3247,-4.3048,-4.2585,-4.1581,-4.079,-4.0234,-3.989,-3.9711,-3.9694,-3.9625,-3.9729,-3.9833,-3.9884,-4.002,-4.0104,-4.0252,-4.0351,-4.0269,-4.0319,-4.0417,-4.0625,-4.0844,-4.0938,-4.0891,-4.0938,-4.0967,-4.1059,-4.1196,-4.1375,-4.1508,-4.1717,-4.1881,-4.2026,-4.2169,-4.2512,-4.2727,-4.2804,-4.368,-4.3956,-4.3621,-4.3663,-4.3956,-4.3956,-4.403,-4.3972,-4.3839,-4.4013,-4.4316,-4.4071,-4.3839,-4.3781,-4.3839,-4.4071,-4.3157,-4.3562,-4.4202,-4.3657,-4.4667,-4.5474,-4.6258,-4.701,-4.7307,-4.7638,-4.7704,-4.7934,-4.8177,-4.8433,-4.8889,-4.953,-5.0097,-4.986,-4.9375,-4.8766,-4.7957,-4.7452,-4.6674,-4.607,-4.5546,-4.5125,-4.4691,-4.4219,-4.3848,-4.3645,-4.3645,-4.3645,-4.3645,-4.3645,-4.3645,-4.3645,-4.3645,-4.3645,-4.3645,-4.3645,-4.3645,-4.3645,-4.3645,-4.3645,-4.3645,-4.3645,-4.3645,-4.3645,-4.3645,-4.3645,-4.3645,-4.3645,-4.3645,-4.3645,-4.3645,-4.3645,-4.3645,-4.3645,-4.3645,-4.3645,-4.3628,-4.3562,-4.3545,-4.338,-4.3131,-4.2095,-4.125,-4.0625,-4.0182,-3.9999,-3.9884,-3.9833,-3.9816,-3.9918,-4.0138,-4.0303,-4.0368,-4.0546,-4.072,-4.0814,-4.0926,-4.1111,-4.1276,-4.1481,-4.1481,-4.1393,-4.1464,-4.1595,-4.1828,-4.1955,-4.1913,-4.2015,-4.2216,-4.2315,-4.2374,-4.2512,-4.2688,-4.2765,-4.2804,-4.2618,-4.2618,-4.2618,-4.2696,-4.2805,-4.3562,-4.3914,-4.3914,-4.3486,-4.3545,-4.3972,-4.3914,-4.3739,-4.3781,-4.3545,-4.3502,-4.368,-4.3157,-4.3383,-4.3866,-4.4519,-4.5338,-4.6066,-4.6602,-4.7159,-4.7522,-4.7704,-4.7704,-4.782,-4.8403,-4.8861,-4.9107,-4.9496,-4.9478,-4.9177,-4.8474,-4.7718,-4.7004,-4.6118,-4.5476,-4.4927,-4.4652,-4.4333,-4.3906,-4.3628,-4.3645,-4.3645,-4.3645,-4.3645,-4.3645,-4.3645,-4.3645,-4.3645,-4.3645,-4.3645,-4.3645,-4.3645,-4.3645,-4.3645,-4.3645,-4.3645,-4.3645,-4.3645,-4.3645,-4.3645,-4.3645,-4.3645,-4.3645,-4.3645,-4.3645,-4.3645,-4.3645,-4.3645,-4.3645,-4.3645,-4.3645,-4.3645,-4.3628,-4.3628,-4.3529,-4.3396,-4.2709,-4.1883,-4.1247,-4.0503,-4.0338,-4.0205,-3.9986,-4.002,-4.0121,-4.032,-4.0628,-4.0707,-4.0784,-4.1001,-4.1321,-4.1525,-4.1717,-4.176,-4.1871,-4.1828,-4.1931,-4.2056,-4.2221,-4.2577,-4.2673,-4.2458,-4.2476,-4.267,-4.2727,-4.2631,-4.2649,-4.2745,-4.2783,-4.2822,-4.2789,-4.308,-4.2743,-4.2789,-4.308,-4.3035,-4.3202,-4.3443,-4.3035,-4.3096,-4.3486,-4.3157,-4.3157,-4.2974,-4.3202,-4.3141,-4.3279,-4.3339,-4.3443,-4.3812,-4.4191,-4.5185,-4.5835,-4.6241,-4.6814,-4.7273,-4.7538,-4.7504,-4.7951,-4.853,-4.8951,-4.9299,-4.9239,-4.9161,-4.866,-4.7841,-4.7369,-4.6708,-4.5728,-4.4992,-4.4541,-4.4446,-4.4064,-4.3747,-4.3645,-4.3645,-4.3645,-4.3645,-4.3645,-4.3645,-4.3645,-4.3645,-4.3645,-4.3645,-4.3645,-4.3645,-4.3645,-4.3645,-4.3645,-4.3645,-4.3645,-4.3645,-4.3645,-4.3645,-4.3645,-4.3645,-4.3645,-4.3645,-4.3645,-4.3645,-4.3645,-4.3645,-4.3645,-4.3645,-4.3645,-4.3645,-4.3645,-4.3645,-4.3628,-4.3578,-4.3462,-4.3115,-4.2395,-4.1552,-4.0838,-4.0728,-4.0527,-4.024,-4.0171,-4.032,-4.0531,-4.0849,-4.1157,-4.1276,-4.1587,-4.1931,-4.2139,-4.232,-4.2262,-4.232,-4.24,-4.2498,-4.2634,-4.2729,-4.2844,-4.2862,-4.2844,-4.2862,-4.2842,-4.2842,-4.2786,-4.2765,-4.2745,-4.2783,-4.2804,-4.2743,-4.2974,-4.2743,-4.2726,-4.2958,-4.2743,-4.2789,-4.2974,-4.2743,-4.2805,-4.2958,-4.2743,-4.2696,-4.2912,-4.3019,-4.308,-4.3279,-4.3218,-4.3262,-4.3548,-4.3846,-4.4743,-4.5421,-4.5912,-4.6553,-4.7078,-4.734,-4.7386,-4.777,-4.8146,-4.8576,-4.8765,-4.8827,-4.8546,-4.79,-4.7026,-4.6422,-4.5889,-4.5252,-4.4598,-4.4276,-4.4179,-4.3906,-4.3747,-4.3645,-4.3645,-4.3645,-4.3645,-4.3645,-4.3645,-4.3645,-4.3645,-4.3645,-4.3645,-4.3645,-4.3645,-4.3645,-4.3645,-4.3645,-4.3645,-4.3645,-4.3645,-4.3645,-4.3645,-4.3645,-4.3645,-4.3645,-4.3645,-4.3645,-4.3645,-4.3645,-4.3645,-4.3645,-4.3645,-4.3645,-4.3645,-4.3645,-4.3645,-4.3611,-4.3562,-4.3389,-4.3198,-4.2579,-4.177,-4.1177,-4.0931,-4.0612,-4.0206,-4.0254,-4.0483,-4.0784,-4.1139,-4.1543,-4.1803,-4.2115,-4.2279,-4.2418,-4.2537,-4.2616,-4.2673,-4.2882,-4.29,-4.2806,-4.2844,-4.29,-4.29,-4.29,-4.29,-4.29,-4.2862,-4.2862,-4.2824,-4.2804,-4.2822,-4.2804,-4.2634,-4.2634,-4.2571,-4.2634,-4.2634,-4.2634,-4.2634,-4.2571,-4.2634,-4.2634,-4.2618,-4.2634,-4.2805,-4.2958,-4.2851,-4.308,-4.3157,-4.3052,-4.2974,-4.3262,-4.3434,-4.4096,-4.4871,-4.5422,-4.5816,-4.6634,-4.7111,-4.7106,-4.7354,-4.7704,-4.8033,-4.8001,-4.7965,-4.7747,-4.7165,-4.62,-4.5607,-4.5133,-4.4515,-4.3848,-4.3747,-4.3628,-4.3645,-4.3645,-4.3645,-4.3645,-4.3645,-4.3645,-4.3645,-4.3645,-4.3645,-4.3645,-4.3645,-4.3645,-4.3645,-4.3645,-4.3645,-4.3645,-4.3645,-4.3645,-4.3645,-4.3645,-4.3645,-4.3645,-4.3645,-4.3645,-4.3645,-4.3645,-4.3645,-4.3645,-4.3645,-4.3645,-4.3645,-4.3645,-4.3645,-4.3645,-4.3645,-4.3645,-4.3628,-4.3595,-4.3588,-4.3323,-4.3187,-4.2411,-4.1648,-4.1251,-4.0663,-4.0172,-4.0303,-4.0563,-4.0926,-4.1321,-4.176,-4.2074,-4.2216,-4.2378,-4.2555,-4.2673,-4.275,-4.2844,-4.29,-4.29,-4.29,-4.29,-4.29,-4.29,-4.29,-4.29,-4.29,-4.29,-4.29,-4.29,-4.2862,-4.2842,-4.2842,-4.2571,-4.2571,-4.2571,-4.2571,-4.2571,-4.2571,-4.2571,-4.2571,-4.2571,-4.2571,-4.2571,-4.2634,-4.2696,-4.2743,-4.268,-4.2867,-4.2805,-4.2821,-4.2759,-4.2805,-4.2925,-4.3439,-4.397,-4.4398,-4.4838,-4.5375,-4.5978,-4.6714,-4.7193,-4.749,-4.7704,-4.7868,-4.752,-4.6957,-4.6626,-4.5632,-4.4887,-4.4506,-4.4026,-4.3645,-4.3645,-4.3645,-4.3645,-4.3645,-4.3645,-4.3645,-4.3645,-4.3645,-4.3645,-4.3645,-4.3645,-4.3645,-4.3645,-4.3645,-4.3645,-4.3645,-4.3645,-4.3645,-4.3645,-4.3645,-4.3645,-4.3645,-4.3645,-4.3645,-4.3645,-4.3645,-4.3645,-4.3645,-4.3645,-4.3645,-4.3645,-4.3645,-4.3645,-4.3645,-4.3645,-4.3645,-4.3645,-4.3645,-4.3645,-4.3645,-4.3645,-4.3589,-4.3487,-4.2981,-4.229,-4.1504,-4.0663,-4.0205,-4.0402,-4.0659,-4.0879,-4.1321,-4.1846,-4.2175,-4.2338,-4.2516,-4.2673,-4.2768,-4.2844,-4.29,-4.29,-4.29,-4.29,-4.29,-4.29,-4.29,-4.29,-4.29,-4.29,-4.29,-4.29,-4.29,-4.29,-4.2862,-4.2862,-4.2571,-4.2571,-4.2571,-4.2571,-4.2571,-4.2571,-4.2571,-4.2571,-4.2571,-4.2571,-4.2571,-4.2571,-4.2571,-4.2571,-4.2571,-4.2571,-4.2571,-4.2634,-4.2634,-4.2634,-4.2666,-4.3033,-4.3295,-4.3588,-4.417,-4.4691,-4.5294,-4.5996,-4.6684,-4.6586,-4.6585,-4.6895,-4.6513,-4.6182,-4.5963,-4.5052,-4.4489,-4.4191,-4.3794,-4.3661,-4.3645,-4.3645,-4.3645,-4.3645,-4.3645,-4.3645,-4.3645,-4.3645,-4.3645,-4.3645,-4.3645,-4.3645,-4.3645,-4.3645,-4.3645,-4.3645,-4.3645,-4.3645,-4.3645,-4.3645,-4.3645,-4.3645,-4.3645,-4.3645,-4.3645,-4.3645,-4.3645,-4.3645,-4.3645,-4.3645,-4.3645,-4.3645,-4.3645,-4.3645,-4.3645,-4.3645,-4.3645,-4.3645,-4.3645,-4.3645,-4.3645,-4.3713,-4.3523,-4.3227,-4.2517,-4.1923,-4.105,-4.0324,-4.0504,-4.0832,-4.1065,-4.1366,-4.1948,-4.2378,-4.2634,-4.2729,-4.2806,-4.29,-4.29,-4.29,-4.29,-4.29,-4.29,-4.29,-4.29,-4.29,-4.29,-4.29,-4.29,-4.29,-4.29,-4.29,-4.29,-4.29,-4.29,-4.2571,-4.2571,-4.2571,-4.2571,-4.2571,-4.2571,-4.2571,-4.2571,-4.2571,-4.2571,-4.2571,-4.2571,-4.2571,-4.2571,-4.2571,-4.2571,-4.2571,-4.2571,-4.2571,-4.2571,-4.2571,-4.284,-4.3098,-4.339,-4.3779,-4.4201,-4.4723,-4.5114,-4.5553,-4.557,-4.5651,-4.5612,-4.5412,-4.5243,-4.4792,-4.4506,-4.4241,-4.391,-4.3645,-4.3645,-4.3645,-4.3645,-4.3645,-4.3645,-4.3645,-4.3645,-4.3645,-4.3645,-4.3645,-4.3645,-4.3645,-4.3645,-4.3645,-4.3645,-4.3645,-4.3645,-4.3645,-4.3645,-4.3645,-4.3645,-4.3645,-4.3645,-4.3645,-4.3645,-4.3645,-4.3645,-4.3645,-4.3645,-4.3645,-4.3645,-4.3645,-4.3645,-4.3645,-4.3645,-4.3645,-4.3645,-4.3645,-4.3645,-4.3645,-4.3645,-4.3645,-4.3704,-4.3598,-4.332,-4.278,-4.2206,-4.1608,-4.0916,-4.0559,-4.1059,-4.141,-4.1717,-4.2198,-4.2537,-4.2806,-4.29,-4.29,-4.29,-4.29,-4.29,-4.29,-4.29,-4.29,-4.29,-4.29,-4.2938,-4.29,-4.29,-4.29,-4.2938,-4.29,-4.29,-4.29,-4.29,-4.29,-4.2571,-4.2571,-4.2571,-4.2571,-4.2571,-4.2571,-4.2571,-4.2571,-4.2571,-4.2571,-4.2571,-4.2571,-4.2571,-4.2571,-4.2571,-4.2571,-4.2571,-4.2571,-4.2571,-4.2571,-4.2571,-4.2696,-4.2745,-4.2972,-4.328,-4.3668,-4.4009,-4.4382,-4.4609,-4.4853,-4.5259,-4.5415,-4.4822,-4.4698,-4.4671,-4.4291,-4.3843,-4.3645,-4.3645,-4.3645,-4.3645,-4.3645,-4.3645,-4.3645,-4.3645,-4.3645,-4.3645,-4.3645,-4.3645,-4.3645,-4.3645,-4.3645,-4.3645,-4.3645,-4.3645,-4.3645,-4.3645,-4.3645,-4.3645,-4.3645,-4.3645,-4.3645,-4.3645,-4.3645,-4.3645,-4.3645,-4.3645,-4.3645,-4.3645,-4.3645,-4.3645,-4.3645,-4.3645,-4.3645,-4.3645,-4.3645,-4.3645,-4.3645,-4.3645,-4.3645,-4.3645,-4.3747,-4.3914,-4.3478,-4.2903,-4.2382,-4.2108,-4.1391,-4.0523,-4.1071,-4.176,-4.2056,-4.2418,-4.2673,-4.29,-4.29,-4.29,-4.29,-4.29,-4.29,-4.29,-4.29,-4.29,-4.29,-4.292,-4.2957,-4.292,-4.3032,-4.2995,-4.2995,-4.2938,-4.29,-4.29,-4.29,-4.29]}]]